[[{"header":{"parameterUnit":"m.s-1","parameterCategory":1,"la1":30.6,"la2":29.2853,"lo1":-89.7004,"lo2":-87.6739,"dy":0.0162,"dx":0.0183,"nx":112,"ny":82,"refTime":"2023-06-29T00:00:00:Z","depth":0,"parameterNumber":2,"parameterNumberName":"U-component_of_WINDS"},"data":[0.0,0.0,0.0,0.0,0.0,0.0,0.0,0.0,0.0,0.0,0.0,0.0,0.0,0.0,0.0,0.0,0.0,0.0,0.0,0.0,0.0,0.0,0.0,0.0,0.0,0.0,0.0,0.0,0.0,0.0,0.0,0.0,0.0,0.0,0.0,0.0,0.0,0.0,0.0,0.0,0.0,0.0,0.0,0.0,0.0,0.0,0.0,0.0,0.0,0.0,0.0,0.0,0.0,0.0,0.0,0.0,0.0,0.0,0.0,0.0,0.0,0.0,0.0,0.0,0.0,0.0,0.0,0.0,0.0,0.0,0.0,0.0,0.0,0.0,0.0,0.0,0.0,0.0,0.0,0.0,0.0,0.0,0.0,0.0,0.0,0.0,0.0,0.0,0.0,0.0,0.4287,0.247,0.2185,0.2259,0.2546,0.3009,0.3548,0.4127,0.0,0.0,0.0,0.0,0.0,0.0,0.0,0.0,0.0,0.0,0.0,0.0,0.0,0.0,0.0,0.0,0.0,0.0,0.0,0.0,0.0,0.0,0.0,0.0,0.0,0.0,0.0,0.0,0.0,0.0,0.0,0.0,0.0,0.0,0.0,0.0,0.0,0.0,0.0,0.0,0.0,0.0,0.0,0.0,0.0,0.0,0.0,0.0,0.0,0.0,0.0,0.0,0.0,0.0,0.0,0.0,0.0,0.0,0.0,0.0,0.0,0.0,0.0,0.0,0.0,0.0,0.0,0.0,0.0,0.0,0.0,0.0,0.0,0.0,0.0,0.0,0.0,0.0,0.0,0.0,0.0,0.0,0.0,0.0,0.0,0.0,0.0,0.0,0.0,0.0,0.0,0.0,0.0,0.0,0.0,0.0,0.0,0.0,0.0,0.0,0.0,0.0,0.0,0.0,0.359,0.272,0.2159,0.1891,0.1935,0.2218,0.2604,0.3103,0.0,0.0,0.0,0.0,0.0,0.0,0.0,0.0,0.0,0.0,0.0,0.0,0.0,0.0,0.0,0.0,0.0,0.0,0.0,0.0,0.0,0.0,0.0,0.0,0.0,0.0,0.0,0.0,0.0,0.0,0.0,0.0,0.0,0.0,0.0,0.0,0.0,0.0,0.0,0.0,0.0,0.0,0.0,0.0,0.0,0.0,0.0,0.0,0.0,0.0,0.0,0.0,0.0,0.0,0.0,0.0,0.0,0.0,0.0,0.0,0.0,0.0,0.0,0.0,0.0,0.0,0.0,0.0,0.0,0.0,0.0,0.0,0.0,0.0,0.0,0.0,0.0,0.0,0.0,0.0,0.0,0.0,0.0,0.0,0.0,0.0,0.0,0.0,0.0,0.0,0.0,0.0,0.0,0.0,0.0,0.0,0.0,0.0,0.0,0.0,0.0,0.0,0.0,0.3387,0.3461,0.2536,0.2044,0.1803,0.1803,0.2219,0.2715,0.3308,0.3026,0.0,0.0,0.0,0.0,0.0,0.0,0.0,0.0,0.0,0.0,0.0,0.0,0.0,0.0,0.0,0.0,0.0,0.0,0.0,0.0,0.0,0.0,0.0,0.0,0.0,0.0,0.0,0.0,0.0,0.0,0.0,0.0,0.0,0.0,0.0,0.0,0.0,0.0,0.0,0.0,0.0,0.0,0.0,0.0,0.0,0.0,0.0,0.0,0.0,0.0,0.0,0.0,0.0,0.0,0.0,0.0,0.0,0.0,0.0,0.0,0.0,0.0,0.0,0.0,0.0,0.0,0.0,0.0,0.0,0.0,0.0,0.0,0.0,0.0,0.0,0.0,0.0,0.0,0.0,0.0,0.0,0.0,0.0,0.0,0.0,0.0,0.0,0.0,0.0,0.0,0.0,0.0,0.0,0.0,0.0,0.0,0.0,0.0,0.0,0.0,0.0,0.0,0.3292,0.3126,0.2402,0.2,0.1825,0.1891,0.239,0.2908,0.3375,0.2878,0.0,0.0,0.0,0.0,0.0,0.0,0.0,0.0,0.0,0.0,0.0,0.0,0.0,0.0,0.0,0.0,0.0,0.0,0.0,0.0,0.0,0.0,0.0,0.0,0.0,0.0,0.0,0.0,0.0,0.0,0.0,0.0,0.0,0.0,0.0,0.0,0.0,0.0,0.0,0.0,0.0,0.0,0.0,0.0,0.0,0.0,0.0,0.0,0.0,0.0,0.0,0.0,0.0,0.0,0.0,0.0,0.0,0.0,0.0,0.0,0.0,0.0,0.0,0.0,0.0,0.0,0.0,0.0,0.0,0.0,0.0,0.0,0.0,0.0,0.0,0.0,0.0,0.0,0.0,0.0,0.0,0.0,0.0,0.0,0.0,0.0,0.0,0.0,0.0,0.0,0.0,0.0,0.0,0.0,0.0,0.0,0.0,0.0,0.0,0.0,0.0,0.0,0.2567,0.214,0.2612,0.2154,0.1913,0.215,0.2493,0.2657,0.2594,0.247,0.0,0.0,0.0,0.0,0.0,0.0,0.0,0.0,0.0,0.0,0.0,0.0,0.0,0.0,0.0,0.0,0.0,0.0,0.0,0.0,0.0,0.0,0.0,0.0,0.0,0.0,0.0,0.0,0.0,0.0,0.0,0.0,0.0,0.0,0.0,0.0,0.0,0.0,0.0,0.0,0.0,0.0,0.0,0.0,0.0,0.0,0.0,0.0,0.0,0.0,0.0,0.0,0.0,0.0,0.0,0.0,0.0,0.0,0.0,0.0,0.0,0.0,0.0,0.0,0.0,0.0,0.0,0.0,0.0,0.0,0.0,0.0,0.0,0.0,0.0,0.0,0.0,0.0,0.0,0.0,0.0,0.0,0.0,0.0,0.0,0.0,0.0,0.0,0.0,0.0,0.0,0.0,0.0,0.0,0.0,0.0,0.0,0.0,0.0,0.0,0.0,0.0,0.4009,0.3772,0.0,0.2415,0.2172,0.2481,0.2618,0.2636,0.2449,0.0,0.0,0.0,0.0,0.0,0.0,0.0,0.0,0.0,0.0,0.0,0.0,0.0,0.0,0.0,0.0,0.0,0.0,0.0,0.0,0.0,0.0,0.0,0.0,0.0,0.0,0.0,0.0,0.0,0.0,0.0,0.0,0.0,0.0,0.0,0.0,0.0,0.0,0.0,0.0,0.0,0.0,0.0,0.0,0.0,0.0,0.0,0.0,0.0,0.0,0.0,0.0,0.0,0.0,0.0,0.0,0.0,0.0,0.0,0.0,0.0,0.0,0.0,0.0,0.0,0.0,0.0,0.0,0.0,0.0,0.0,0.0,0.0,0.0,0.0,0.0,0.0,0.0,0.0,0.0,0.0,0.0,0.0,0.0,0.0,0.0,0.0,0.0,0.0,0.0,0.0,0.0,0.0,0.0,0.0,0.0,0.0,0.0,0.0,0.0,0.0,0.0,0.4317,0.4566,0.4361,0.0,0.2654,0.2481,0.2805,0.283,0.2769,0.2672,0.0,0.0,0.0,0.0,0.0,0.0,0.0,0.0,0.0,0.0,0.0,0.0,0.0,0.0,0.0,0.0,0.0,0.0,0.0,0.0,0.0,0.0,0.0,0.0,0.0,0.0,0.0,0.0,0.0,0.0,0.0,0.0,0.0,0.0,0.0,0.0,0.0,0.0,0.0,0.0,0.0,0.0,0.0,0.0,0.0,0.0,0.0,0.0,0.0,0.0,0.0,0.0,0.0,0.0,0.0,0.0,0.0,0.0,0.0,0.0,0.0,0.0,0.0,0.0,0.0,0.0,0.0,0.0,0.0,0.0,0.0,0.0,0.0,0.0,0.0,0.0,0.0,0.0,0.0,0.0,0.0,0.0,0.0,0.0,0.0,0.0,0.0,0.0,0.0,0.0,0.0,0.0,0.0,0.0,0.0,0.0,0.0,0.0,0.0,0.0,0.0,0.0,0.4264,0.3835,0.3395,0.3132,0.2875,0.281,0.3089,0.3111,0.3128,0.0,0.0,0.0,0.0,0.0,0.0,0.0,0.0,0.0,0.0,0.0,0.0,0.0,0.0,0.0,0.0,0.0,0.0,0.0,0.0,0.0,0.0,0.0,0.0,0.0,0.0,0.0,0.0,0.0,0.0,0.0,0.0,0.0,0.0,0.0,0.0,0.0,0.0,0.0,0.0,0.0,0.0,0.0,0.0,0.0,0.0,0.0,0.0,0.0,0.0,0.0,0.0,0.0,0.0,0.0,0.0,0.0,0.0,0.0,0.0,0.0,0.0,0.0,0.0,0.0,0.0,0.0,0.0,0.0,0.0,0.0,0.0,0.0,0.0,0.0,0.0,0.0,0.0,0.0,0.0,0.0,0.0,0.0,0.0,0.0,0.0,0.0,0.0,0.0,0.0,0.0,0.0,0.0,0.0,0.0,0.0,0.0,0.0,0.0,0.0,0.0,0.0,0.0,0.4677,0.4253,0.3779,0.3415,0.3132,0.3089,0.3351,0.3132,0.3535,0.4884,0.0,0.0,0.0,0.0,0.0,0.0,0.0,0.0,0.0,0.0,0.0,0.0,0.0,0.0,0.0,0.0,0.0,0.0,0.0,0.0,0.0,0.0,0.0,0.0,0.0,0.0,0.0,0.0,0.0,0.0,0.0,0.0,0.0,0.0,0.0,0.0,0.0,0.0,0.0,0.0,0.0,0.0,0.0,0.0,0.0,0.0,0.0,0.0,0.0,0.0,0.0,0.0,0.0,0.0,0.0,0.0,0.0,0.0,0.0,0.0,0.0,0.0,0.0,0.0,0.0,0.0,0.0,0.0,0.0,0.0,0.0,0.0,0.0,0.0,0.0,0.0,0.0,0.0,0.0,0.0,0.0,0.0,0.0,0.0,0.0,0.0,0.0,0.0,0.0,0.0,0.0,0.0,0.0,0.0,0.0,0.0,0.0,0.0,0.0,0.0,0.0,0.0,0.4833,0.4403,0.3952,0.3548,0.3351,0.333,0.3485,0.3281,0.3661,0.4907,0.0,0.0,0.0,0.0,0.0,0.0,0.0,0.0,0.0,0.0,0.0,0.0,0.0,0.0,0.0,0.0,0.0,0.0,0.0,0.0,0.0,0.0,0.0,0.0,0.0,0.0,0.0,0.0,0.0,0.0,0.0,0.0,0.0,0.0,0.0,0.0,0.0,0.0,0.0,0.0,0.0,0.0,0.0,0.0,0.0,0.0,0.0,0.0,0.0,0.0,0.0,0.0,0.0,0.0,0.0,0.0,0.0,0.0,0.0,0.0,0.0,0.0,0.0,0.0,0.0,0.0,0.0,0.0,0.0,0.0,0.0,0.0,0.0,0.0,0.0,0.0,0.0,0.0,0.0,0.0,0.0,0.0,0.0,0.0,0.0,0.0,0.0,0.0,0.0,0.0,0.0,0.0,0.0,0.0,0.0,0.0,0.0,0.0,0.0,0.0,0.0,0.0,0.4881,0.4426,0.3965,0.3584,0.3548,0.3527,0.3506,0.3506,0.3672,0.4082,0.0,0.0,0.0,0.0,0.0,0.0,0.0,0.0,0.0,0.0,0.0,0.0,0.0,0.0,0.0,0.0,0.0,0.0,0.0,0.0,0.0,0.0,0.0,0.0,0.0,0.0,0.0,0.0,0.0,0.0,0.0,0.0,0.0,0.0,0.0,0.0,0.0,0.0,0.0,0.0,0.0,0.0,0.0,0.0,0.0,0.0,0.0,0.0,0.0,0.0,0.0,0.0,0.0,0.0,0.0,0.0,0.0,0.0,0.0,0.0,-0.1247,0.0,0.0,0.0,0.0,0.0,0.0,0.0,0.0,0.0,0.0,0.0,0.0,0.0,0.0,0.0,0.0,0.0,0.0,0.0,0.0,0.0,0.0,0.0,0.0,0.0,0.0,0.0,0.0,0.0,0.0,0.0,0.0,0.0,0.0,0.0,0.0,0.0,0.0,0.0,0.0,0.0,0.5254,0.469,0.415,0.3848,0.3807,0.3731,0.3527,0.3506,0.4112,0.5549,0.4905,0.0,0.0,0.0,0.0,0.0,0.0,0.0,0.0,0.0,0.0,0.0,0.0,0.0,0.0,0.0,0.0,0.0,0.0,0.0,0.0,0.0,0.0,0.0,0.0,0.0,0.0,0.0,0.0,0.0,0.0,0.0,0.0,0.0,0.0,0.0,0.0,0.0,0.0,0.0,0.0,0.0,0.0,0.0,0.0,0.0,0.0,0.0,0.0,0.0,0.0,0.0,0.0,0.0,0.0,0.0,0.0,0.0,0.0,0.0,0.0,-0.1059,0.0,0.0,0.0,0.0,0.0,0.0,0.0,0.0,0.0,0.0,0.0,0.0,0.0,0.0,0.0,0.0,0.0,0.0,0.0,0.0,0.0,0.0,0.0,0.0,0.0,0.0,0.0,0.0,0.0,0.0,0.0,0.0,0.0,0.0,0.0,0.0,0.0,0.0,0.0,0.0,0.5952,0.5454,0.4854,0.4297,0.4155,0.3937,0.3527,0.3506,0.3966,0.5062,0.5279,0.0,0.0,0.0,0.0,0.0,0.0,0.0,0.0,0.0,0.0,0.0,0.0,0.0,0.0,0.0,0.0,0.0,0.0,0.0,0.0,0.0,0.0,0.0,0.0,0.0,0.0,0.0,0.0,0.0,0.0,0.0,0.0,0.0,0.0,0.0,0.0,0.0,0.0,0.0,0.0,0.0,0.0,0.0,0.0,0.0,0.0,0.0,0.0,0.0,0.0,0.0,0.0,0.0,0.1818,-0.0381,-0.2232,-0.4197,-0.5162,-0.5108,-0.2798,-0.3591,-0.6235,-0.2436,0.0,0.0,0.0,0.0,0.0,0.0,0.0,0.0,0.0,0.0,0.0,0.0,0.0,0.0,0.0,0.0,0.0,0.0,0.0,0.0,0.0,0.0,0.0,0.0,0.4355,0.5454,0.6992,0.0,0.0,0.0,0.0,0.0,0.0,0.0,0.0,0.0,0.0,0.0,0.6706,0.6308,0.572,0.4934,0.4354,0.3885,0.3626,0.3605,0.3731,0.4048,0.5496,0.611,0.0,0.0,0.0,0.0,0.0,0.0,0.0,0.0,0.0,0.0,0.0,0.0,0.0,0.0,0.0,0.0,0.0,0.0,0.0,0.0,0.0,0.0,0.0,0.0,0.0,0.0,0.0,0.0,0.0,0.0,0.0,0.0,0.9735,1.1112,0.0,0.0,0.0,0.0,0.0,0.0,0.0,0.0,0.0,0.0,0.0,0.0,0.0,1.1381,1.3067,0.8546,0.5136,0.2826,-0.1419,-0.5901,-1.0465,-1.1465,-1.2263,-1.274,-0.9282,0.0,-1.0,-0.7416,0.0,0.0,0.0,0.0,0.0,0.0,0.0,0.0,0.0,0.0,0.0,0.0,0.0,0.0,0.0,0.0,0.0,0.0,0.0,0.0,0.0,0.0,-0.0631,0.0968,0.2319,0.3793,0.5773,0.7267,0.8372,0.8915,0.8613,0.0,0.0,0.0,0.0,0.0,0.0,0.0,0.7176,0.6766,0.635,0.5948,0.4053,0.3151,0.3947,0.4027,0.3986,0.3931,0.4519,0.5297,0.6241,0.8191,0.0,0.0,0.0,0.0,0.0,0.0,0.0,0.0,0.0,0.0,0.0,0.0,0.0,0.0,0.0,0.0,0.0,0.0,0.0,0.0,0.0,0.0,0.0,0.0,0.0,0.0,0.0,0.0,0.0,0.9588,1.1718,1.2955,1.363,1.3557,0.0,0.0,0.0,0.0,0.0,0.0,0.0,0.0,0.0,1.2486,1.0858,0.985,0.9552,0.6096,0.2692,-0.0657,-0.4282,-0.7814,-1.1216,-1.2781,-1.3785,-1.4235,-1.2449,-1.2124,-1.2637,-0.9521,-0.8767,-0.9216,0.0,0.0,0.0,0.0,-0.0675,-0.013,-0.1035,-0.3215,-0.5349,-0.3765,0.0,0.0,0.0,0.0,0.0,0.0,0.0,0.2781,0.0,0.0,0.2765,0.1121,0.1527,0.2685,0.4211,0.5314,0.6661,0.0,0.9441,0.9474,0.9373,0.0,0.0,0.0,0.0,0.7663,0.8139,0.8345,0.7922,0.6538,0.5499,0.4055,0.1974,0.3384,0.4366,0.4301,0.4321,0.4806,0.5856,0.7013,0.7293,0.0,0.0,0.0,0.0,0.0,0.0,0.0,0.0,0.0,0.0,0.0,0.0,0.0,0.0,0.0,0.0,0.0,0.0,0.0,0.0,0.0,0.0,0.0,0.0,0.0,0.0,0.0,0.0,1.0326,1.2423,1.3648,1.3982,1.3859,0.0,0.0,0.0,0.0,0.0,0.0,1.2547,1.2515,1.259,1.2771,1.0374,0.8028,0.5751,0.3315,0.0045,-0.3986,-0.6693,-0.9067,-1.1167,-1.2926,-1.3789,-1.3914,-1.374,-1.3703,-1.3611,-1.1004,-0.989,-0.9797,-0.9055,-0.7176,-0.4766,-0.3801,-0.3036,-0.25,-0.2697,-0.3757,-0.5014,-0.5127,-0.4462,-0.3615,-0.3671,0.0,0.0,0.0,0.0,0.2853,0.1594,0.3213,0.4391,0.1211,0.1134,0.2015,0.282,0.3446,0.4817,0.0,0.9295,0.9978,1.054,0.0,0.0,0.0,0.0,0.8285,0.8914,0.8043,0.7393,0.7436,0.5964,0.4084,0.1877,0.2757,0.3611,0.407,0.4338,0.4765,0.5377,0.616,0.635,0.5877,0.0,0.0,0.0,0.0,0.0,0.0,0.0,0.0,0.0,0.0,0.0,0.0,0.0,0.0,0.0,0.0,0.0,0.0,0.0,0.0,0.0,0.0,0.0,0.0,0.0,0.0,0.0,0.0,0.0,1.1948,1.3685,0.0,0.0,0.0,0.0,1.1,1.1479,1.2184,1.2862,1.1916,1.2406,1.4602,1.0489,0.6858,0.3954,0.0658,-0.2751,-0.6238,-0.8508,-1.0656,-1.2705,-1.3449,-1.3503,-1.2996,-1.3153,-1.2831,-1.2224,-1.2582,-1.3267,-1.3718,-0.9903,-0.8523,-0.8432,-0.6879,-0.5907,-0.5675,-0.7681,-0.822,-0.7929,-0.7561,-0.6463,-0.4675,-0.1345,-0.0265,0.0,0.0,0.3378,0.1449,0.3178,0.1154,-0.1099,-0.0181,0.0933,0.1818,0.1858,0.2444,0.3564,0.0,0.6906,0.7555,0.7208,0.0,0.961,0.8199,0.9482,1.0224,0.9145,0.4023,0.2861,0.9065,0.4106,0.1948,0.5923,0.2562,0.0941,0.2587,0.4476,0.5404,0.5126,0.5654,0.6314,0.7091,0.7757,0.0,0.0,0.0,0.0,0.0,0.0,0.0,0.0,0.0,0.0,0.0,0.0,0.0,0.0,0.0,0.0,0.0,0.0,0.0,0.0,0.0,0.0,0.0,0.0,0.0,0.0,0.0,0.0,1.1723,1.2304,0.0,1.0977,1.179,1.1893,1.0623,1.2063,1.2656,1.184,1.2765,1.2063,0.9423,0.5734,0.2566,-0.0052,-0.2649,-0.5055,-0.7285,-0.9394,-1.0788,-1.1548,-1.2677,-1.3118,-1.2965,-1.3029,-1.2922,-1.2676,-1.2884,-1.2872,-1.2589,-1.105,-1.0468,-1.0349,-0.9563,-0.8932,-0.8581,-0.909,-0.8985,-0.8503,-0.7568,-0.6379,-0.5014,-0.3668,-0.282,-0.1983,-0.0271,-0.0358,-0.082,-0.0217,-0.0927,-0.1584,-0.0779,0.0052,0.0738,0.1134,0.1721,0.2463,0.344,0.5051,0.6694,0.802,0.8383,0.8798,0.9722,0.9669,0.9395,0.9039,0.7131,0.5859,0.6029,0.5741,0.4675,0.2537,0.3519,0.3297,0.1068,0.16,0.3084,0.5504,0.5808,0.6179,0.6797,0.7022,0.6368,0.0,0.0,0.0,0.0,0.0,0.0,0.0,0.0,0.0,0.0,0.0,0.0,0.0,0.0,0.0,0.0,0.0,0.0,0.0,0.0,0.0,0.0,0.0,0.0,0.0,0.0,0.9587,1.1126,1.0861,1.0458,1.0145,1.021,1.0197,1.0021,1.1888,1.2525,1.1422,1.1143,0.932,0.5711,0.1991,-0.125,-0.3929,-0.569,-0.7312,-0.8758,-1.0267,-1.1039,-1.1166,-1.2353,-1.2695,-1.226,-1.2614,-1.2597,-1.2399,-1.2637,-1.2451,-1.2015,-1.2289,-1.2136,-1.1704,-1.1644,-1.1104,-1.0288,-0.9238,-0.8527,-0.7931,-0.7001,-0.5945,-0.5044,-0.4855,-0.4161,-0.3366,-0.299,-0.2538,-0.2171,-0.2197,-0.2138,-0.1903,-0.1092,-0.0446,0.011,0.0498,0.1221,0.1866,0.2153,0.3721,0.5866,0.8488,0.8634,0.9244,1.1799,1.1391,1.084,1.0938,0.9475,0.7609,0.547,0.6974,0.5924,0.0462,0.3821,0.5386,0.3401,0.3185,0.4195,0.6545,0.6756,0.6661,0.6336,0.6715,0.7109,0.7543,0.0,0.0,0.0,0.0,0.0,0.0,0.0,0.0,0.0,0.0,0.0,0.0,0.0,0.0,0.0,0.0,0.0,0.0,0.0,0.0,0.0,0.0,0.0,0.7457,0.8286,0.909,0.9982,0.9501,0.91,0.9121,0.9136,0.9137,0.9109,1.0534,1.1391,1.1376,0.6865,0.415,0.3938,-0.0503,-0.4347,-0.7426,-0.8264,-0.9352,-1.0804,-1.1157,-1.1506,-1.185,-1.2588,-1.2175,-1.0914,-1.1788,-1.1799,-1.1219,-1.1993,-1.2297,-1.2362,-1.3529,-1.3371,-1.2556,-1.2992,-1.228,-1.0743,-0.8511,-0.7205,-0.6446,-0.6065,-0.5436,-0.4777,-0.4499,-0.3929,-0.3277,-0.3005,-0.2744,-0.2481,-0.2286,-0.2455,-0.2412,-0.1231,-0.0479,-0.0,-0.0,0.0906,0.1752,0.179,0.2893,0.4838,0.8074,0.9249,1.075,1.3773,1.4332,0.0,1.4519,1.0273,0.7446,0.7913,0.7504,0.5308,0.0617,0.3424,0.666,0.9562,0.9459,0.8976,0.8261,0.8521,0.7847,0.6065,0.7102,0.9447,1.3063,0.0,0.0,0.0,0.0,0.0,0.0,0.0,0.0,0.0,0.0,0.0,0.0,0.0,0.0,0.0,0.0,0.0,0.0,0.0,0.0,0.0,0.0,0.742,0.8528,0.8348,0.8459,0.946,0.8771,0.8184,0.8114,0.813,0.8004,0.7719,0.6852,0.5872,0.4699,0.3806,0.1811,-0.1524,-0.4755,-0.7068,-0.8235,-0.9015,-0.9916,-1.0903,-1.1485,-1.2086,-1.2742,-1.3151,-1.2855,-1.205,-1.194,-1.1514,-1.0954,-1.167,-1.1743,-1.1626,-1.2797,-1.2888,-1.2373,-1.2494,-1.1452,-0.9791,-0.8829,-0.7714,-0.6695,-0.6594,-0.6043,-0.5388,-0.5128,-0.4616,-0.4049,-0.3882,-0.3639,-0.3375,-0.306,-0.2836,-0.2661,-0.2469,-0.1186,-0.0,-0.0,0.0275,0.0749,0.1622,0.1985,0.2755,0.4631,0.5563,0.6475,0.771,0.8065,0.0,0.8195,0.7119,0.7147,0.9204,0.8135,0.6663,0.5198,0.4351,0.5927,1.07,0.9923,0.9855,1.1081,1.0725,1.0652,1.1018,1.1041,1.1548,0.0,0.0,0.0,0.0,0.0,0.0,0.0,0.0,0.0,0.0,0.0,0.0,0.0,0.0,0.0,0.0,0.0,0.0,0.0,0.0,0.0,0.0,0.6779,0.764,0.882,0.8424,0.8162,0.8427,0.7639,0.711,0.7101,0.6768,0.6427,0.603,0.386,0.1465,-0.0993,-0.0681,-0.1897,-0.5184,-0.7101,-0.8331,-0.8998,-0.991,-1.0763,-1.1522,-1.206,-1.272,-1.3521,-1.3667,-1.3394,-1.2724,-1.2573,-1.2013,-1.1311,-1.1781,-1.1787,0.0,0.0,0.0,0.0,0.0,-1.1084,-0.9879,-0.9133,-0.8006,-0.6951,-0.6951,-0.6309,-0.5512,-0.5355,-0.475,-0.4136,-0.4041,-0.377,-0.3458,-0.3255,-0.2985,-0.2791,-0.285,-0.2061,-0.1075,-0.0201,-0.0,0.0213,0.0911,0.125,0.0,0.2966,0.4533,0.615,0.7606,0.7909,0.796,0.7971,0.7225,0.7303,0.8835,0.7335,0.6301,0.6556,0.5417,0.0,0.0,0.0,1.0114,1.176,1.1354,0.0,0.0,0.0,1.2979,1.314,1.3815,0.0,0.0,1.286,1.3484,0.0,0.0,0.0,0.0,0.0,0.0,0.0,0.0,0.0,0.0,0.0,0.0,0.0,0.0,0.0,0.0,0.6849,0.7327,0.8517,0.8425,0.7936,0.7135,0.6457,0.6042,0.6084,0.5494,0.4813,0.4035,0.1125,-0.1991,-0.5206,0.0,0.0,0.0,0.0,-0.8689,-0.9673,-1.0827,-1.1811,-1.2603,-1.2862,-1.3423,-1.4291,-1.4253,-1.3869,-1.3186,-1.3385,-1.2857,-1.1933,-1.228,-1.2172,-1.1939,-1.3074,-1.294,-1.2044,-1.1407,-1.0888,-1.0409,-0.927,0.0,0.0,-0.7154,-0.6324,-0.5302,-0.5274,-0.4635,-0.388,-0.3863,-0.3582,-0.3236,-0.3197,-0.3104,-0.2973,-0.2805,-0.2923,-0.2546,-0.062,-0.0099,-0.0,-0.0,0.0692,0.1585,0.2549,0.4843,0.7419,0.989,1.0199,1.0153,1.0147,0.839,0.7258,0.7547,0.5813,0.0,0.6213,0.6398,0.6635,0.705,0.8654,1.0042,1.105,1.1115,1.1553,1.2438,1.3277,1.3926,1.438,1.4888,1.5241,1.5436,1.4623,1.5826,0.0,0.0,0.0,0.0,0.0,0.0,0.0,0.0,0.0,0.0,0.0,0.0,0.0,0.0,0.0,0.7567,0.7953,0.817,0.7963,0.7489,0.7113,0.6823,0.6569,0.618,0.5618,0.5447,0.4112,0.1071,-0.2396,-0.4642,-0.5335,-0.5229,-0.6022,-0.796,-0.8125,-0.9117,-1.104,-1.1301,-1.22,-1.3776,0.0,0.0,-1.5674,-1.5322,-1.463,-1.3661,-1.3314,-1.2742,-1.2133,-1.2678,-1.2851,-1.2595,-1.2008,-1.1489,-1.1057,-1.0564,-1.0081,-0.9565,-0.8974,-0.7907,-0.6886,-0.6886,-0.6163,-0.5277,-0.5152,-0.4808,0.0,-0.4313,-0.4228,-0.4076,-0.374,-0.3639,-0.3575,-0.3316,-0.3154,-0.2733,-0.1675,-0.0697,-0.0,-0.0,0.0701,0.1593,0.2544,0.3026,0.3589,0.4387,0.4412,0.4316,0.4326,0.3933,0.4635,0.7173,0.5507,0.528,0.7864,0.6539,0.5925,0.6801,0.8938,1.0248,1.0458,1.1775,1.2603,1.2799,1.3743,1.4453,1.4868,1.4762,1.5311,1.6402,1.5493,1.6063,0.0,0.0,0.0,0.0,0.0,0.0,0.0,0.0,0.0,0.0,0.0,0.6702,0.0,0.0,0.8216,0.7992,0.8198,0.8173,0.7522,0.6814,0.6321,0.6158,0.6015,0.5466,0.4178,0.4868,0.2986,-0.274,-0.3836,-0.4666,-0.5651,-0.6022,-0.6954,-0.8584,-0.9144,-1.0158,-1.1857,-1.1864,-1.2683,-1.4287,-1.4287,-1.502,-1.6387,-1.6172,-1.565,-1.4914,-1.444,-1.3855,-1.3102,-1.263,-1.2059,-1.143,-1.0917,-1.0817,-1.0941,-1.0237,-0.9818,-0.9502,-0.8948,-0.7996,-0.7037,-0.7037,-0.618,-0.5078,-0.5032,-0.4654,-0.4288,-0.4208,-0.416,-0.4069,-0.3946,-0.3742,-0.356,-0.3514,-0.3337,-0.304,-0.2545,-0.1152,-0.0,-0.0,0.034,0.1071,0.2475,0.2221,0.2,0.2431,0.2461,0.2453,0.2453,0.2513,0.3157,0.4733,0.4012,0.4068,0.5704,0.5202,0.5317,0.6522,0.8013,0.913,0.972,1.0912,1.1686,1.1939,1.2756,1.3609,1.4407,1.4709,1.5441,1.6537,1.628,1.6913,0.0,0.0,0.0,0.0,0.0,0.0,0.0,0.0,0.7079,0.7058,0.7339,0.7573,0.7413,0.8388,0.8943,0.8138,0.8017,0.7864,0.7263,0.6395,0.5847,0.5768,0.5524,0.4798,0.3381,0.3179,0.0511,-0.5798,-0.4689,-0.4455,-0.6255,-0.694,-0.7937,-0.9316,-1.0248,-1.1211,-1.2385,-1.2445,-1.3258,-1.4686,-1.4686,-1.5493,-1.6855,-1.6855,-1.6611,-1.6172,-1.5732,-1.5222,-1.455,-1.2928,-1.1652,-1.0751,-1.0451,-1.0617,-1.0942,-1.0074,-0.976,-0.9604,-0.8931,-0.8004,-0.7155,-0.6995,-0.5998,-0.4805,-0.4773,-0.4415,-0.4009,-0.4029,-0.3931,-0.3863,-0.3988,-0.3705,-0.3467,-0.3636,-0.3548,-0.3354,-0.3239,-0.17,-0.028,-0.004,-0.0,0.0469,0.1911,0.1701,0.1509,0.2125,0.2231,0.2238,0.2211,0.2288,0.2377,0.2453,0.2572,0.2759,0.3033,0.3716,0.4655,0.5878,0.6569,0.743,0.8483,0.9262,0.9888,1.0418,1.123,1.2226,1.3407,1.428,1.5246,1.6316,1.673,1.764,0.283,0.2824,0.3096,0.3831,0.4182,0.4866,0.0,0.0,0.675,0.8247,0.8803,0.8748,0.7862,0.8663,0.9145,0.8174,0.7658,0.7444,0.7573,0.6707,0.6019,0.6165,0.5759,0.5312,0.5101,-0.1037,-0.533,-0.6259,-0.5892,-0.6327,-0.77,-0.7442,-0.8293,-1.0341,-1.0789,-1.1565,-1.2692,-1.2973,-1.3928,-1.5503,-1.5503,-1.6149,-1.7314,-1.7314,-1.707,-1.6631,-1.6182,-1.615,-1.6263,-1.4632,-1.3648,-1.3097,-1.1684,-1.0766,-1.0212,-0.986,-0.9525,-0.9185,-0.8515,-0.7565,-0.6548,-0.5892,-0.5179,-0.4497,-0.4312,-0.4222,-0.414,-0.406,-0.4009,-0.3999,-0.4016,-0.3982,-0.3948,-0.3968,-0.3843,-0.3721,-0.3589,-0.2533,-0.1262,-0.0209,-0.0,0.0082,0.0275,0.086,0.1605,0.2493,0.2478,0.2325,0.2211,0.2221,0.2344,0.2631,0.2524,0.2566,0.2904,0.3336,0.382,0.4334,0.4983,0.5592,0.6069,0.713,0.7904,0.8322,0.9692,1.0947,1.2027,1.2848,1.4169,1.5965,1.6431,1.7374,0.2926,0.3197,0.3187,0.0,0.3754,0.4819,0.5705,0.644,0.7158,0.7995,0.8799,0.9143,0.8699,0.917,0.9336,0.0,0.8196,0.7781,0.7021,0.5412,0.3952,0.3013,0.2654,0.2337,0.2076,-0.3006,-0.6335,-0.6266,-0.6912,-0.7513,-0.7869,-0.8793,-0.9849,-1.0935,-1.1658,-1.2394,-1.3013,-1.3146,-1.4129,-1.593,-1.593,-1.6814,-1.8496,-1.8496,-1.8115,-1.7375,-1.6138,-1.5433,-1.5118,-1.3824,-1.2835,-1.2049,-1.1404,-1.0822,-1.0314,-0.9853,-0.9606,-0.9359,-0.8502,-0.7644,-0.6754,-0.58,-0.5058,-0.4508,-0.4392,-0.4372,-0.4358,-0.4297,-0.4219,-0.412,-0.4256,-0.4148,-0.4043,-0.408,-0.4036,-0.3879,-0.3645,-0.3197,-0.2303,-0.0363,-0.0,-0.0,-0.0,0.0322,0.1047,0.2498,0.2629,0.2568,0.2506,0.2488,0.2485,0.2408,0.2339,0.2427,0.2764,0.2932,0.3226,0.3732,0.4222,0.4684,0.5053,0.5809,0.6574,0.729,0.8172,0.9317,1.0707,1.1754,1.2942,1.4293,1.4993,1.605,0.2742,0.0,0.0,0.2102,0.2694,0.3614,0.4189,0.5271,0.6373,0.7262,0.8132,0.8676,0.872,0.9228,0.9341,0.8226,0.6995,0.5799,0.4741,0.3251,0.1583,-0.0304,-0.0949,-0.1369,-0.1874,-0.4515,-0.6307,-0.674,-0.7584,-0.8277,-0.8609,-1.0106,-1.1141,-1.1652,-1.2518,-1.325,-1.3791,-1.3874,-1.487,-1.6767,-1.6767,-1.7632,-1.9287,-1.9287,-1.8955,-1.8251,-1.6526,-1.5481,-1.4858,-1.3392,-1.2369,-1.1625,-1.1276,-1.0982,-1.0748,-1.0321,-1.0013,-0.9649,-0.8439,-0.769,-0.6964,-0.5686,-0.4964,-0.4573,-0.4529,-0.4519,-0.4519,-0.4519,-0.4389,-0.4331,-0.4436,-0.4304,-0.4168,-0.428,-0.4143,-0.3989,-0.3796,-0.3686,-0.3099,-0.131,-0.0473,-0.0,-0.0,-0.0,0.043,0.1767,0.2171,0.2316,0.2316,0.2528,0.2598,0.2377,0.234,0.2402,0.2544,0.2643,0.2887,0.3344,0.3635,0.3918,0.4169,0.4698,0.533,0.6135,0.671,0.7715,0.9088,1.0246,1.133,1.2362,1.3252,1.4481,0.0,0.0,0.1584,0.1218,0.0664,0.0571,0.2386,0.2801,0.3559,0.6171,0.6937,0.7126,0.7192,0.8546,0.9082,0.7102,0.2943,-0.0,0.0156,0.0305,-0.0454,-0.2721,-0.4306,-0.5365,0.0,-0.5772,-0.6335,-0.7829,-0.7668,-0.8467,-1.0622,-1.1036,-1.1652,-1.2746,-1.3313,-1.4095,-1.5203,-1.5509,-1.6476,-1.8258,-1.8258,-1.86,-1.9287,-1.9287,-1.9277,-1.9146,-1.7596,-1.6982,-1.692,-1.4214,-1.3105,-1.313,-1.1861,-1.141,-1.1396,-1.1376,-1.0835,-0.9851,-0.8281,-0.7517,-0.7008,-0.5308,-0.4684,-0.4657,-0.4563,-0.4519,-0.4519,-0.4519,-0.4515,-0.4512,-0.4515,-0.4512,-0.4505,-0.4512,-0.4355,-0.4204,-0.4204,-0.3891,-0.3601,-0.3497,-0.161,-0.0,-0.0,-0.0,-0.0,0.009,0.0819,0.1337,0.1358,0.2149,0.27,0.2697,0.2694,0.2557,0.2252,0.2498,0.2778,0.2997,0.304,0.3071,0.3138,0.3613,0.4029,0.4455,0.532,0.6194,0.71,0.8109,0.9226,1.0388,1.1365,1.2904,0.2169,0.0,0.149,0.0622,0.0169,0.0179,0.0734,-0.0463,-0.148,-0.0365,0.1534,0.3034,0.3047,0.4092,0.4382,0.2717,0.1104,-0.0971,-0.4053,-0.4394,-0.4442,-0.479,-0.6317,0.0,0.0,0.0,0.0,-0.7634,-0.8739,-0.9928,-1.1036,-1.1839,-1.2616,-1.3327,-1.354,-1.4213,-1.5539,-1.5644,-1.67,-1.8758,-1.9472,-1.9947,-2.0127,-1.9834,-1.9707,-1.9603,-1.7424,-1.636,-1.6139,-1.4021,-1.2843,-1.2367,-1.2114,-1.177,-1.1423,-1.1423,-1.0824,-0.9784,-0.8458,-0.7448,-0.6485,-0.5118,-0.4758,-0.4796,-0.4594,-0.4587,-0.4592,-0.4546,-0.4519,-0.4519,-0.4519,-0.4519,-0.4519,-0.4519,-0.4433,-0.413,-0.3075,-0.2786,-0.2831,-0.3472,-0.2939,-0.1869,-0.0252,-0.0,-0.0,-0.0,0.0258,0.0436,0.0421,0.1203,0.2013,0.2647,0.2141,0.1731,0.1603,0.1716,0.1784,0.1886,0.2632,0.3093,0.3102,0.3239,0.3401,0.353,0.4057,0.4748,0.569,0.66,0.7304,0.7875,0.9017,1.0339,0.0813,0.1136,0.1171,0.0263,-0.1483,-0.2875,-0.2816,-0.3382,-0.3967,-0.4198,-0.2545,-0.0901,-0.0349,-0.0127,-0.0366,-0.1611,-0.2249,-0.3815,-0.7273,-0.7712,-0.7548,-0.735,-0.823,-0.8586,0.0,0.0,0.0,-0.8578,-0.999,-1.1061,-1.1717,-1.3003,-1.3908,-1.4419,-1.495,-1.5891,-1.729,-1.729,-1.8209,-2.0046,-2.0553,-2.0889,-2.1025,-2.0586,-2.0227,-1.9835,-1.7544,-1.626,-1.5674,-1.4022,-1.2966,-1.2365,-1.2552,-1.2392,-1.2051,-1.1937,-1.1249,-1.0066,-0.8724,-0.7526,-0.6459,-0.5609,-0.5336,-0.5362,-0.514,-0.5114,-0.5063,-0.4685,-0.4545,-0.4558,-0.4613,-0.4585,-0.4558,-0.4616,-0.4539,-0.4235,-0.324,-0.2203,-0.1602,-0.2215,-0.2318,-0.1839,-0.0262,-0.0,-0.0,-0.0,-0.0,-0.0,-0.0,0.0474,0.1081,0.1653,0.1757,0.1548,0.089,0.0842,0.0827,0.0841,0.158,0.2188,0.2598,0.2631,0.262,0.2644,0.2846,0.3469,0.4521,0.5195,0.5709,0.61,0.7188,0.8227,-0.2177,-0.1106,0.0168,-0.0093,-0.4134,-0.8032,-0.8016,-0.5748,-0.4043,-0.5178,-0.5126,-0.4338,0.0,0.0,-0.4748,-0.5441,-0.6818,-0.8265,-0.9494,-0.9546,-0.9591,0.0,0.0,0.0,0.0,0.0,0.0,-1.0834,0.0,-1.1985,-1.2812,-1.4439,-1.5559,-1.5899,-1.7306,-1.8742,-2.0196,-2.0289,-2.082,-2.1875,-2.1465,-2.1484,-2.1875,-2.1374,-2.0712,-1.9907,-1.8102,-1.6648,-1.5621,-1.42,-1.3507,-1.3233,-1.3233,-1.3227,-1.3173,-1.2936,-1.203,-1.0787,-0.9109,-0.7836,-0.6946,-0.6578,-0.6463,-0.6453,-0.6182,-0.6068,-0.5846,-0.4988,-0.4759,-0.4735,-0.488,-0.4813,-0.4741,-0.4776,-0.465,-0.448,-0.4501,-0.2111,-0.0,-0.0,-0.0,-0.0,-0.0,-0.0,-0.0,-0.0,-0.0,-0.0,-0.0,-0.0,-0.0,-0.0,0.1535,0.1851,0.0157,-0.0,-0.0,-0.0,-0.0,0.0513,0.1649,0.17,0.1701,0.1701,0.1726,0.229,0.3523,0.3976,0.4462,0.5076,0.5798,0.666,-0.6319,-0.6315,-0.5328,-0.342,-0.5526,-0.7922,-0.7793,-0.6522,-0.5499,-0.5468,-0.4776,-0.4042,0.0,0.0,0.0,-0.6059,-0.734,0.0,-0.9565,-1.0095,0.0,-1.0384,0.0,-1.1931,-1.17,-1.2889,0.0,0.0,-1.272,-1.2876,-1.3707,-1.501,-1.6005,-1.6579,-1.7798,-1.8999,-2.0196,-2.108,-2.1617,-2.1885,-2.1777,-2.1777,-2.1885,-2.08,-2.0198,-1.9849,-1.7696,-1.6458,-1.5885,-1.4737,-1.3995,-1.3534,-1.3534,-1.34,-1.3173,-1.2936,-1.2075,-1.1012,-1.0275,-0.9125,-0.7971,-0.7832,-0.7678,-0.7541,-0.723,-0.6731,-0.6214,-0.5895,-0.5329,-0.487,-0.4908,-0.4833,-0.476,-0.4799,-0.4671,-0.4482,-0.4522,-0.2148,-0.0,-0.0,-0.0,-0.0,-0.0,-0.0,-0.0,-0.0,-0.0,-0.0,-0.0,-0.0,-0.0,-0.0,0.0413,0.0489,0.0039,-0.0,-0.0,-0.0,-0.0,0.0133,0.0448,0.0462,0.047,0.047,0.0438,0.115,0.2543,0.3382,0.4083,0.4663,0.5261,0.5733,-0.7804,-0.8228,-0.7861,-0.6406,-0.7099,-0.7968,-0.7312,-0.676,-0.6044,-0.5193,-0.4555,0.0,0.0,0.0,0.0,0.0,0.0,0.0,-1.068,-1.1514,-1.2062,0.0,-1.3089,0.0,-1.3544,-1.4248,-1.4649,0.0,-1.4001,-1.4124,-1.4993,-1.63,-1.7467,-1.8534,-1.9695,-2.0653,-2.1437,-2.1899,-2.2256,-2.2432,-2.2246,-2.2256,-2.2337,-2.0994,-2.0119,-1.9651,-1.75,-1.6309,-1.575,-1.5021,-1.4442,-1.4028,-1.4028,-1.3848,-1.3561,-1.3253,-1.2661,-1.202,-1.1658,-1.0851,-0.9863,-0.9198,-0.8986,-0.8854,-0.8609,-0.7947,-0.7182,-0.6757,-0.5909,-0.5226,-0.5291,-0.5155,-0.4887,-0.4094,-0.4174,-0.4124,-0.2821,-0.1208,-0.0,-0.0,-0.0,-0.0,-0.0,-0.0,-0.0,-0.0,-0.0,-0.0,-0.0,-0.0,-0.0,-0.0,-0.0,-0.0,-0.0,-0.0,-0.0,-0.0,-0.0,-0.0,-0.0,-0.0,-0.0,-0.0,-0.0,0.0723,0.2227,0.3415,0.4118,0.4368,0.4774,0.4969,-0.7916,-0.8408,-0.8583,-0.8538,-0.8357,-0.7972,-0.6946,-0.659,-0.6075,-0.468,0.0,-0.4452,-0.4597,-0.5409,-0.6526,-0.8013,0.0,-1.0863,-1.2218,-1.3193,-1.3961,-1.4516,-1.4877,-1.5077,-1.5077,-1.5077,-1.5077,-1.5077,-1.5258,-1.5637,-1.641,-1.7879,-1.9523,-2.1135,-2.2055,-2.2773,-2.3135,-2.2783,-2.2783,-2.3135,-2.2773,-2.2783,-2.3038,-2.131,-2.0173,-1.9364,-1.7415,-1.609,-1.5431,-1.5137,-1.485,-1.4576,-1.4536,-1.4342,-1.4048,-1.3754,-1.3487,-1.3227,-1.2913,-1.2472,-1.1912,-1.0688,-1.0339,-1.0266,-1.0098,-0.9349,-0.8268,-0.7528,-0.6506,-0.5647,-0.5769,-0.562,-0.499,-0.314,-0.3328,-0.3179,-0.0542,-0.0,-0.0,-0.0,-0.0,-0.0,-0.0,-0.0,-0.0,-0.0,-0.0,-0.0,-0.0,-0.0364,-0.0609,-0.0605,-0.0252,-0.0,-0.0,-0.0,-0.0,-0.0,-0.0,-0.0,-0.0,-0.0,-0.0,-0.0,-0.0,0.0633,0.189,0.3636,0.4402,0.4227,0.4385,0.4498,-0.8589,-0.884,-0.881,-0.8863,-0.8477,-0.788,-0.7267,-0.6474,0.0,0.0,0.0,-0.4196,-0.4595,-0.5785,0.0,-0.8905,0.0,0.0,0.0,0.0,-1.4496,0.0,0.0,0.0,0.0,0.0,0.0,0.0,-1.66,-1.718,-1.7004,-1.925,-2.1154,-2.265,-2.294,-2.3066,-2.3135,-2.3066,-2.3066,-2.3135,-2.3066,-2.3066,-2.3047,-2.0792,-1.9612,-1.9397,-1.6993,0.0,-1.5732,-1.5438,-1.515,-1.4863,-1.4616,-1.4342,-1.4048,-1.3754,-1.3614,-1.3527,-1.3233,-1.306,-1.2846,-1.1906,-1.1414,-1.1136,-1.1158,-0.9955,-0.8568,-0.8359,-0.7099,-0.5769,-0.5793,-0.5786,-0.5191,-0.3171,-0.1721,-0.0643,-0.0144,-0.0,-0.0,-0.0,-0.0,-0.0,-0.0,-0.0,-0.0,-0.0,-0.0,-0.0,-0.0,-0.216,-0.3724,-0.372,-0.1463,-0.0,-0.0,-0.0,-0.0,-0.0,-0.0,-0.0,-0.0,-0.0,-0.0,-0.0,-0.0,0.0111,0.0384,0.3145,0.4473,0.4436,0.4334,0.4348,-0.7074,-0.6748,-0.6742,-0.6628,-0.7362,-0.7918,-0.699,0.0,0.0,0.0,-0.4423,-0.4643,-0.534,0.0,0.0,0.0,0.0,0.0,0.0,0.0,0.0,0.0,0.0,0.0,0.0,0.0,0.0,0.0,-1.7576,-1.8609,-1.8427,-2.0757,-2.2379,-2.3047,-2.3135,-2.3135,-2.3135,-2.3135,-2.3135,-2.3135,-2.3135,-2.3135,-2.3047,-2.0584,-1.9497,-1.9397,-1.6842,-1.5832,-1.5818,-1.5678,-1.5451,-1.5177,-1.503,-1.4703,-1.4295,-1.4155,-1.3908,-1.3539,-1.3487,-1.334,-1.314,-1.2705,-1.2472,-1.2203,-1.1664,-1.0358,-0.9095,-0.8528,-0.7283,-0.6057,-0.6132,-0.6129,-0.5504,-0.3409,-0.1395,-0.0,-0.0,-0.0,-0.0,-0.0,-0.0,-0.0,-0.0,-0.0,-0.0,-0.0,-0.0,-0.0,-0.0,-0.1953,-0.3596,-0.4421,-0.3212,-0.1693,-0.0156,-0.1451,-0.1647,-0.0101,-0.0,-0.0,-0.0,-0.0,-0.0,-0.0,-0.0,-0.0,-0.0,0.2201,0.3695,0.4477,0.4399,0.4395,-0.6137,-0.5795,-0.5879,-0.5569,-0.6858,-0.7932,-0.6674,-0.616,0.0,0.0,-0.4794,-0.5281,-0.6111,0.0,0.0,0.0,0.0,0.0,0.0,0.0,0.0,0.0,0.0,0.0,0.0,0.0,0.0,0.0,-1.8558,-2.0127,-2.0223,-2.205,-2.3135,-2.3135,-2.3135,-2.3135,-2.3135,-2.3135,-2.3135,-2.3135,-2.3135,-2.3135,-2.3047,-2.0584,-1.9497,-1.9397,-1.6842,-1.5832,-1.5832,-1.5832,-1.5658,-1.5398,-1.5398,-1.5077,-1.4609,-1.4543,-1.4269,-1.3921,-1.3854,-1.3721,-1.3574,-1.3514,-1.32,-1.2638,-1.173,-1.0551,-0.9175,-0.8449,-0.7301,-0.6332,-0.6444,-0.6366,-0.5639,-0.3042,-0.12,-0.0,-0.0,-0.0,-0.0,-0.0,-0.0,-0.0,-0.0,-0.0,-0.0,-0.0,-0.0,-0.0,-0.0,-0.1263,-0.2819,-0.434,-0.4511,-0.3442,-0.0859,-0.3016,-0.3473,-0.1089,-0.0361,-0.0,-0.0,-0.0,-0.0,-0.0,-0.0,-0.0,-0.0,0.1506,0.3014,0.4484,0.4525,0.4519,-0.861,-0.9361,-0.9211,-0.8883,-0.8383,-0.7829,-0.7057,0.0,0.0,-0.5103,-0.5334,-0.5873,-0.6385,-0.666,0.0,0.0,0.0,0.0,0.0,0.0,0.0,0.0,0.0,0.0,0.0,0.0,0.0,0.0,-2.0189,-2.208,-2.2706,-2.296,-2.3135,-2.3135,-2.3135,-2.3135,-2.3135,-2.3135,-2.3135,-2.3135,-2.3135,-2.3135,-2.3047,-2.0584,-1.9497,-1.9397,-1.6842,-1.5832,0.0,-1.5832,-1.5658,-1.5398,-1.5398,-1.5204,-1.489,-1.4623,-1.4656,-1.4803,-1.4529,-1.4596,-1.4756,-1.4489,-1.3169,-1.165,-1.1564,-1.0014,-0.8307,-0.8242,-0.7381,-0.6458,-0.6468,-0.6366,-0.5309,-0.1247,-0.0156,-0.0,-0.0,-0.0,-0.0,-0.0,-0.0,-0.0,-0.0,-0.0,-0.0,-0.0,-0.0,-0.0,-0.0,-0.129,-0.2781,-0.434,-0.4497,-0.403,-0.2828,-0.3799,-0.4373,-0.4076,-0.1496,-0.0,-0.0,-0.0,-0.0,-0.0,-0.0,-0.0,-0.0,0.1507,0.3019,0.4494,0.4473,0.4519,-0.546,-0.801,-0.9734,-0.9261,-0.8556,-0.7628,-0.7034,0.0,0.0,-0.5369,-0.5554,-0.5916,-0.6266,-0.6441,-0.6921,0.0,0.0,0.0,0.0,0.0,0.0,0.0,0.0,0.0,0.0,0.0,0.0,0.0,-2.171,-2.2778,-2.3826,-2.3662,-2.3408,-2.3144,-2.3135,-2.3135,-2.3135,-2.3135,-2.3135,-2.3047,-2.2403,-2.2031,-2.1933,-1.9497,-1.8411,-1.8319,-1.6567,-1.5832,0.0,-1.5832,-1.5758,-1.5658,-1.5658,-1.5371,-1.495,-1.483,-1.475,-1.4676,-1.4563,-1.4716,-1.4847,-1.3906,-1.2574,-1.131,-1.1022,-0.9839,-0.8354,-0.7699,-0.7054,-0.6495,-0.6586,-0.6515,-0.6035,-0.4236,-0.1856,-0.0,-0.0,-0.0,-0.0,-0.0,-0.0,-0.0,-0.0,-0.0,-0.0,-0.0,-0.0,-0.0,-0.0,-0.0489,-0.1792,-0.4247,-0.4498,-0.4092,-0.3065,-0.3916,-0.4497,-0.4504,-0.2516,-0.0943,-0.0055,-0.0,-0.0,-0.0,-0.0,-0.0,-0.0,0.1507,0.3019,0.4497,0.4473,0.4519,-0.3874,-0.6611,-0.8849,-0.9175,-0.8401,-0.7567,0.0,0.0,0.0,-0.5553,-0.5742,-0.6029,-0.6268,-0.6421,-0.6752,0.0,0.0,0.0,0.0,0.0,0.0,0.0,0.0,0.0,0.0,0.0,0.0,0.0,-2.31,-2.3692,-2.4331,-2.4258,-2.3965,-2.3525,-2.3398,-2.333,-2.333,-2.3203,-2.293,-2.2691,-2.1722,-2.1177,-2.0823,-1.8635,-1.7692,-1.7598,-1.6386,-1.5832,0.0,-1.5832,-1.5832,-1.5832,-1.5832,-1.5578,-1.5197,-1.503,-1.4937,-1.4883,-1.471,-1.4622,-1.4545,-1.3433,-1.2113,-1.0755,-1.0389,-0.9349,-0.8198,-0.7443,-0.6885,-0.6566,-0.6671,-0.66,-0.6539,-0.645,-0.3643,-0.0736,-0.0164,-0.0,-0.0,-0.0,-0.0,-0.0,-0.0,-0.0,-0.0,-0.0,-0.0,-0.0,-0.0,-0.0,-0.0802,-0.2938,-0.3632,-0.3832,-0.3463,-0.4079,-0.4484,-0.449,-0.3469,-0.2009,-0.0056,-0.0,-0.0,-0.0,-0.0,0.0224,0.0673,0.1676,0.3019,0.4497,0.4473,0.4519,-0.5675,-0.63,-0.6845,-0.8689,-0.8478,-0.7502,0.0,0.0,0.0,-0.5771,-0.606,-0.6368,-0.6565,-0.6703,-0.7092,-0.7948,0.0,0.0,0.0,0.0,0.0,0.0,0.0,0.0,0.0,0.0,0.0,-2.251,-2.4136,0.0,-2.4443,-2.4824,-2.4853,-2.4414,-2.4004,-2.3779,-2.3779,-2.335,-2.2631,-2.1832,-2.1491,-2.0767,-1.9821,-1.838,-1.7692,-1.7598,-1.6386,-1.5832,0.0,-1.5832,-1.5832,-1.5832,-1.5832,-1.5825,-1.5752,-1.5177,-1.5324,-1.5732,-1.5157,-1.4482,-1.3825,-1.3473,-1.1785,-0.9772,-0.9397,-0.8394,-0.7366,-0.7366,-0.7044,-0.6698,-0.6702,-0.6586,-0.6515,-0.6764,-0.4861,-0.2511,-0.0419,-0.0,-0.0,-0.0,-0.0,-0.0,-0.0,-0.0,-0.0,-0.0,-0.0,-0.0,-0.0,-0.0,-0.0,-0.0062,-0.1658,-0.3177,-0.4389,-0.448,-0.448,-0.448,-0.449,-0.3135,-0.0112,-0.0,-0.0,-0.0,-0.0,0.0729,0.2193,0.2181,0.3019,0.4497,0.4473,0.4519,-0.477,-0.5538,-0.6204,-0.7264,-0.7156,-0.6694,-0.6406,0.0,0.0,-0.5591,-0.5897,-0.6229,-0.6413,-0.6643,-0.7021,-0.7661,-0.8072,0.0,0.0,0.0,0.0,0.0,0.0,0.0,0.0,0.0,0.0,-2.5538,-2.5576,-2.5596,-2.5752,-2.5615,-2.5185,-2.4443,-2.4287,-2.4219,-2.4219,-2.4082,-2.3423,-2.2227,-2.1058,-1.9824,-1.8624,-1.7079,-1.6386,-1.6386,-1.6015,-1.5832,-1.5832,-1.5832,-1.5832,-1.5832,-1.5832,-1.5705,-1.5511,-1.5331,-1.5378,-1.5504,-1.5324,-1.4646,-1.3765,-1.2726,-1.126,-0.9778,-0.8641,-0.7844,-0.7329,-0.7126,-0.6966,-0.6858,-0.6858,-0.682,-0.6824,-0.699,-0.6436,-0.4727,-0.0857,-0.0,-0.0,-0.0,-0.0,-0.0,-0.0,-0.0,-0.0,-0.0,-0.0,-0.0,-0.0,-0.0,-0.0,-0.0,-0.1608,-0.3164,-0.4426,-0.4636,-0.4649,-0.4487,-0.4497,-0.4051,-0.3142,-0.112,-0.0,-0.0,0.2023,0.3324,0.3772,0.274,0.3012,0.4473,0.4522,0.4519,0.0,-0.4497,-0.5139,-0.6151,-0.5873,0.0,0.0,0.0,0.0,0.0,-0.5769,-0.6011,-0.6328,-0.6597,-0.6958,-0.7617,-0.8055,0.0,0.0,0.0,0.0,0.0,0.0,0.0,0.0,0.0,-2.5226,-2.6647,-2.6279,-2.6025,-2.6143,-2.5889,-2.5488,-2.4932,-2.4746,-2.458,-2.4414,-2.3788,-2.2833,-2.1631,-1.998,-1.8571,-1.7573,-1.6293,-1.5832,-1.5832,-1.5832,-1.5832,0.0,-1.5832,-1.5832,-1.5832,-1.5832,-1.5718,-1.5545,-1.5438,-1.5398,-1.5398,-1.5398,-1.4359,-1.2879,-1.2109,-1.0626,-0.8987,-0.8062,-0.7563,-0.7319,-0.7078,-0.697,-0.6943,-0.6993,-0.697,-0.6966,-0.7034,-0.7112,-0.6075,-0.219,-0.0605,-0.0,-0.0,-0.0,-0.0,-0.0,-0.0,-0.0,-0.0,-0.0,-0.0,-0.0,-0.0,-0.0,-0.0,-0.1009,-0.2535,-0.4671,-0.4723,-0.4378,-0.3648,-0.4188,-0.4514,-0.4514,-0.1625,-0.0,-0.0,0.2986,0.4524,0.4514,0.353,0.3572,0.4519,0.4519,0.4519,0.0,0.0,0.0,0.0,0.0,0.0,0.0,0.0,0.0,0.0,0.0,0.0,0.0,-0.6554,-0.6979,-0.7729,-0.799,0.0,0.0,0.0,0.0,0.0,0.0,0.0,0.0,0.0,-2.3861,-2.6294,-2.6426,-2.6211,-2.5801,-2.5752,-2.5723,-2.5693,-2.5283,-2.4873,-2.437,-2.2824,-2.1497,-2.0313,-1.8619,-1.7412,-1.6687,-1.6119,-1.5845,0.0,-1.5832,-1.5832,-1.5832,-1.5832,-1.5832,-1.5832,-1.5832,-1.5832,-1.5798,-1.5524,-1.5431,-1.5431,-1.5332,-1.3614,-1.1562,-1.1584,-0.9858,-0.7773,-0.7641,-0.7492,-0.7339,-0.7183,-0.7044,-0.6973,-0.7105,-0.7044,-0.6976,-0.7109,-0.7078,-0.6462,-0.4289,-0.1852,-0.0,-0.0,-0.0,-0.0,-0.0,-0.0,-0.0,-0.0,-0.0,-0.0,-0.0,-0.0,-0.0,-0.0,-0.0,-0.1369,-0.4711,-0.4738,-0.3954,-0.2463,-0.3488,-0.4172,-0.4172,-0.1514,0.0112,0.0336,0.2983,0.4406,0.4511,0.449,0.4473,0.4519,0.4519,0.4519,-0.3121,0.0,-0.3851,-0.4249,-0.425,0.0,0.0,0.0,0.0,0.0,0.0,0.0,0.0,0.0,0.0,0.0,0.0,0.0,0.0,0.0,0.0,0.0,0.0,0.0,0.0,0.0,-2.4845,-2.7211,-2.6758,-2.6338,-2.624,-2.5918,-2.5586,-2.5234,-2.5127,-2.4621,-2.3555,-2.2866,-2.1413,-1.9514,-1.8814,-1.7829,-1.6693,-1.6333,-1.6046,-1.5832,-1.5832,-1.5832,-1.5832,-1.5832,-1.5832,-1.5832,-1.5832,-1.5832,-1.5818,-1.5752,-1.5732,-1.5536,-1.4564,-1.3211,-1.1487,-0.9592,-0.8344,-0.7645,-0.7611,-0.7492,-0.7339,-0.7183,-0.7115,-0.7099,-0.7132,-0.7115,-0.7102,-0.7064,-0.7091,-0.6926,-0.6391,-0.2952,-0.0,-0.0,-0.0,-0.0,-0.0,-0.0,-0.0,-0.0,-0.0,-0.0,-0.0,-0.0,-0.0,-0.0,-0.0,-0.0346,-0.1205,-0.3678,-0.4863,-0.4024,-0.2113,-0.1065,-0.1065,-0.0392,0.1066,0.3383,0.2974,0.3302,0.4487,0.4473,0.4522,0.4519,0.4519,0.4519,-0.294,-0.3397,-0.3764,-0.3904,-0.4039,-0.4276,0.0,0.0,0.0,0.0,0.0,0.0,0.0,0.0,0.0,0.0,0.0,0.0,0.0,0.0,0.0,0.0,0.0,0.0,0.0,0.0,-2.3661,-2.6134,-2.5795,-2.5352,-2.5164,-2.4758,-2.4309,-2.3553,-2.3017,-2.2744,-2.2668,-2.1861,-2.0525,-1.8693,-1.779,-1.7044,-1.65,-1.6206,-1.5979,-1.5832,-1.5832,-1.5832,-1.5832,-1.5832,-1.5832,-1.5832,-1.5832,-1.5832,-1.5832,-1.5832,-1.5745,-1.5457,-1.4321,-1.2641,-1.0637,-0.8612,-0.7736,-0.7495,-0.7495,-0.7387,-0.7248,-0.7163,-0.7139,-0.7139,-0.7139,-0.7139,-0.7143,-0.7068,-0.6266,-0.5466,-0.5473,-0.2582,-0.0,-0.0,-0.0,-0.0,-0.0,-0.0,-0.0,-0.0,-0.0,-0.0,-0.0,-0.0,-0.0,-0.0,-0.0,-0.0,-0.0,-0.1812,-0.2757,-0.2465,-0.0883,-0.0,-0.0,-0.0,0.0785,0.2419,0.297,0.3638,0.4487,0.4525,0.4519,0.4519,0.4519,0.4519,-0.2704,-0.3147,-0.3551,-0.3812,-0.3986,-0.4204,0.0,0.0,0.0,0.0,0.0,0.0,0.0,0.0,0.0,0.0,0.0,0.0,0.0,0.0,0.0,0.0,0.0,0.0,0.0,-2.0602,-2.17,-2.4253,-2.4097,-2.3732,-2.3402,-2.3064,-2.2469,-2.1578,-2.0624,-2.0475,-2.1375,-2.023,-1.9044,-1.7786,-1.6484,-1.6032,-1.6266,-1.6012,-1.5872,-1.5832,-1.5832,-1.5832,-1.5832,-1.5832,-1.5832,-1.5832,-1.5832,-1.5832,-1.5832,-1.5832,-1.5671,-1.5305,-1.3999,-1.191,-0.9565,-0.8229,-0.7645,-0.7407,-0.7407,-0.7282,-0.7139,-0.7139,-0.7139,-0.7139,-0.7139,-0.7139,-0.7143,-0.7058,-0.5625,-0.3929,-0.3213,-0.1412,-0.0,-0.0,-0.0,-0.0,-0.0,-0.0,-0.0,-0.0,-0.0,-0.0,-0.0,-0.0,-0.0,-0.0,-0.0,-0.0,-0.0,-0.0,-0.0,-0.0,-0.0,-0.0,-0.0,-0.0,0.0112,0.0336,0.2856,0.4265,0.449,0.4473,0.4519,0.4519,0.4519,0.4519,-0.2308,-0.2843,-0.3328,-0.3404,-0.3659,-0.3972,0.0,0.0,0.0,0.0,0.0,0.0,0.0,0.0,0.0,0.0,0.0,0.0,0.0,0.0,0.0,0.0,0.0,0.0,-1.9769,-2.0234,-2.1036,-2.2607,-2.2477,-2.2232,-2.2064,-2.1506,-2.1063,-2.0735,-2.0367,-1.9512,-1.8412,-1.8125,-1.7618,-1.6558,-1.6323,-1.6226,-1.6273,-1.6226,-1.6066,-1.5832,-1.5832,-1.5832,-1.5832,-1.5832,-1.5832,-1.5832,-1.5832,-1.5832,-1.5832,-1.5832,-1.5798,-1.538,-1.3,-1.1244,-0.9759,-0.8393,-0.7804,-0.7563,-0.7563,-0.7366,-0.7139,-0.7139,-0.7139,-0.7139,-0.7139,-0.7139,-0.7058,-0.7074,-0.6818,-0.5466,-0.1429,-0.0268,-0.0,-0.0,-0.0,-0.0,-0.0,-0.0,-0.0,-0.0,-0.0,-0.0,-0.0,-0.0,-0.0,-0.0,-0.0,-0.0,-0.0,-0.0,-0.0,-0.0,-0.0,-0.0,-0.0,-0.0,0.056,0.1842,0.2343,0.3181,0.4522,0.4519,0.4519,0.4519,0.4519,0.4519,-0.229,-0.2791,-0.3203,-0.3182,-0.3563,-0.3998,0.0,0.0,0.0,0.0,0.0,0.0,0.0,0.0,0.0,0.0,0.0,0.0,0.0,0.0,0.0,0.0,0.0,-1.7782,-1.8731,-1.8844,-1.9513,-2.1055,-2.068,-2.046,-2.0531,-1.9905,-1.9217,-1.8803,-1.8149,-1.753,-1.6922,-1.6753,-1.6455,-1.6032,-1.6032,-1.6032,-1.6032,-1.6032,-1.5959,-1.5832,-1.5832,-1.5832,-1.5832,-1.5832,-1.5832,-1.5832,-1.5832,-1.5832,-1.5832,-1.5832,-1.5337,-1.4465,-1.2528,-1.0997,-0.9652,-0.8304,-0.7716,-0.7478,-0.7478,-0.7319,-0.7139,-0.7139,-0.7139,-0.7139,-0.7139,-0.7139,-0.7143,-0.7064,-0.7084,-0.6192,-0.268,-0.0896,-0.0,-0.0,-0.0,-0.0,-0.0,-0.0,-0.0,-0.0,-0.0,-0.0,-0.0,-0.0,-0.0,-0.0,-0.0,-0.0,-0.0,-0.0,-0.0,-0.0,-0.0,-0.0,-0.0,0.157,0.2749,0.3421,0.3466,0.3799,0.4525,0.4522,0.4519,0.4519,0.4519,0.4519,-0.2264,-0.2722,-0.3082,0.0,0.0,0.0,0.0,0.0,0.0,0.0,0.0,0.0,0.0,0.0,0.0,0.0,0.0,0.0,0.0,0.0,0.0,0.0,-1.7068,-1.7435,-1.7896,-1.7662,-1.8087,-1.9364,-1.8957,-1.8738,-1.8884,-1.8233,-1.7533,-1.7029,-1.6219,-1.5939,-1.6166,-1.5945,-1.5832,-1.5832,-1.5832,-1.5832,-1.5832,-1.5832,-1.5832,-1.5832,-1.5832,-1.5832,-1.5832,-1.5832,-1.5832,-1.5832,-1.5832,-1.5832,-1.5832,-1.5832,-1.5146,-1.4172,-1.2818,-1.1443,-1.0066,-0.8728,-0.7946,-0.7424,-0.7424,-0.7292,-0.7139,-0.7139,-0.7139,-0.7139,-0.7139,-0.7139,-0.7143,-0.7058,-0.7081,-0.6646,-0.4832,-0.206,-0.0,-0.0,-0.0,-0.0,-0.0,-0.0,-0.0,-0.0,-0.0,-0.0,-0.0,-0.0,0.0309,0.1183,0.1243,0.0927,0.0068,-0.0,-0.0,-0.0,-0.0,0.029,0.101,0.3261,0.4511,0.4504,0.4487,0.4477,0.4477,0.4522,0.4519,0.4519,0.4519,0.457,-0.2043,-0.25,-0.297,-0.3216,0.0,0.0,0.0,0.0,0.0,0.0,0.0,0.0,0.0,0.0,0.0,0.0,0.0,0.0,0.0,0.0,0.0,-1.7081,-1.7375,-1.7569,-1.7609,-1.7355,-1.7291,-1.7414,-1.7117,-1.6847,-1.6861,-1.665,-1.639,-1.6333,-1.6005,-1.5838,-1.5865,-1.5838,-1.5832,-1.5832,-1.5832,-1.5832,-1.5832,-1.5832,-1.5832,-1.5832,-1.5832,-1.5832,-1.5832,-1.5832,-1.5832,-1.5832,-1.5832,-1.5832,-1.5832,-1.5832,-1.573,-1.5439,-1.4172,-1.2898,-1.1536,-1.0271,-0.8779,-0.7584,-0.7584,-0.7377,-0.7139,-0.7139,-0.7139,-0.7139,-0.7139,-0.7139,-0.7058,-0.7078,-0.7091,-0.7015,-0.6857,-0.3235,-0.0,-0.0,-0.0,-0.0,-0.0,-0.0,-0.0,-0.0,-0.0,-0.0,-0.0,-0.0,0.1322,0.4647,0.4981,0.3643,0.0269,-0.0,-0.0,-0.0,-0.0,0.1276,0.4064,0.4399,0.4504,0.4484,0.448,0.4473,0.4519,0.4519,0.4519,0.4519,0.4519,0.4842,-0.195,-0.2294,-0.2603,0.0,0.0,0.0,0.0,0.0,0.0,0.0,0.0,0.0,0.0,0.0,0.0,0.0,0.0,0.0,0.0,0.0,0.0,-1.684,-1.6967,-1.7041,-1.7041,-1.6934,-1.6874,-1.6874,-1.66,-1.6513,-1.6693,-1.6253,-1.6079,-1.6266,-1.5985,-1.5832,-1.5832,-1.5832,-1.5832,-1.5832,-1.5832,-1.5832,-1.5832,-1.5832,-1.5832,-1.5832,-1.5832,-1.5832,-1.5832,-1.5832,-1.5832,-1.5832,-1.5832,-1.5832,-1.5832,-1.5832,-1.5832,-1.5635,-1.4364,-1.3006,-1.1658,-1.0386,-0.896,-0.7733,-0.7733,-0.759,-0.7428,-0.7428,-0.7428,-0.7383,-0.719,-0.7139,-0.7081,-0.7105,-0.6026,-0.5299,-0.6803,-0.3388,-0.0,-0.0,-0.0,-0.0,-0.0,-0.0,-0.0,-0.0,-0.0,-0.0,-0.0,-0.0,0.1402,0.5045,0.5434,0.4856,0.3442,0.1295,0.095,0.3244,0.125,0.1364,0.4402,0.4507,0.4494,0.448,0.4473,0.4522,0.4519,0.4519,0.4519,0.4519,0.4519,0.4842,-0.2022,-0.2249,-0.2447,0.0,0.0,0.0,0.0,0.0,0.0,0.0,0.0,0.0,0.0,0.0,0.0,0.0,0.0,0.0,0.0,0.0,-1.6346,-1.6547,-1.6653,-1.6707,-1.6707,-1.662,-1.6567,-1.6567,-1.6386,-1.6319,-1.6426,-1.6139,-1.6019,-1.6126,-1.5939,-1.5832,-1.5832,-1.5832,-1.5832,-1.5832,-1.5832,-1.5832,-1.5832,-1.5832,-1.5832,-1.5832,-1.5832,-1.5832,-1.5832,-1.5832,-1.5832,-1.5832,-1.5832,-1.5832,-1.5832,-1.5832,-1.5832,-1.5635,-1.4364,-1.3006,-1.1658,-1.0386,-0.9002,-0.7811,-0.7811,-0.7712,-0.76,-0.76,-0.76,-0.7553,-0.7339,-0.7198,-0.7138,-0.7076,-0.5852,-0.4723,-0.486,-0.2313,-0.0,-0.0,-0.0,-0.0,-0.0,-0.0,-0.0,-0.0,-0.0,-0.0,-0.0,-0.0,0.0934,0.3423,0.4681,0.5367,0.5426,0.316,0.277,0.5267,0.2994,0.2448,0.4519,0.4521,0.4487,0.4473,0.4522,0.4519,0.4519,0.4519,0.4519,0.4519,0.4519,0.4842,-0.2279,-0.2432,0.0,0.0,0.0,0.0,0.0,0.0,0.0,0.0,0.0,0.0,0.0,0.0,0.0,0.0,0.0,0.0,0.0,0.0,-1.6273,-1.6273,-1.652,-1.67,-1.67,-1.644,-1.6273,-1.6273,-1.6273,-1.6139,-1.5845,-1.6112,-1.6132,-1.5838,-1.5832,-1.5832,-1.5832,-1.5832,-1.5832,-1.5832,-1.5832,-1.5832,-1.5832,-1.5832,-1.5832,-1.5832,-1.5825,-1.5825,-1.5825,-1.5825,-1.5825,-1.5832,-1.5832,-1.5832,-1.5832,-1.5832,-1.5825,-1.5629,-1.4364,-1.3006,-1.1653,-1.0386,-0.9002,-0.7814,-0.7814,-0.7716,-0.7604,-0.7604,-0.7604,-0.7604,-0.7604,-0.7513,-0.7335,-0.7162,-0.7076,-0.5794,-0.1044,-0.0,-0.0,-0.0,-0.0,-0.0,-0.0,-0.0,-0.0,-0.0,-0.0,-0.0,-0.0,-0.0,-0.0,-0.0,0.3182,0.5365,0.5367,0.5418,0.5378,0.5399,0.5093,0.4845,0.4831,0.4618,0.4473,0.4519,0.4519,0.4519,0.4519,0.4519,0.4519,0.4519,0.4519,0.4842,-0.1769,0.0,0.0,0.0,0.0,0.0,0.0,0.0,0.0,0.0,0.0,0.0,0.0,0.0,0.0,0.0,0.0,0.0,0.0,-1.5121,-1.5965,-1.5965,-1.6039,-1.6086,-1.6086,-1.6012,-1.5965,-1.5965,-1.5965,-1.5919,-1.5832,-1.5912,-1.5919,-1.5832,-1.5832,-1.5832,-1.5832,-1.5832,-1.5832,-1.5832,-1.5832,-1.5832,-1.5832,-1.5832,-1.5832,-1.5818,-1.5611,-1.5524,-1.5524,-1.5524,-1.5645,-1.5832,-1.5832,-1.5832,-1.5832,-1.5832,-1.5242,-1.4364,-1.407,-1.2425,-1.0485,-1.0096,-0.9083,-0.797,-0.797,-0.7943,-0.7909,-0.7909,-0.7909,-0.7913,-0.7929,-0.7868,-0.7308,-0.5144,-0.5857,-0.5797,-0.1047,-0.0,-0.0,-0.0,-0.0,-0.0,-0.0,-0.0,-0.0,-0.0,-0.0,-0.0,-0.0,-0.0,-0.0,-0.0,0.0949,0.2644,0.5213,0.5382,0.5394,0.5394,0.5198,0.504,0.4998,0.4676,0.4524,0.4619,0.4573,0.4519,0.4519,0.4519,0.4519,0.4519,0.4519,0.5117,-0.1775,0.0,0.0,0.0,0.0,0.0,0.0,0.0,0.0,0.0,0.0,0.0,0.0,0.0,0.0,0.0,0.0,-1.1492,-1.2876,-1.4268,-1.5242,-1.573,-1.5832,-1.5832,-1.5832,-1.5832,-1.5785,-1.5665,-1.5765,-1.5778,-1.5665,-1.5765,-1.5832,-1.5832,-1.5718,-1.5658,-1.5658,-1.5658,-1.5598,-1.5484,-1.5605,-1.5598,-1.5491,-1.5605,-1.5658,-1.5651,-1.5471,-1.5331,-1.5224,-1.5224,-1.5398,-1.5551,-1.4958,-1.5171,-1.5564,-1.4496,-1.401,-1.3541,-1.2678,-1.1356,-0.9899,-0.9414,-0.8627,-0.8038,-0.8038,-0.8038,-0.8038,-0.8038,-0.8038,-0.8028,-0.798,-0.722,-0.6195,-0.5546,-0.4835,-0.3504,-0.0577,-0.0,-0.0,-0.0,-0.0,-0.0,-0.0,-0.0,-0.0,-0.0,-0.0,-0.0,-0.0,-0.0,-0.0,-0.0,-0.0,0.1501,0.5095,0.5433,0.5389,0.5379,0.523,0.5104,0.5082,0.4783,0.4602,0.4687,0.4594,0.4577,0.4643,0.4577,0.4745,0.5148,0.4748,0.5257,0.0,0.0,0.0,0.0,0.0,0.0,0.0,0.0,0.0,0.0,0.0,0.0,0.0,0.0,0.0,0.0,0.0,-1.0223,-1.1468,-1.2945,-1.4291,-1.5455,-1.5651,-1.5752,-1.5752,-1.5752,-1.5645,-1.5378,-1.5605,-1.5631,-1.5371,-1.5605,-1.5752,-1.5752,-1.5491,-1.5357,-1.5357,-1.5357,-1.5224,-1.497,-1.5231,-1.5204,-1.4937,-1.5224,-1.5357,-1.5357,-1.5324,-1.5184,-1.4963,-1.4937,-1.5097,-1.5232,-1.3768,-1.4006,-1.4883,-1.2549,-1.2267,-1.277,-1.0706,-0.9891,-0.9583,-0.8428,-0.8031,-0.8018,-0.8018,-0.8028,-0.8035,-0.8021,-0.8018,-0.7987,-0.7848,-0.6042,-0.4895,-0.7123,-0.3663,-0.0,-0.0,-0.0,-0.0,-0.0,-0.0,-0.0,-0.0,-0.0,-0.0,-0.0,-0.0,-0.0,-0.0,-0.0,-0.0,-0.0,-0.0,0.1369,0.4848,0.5274,0.5389,0.5379,0.5237,0.5145,0.5131,0.4847,0.4697,0.4711,0.4562,0.4626,0.4918,0.464,0.5098,0.604,0.5122,0.5247,0.0,0.0,0.0,0.0,0.0,0.0,0.0,0.0,0.0,0.0,0.0,0.0,0.0,0.0,0.0,0.0,-0.8753,-0.969,-1.001,-1.1976,-1.3469,-1.375,-1.4591,-1.515,-1.515,-1.515,-1.5124,-1.5064,-1.5117,-1.5124,-1.5064,-1.5117,-1.515,-1.515,-1.509,-1.5057,-1.5057,-1.5057,-1.5023,-1.4963,-1.503,-1.4903,-1.4629,-1.4923,-1.5057,-1.5044,-1.481,-1.481,-1.4943,-1.471,-1.479,-1.4953,-1.3695,-1.3429,-1.3507,-1.2202,-1.1228,-1.05,-1.0125,-0.9221,-0.8265,-0.8096,-0.796,-0.7862,-0.7862,-0.7943,-0.8014,-0.7892,-0.7862,-0.7855,-0.7744,-0.7184,-0.6304,-0.4888,-0.2262,-0.0,-0.0,-0.0,-0.0,-0.0,-0.0,-0.0,-0.0,-0.0,-0.0,-0.0,-0.0,-0.0,-0.0,-0.0,-0.0,-0.0,-0.0,0.0857,0.3125,0.459,0.5386,0.5432,0.5332,0.5257,0.5135,0.4847,0.4748,0.4867,0.4718,0.4731,0.4918,0.4853,0.4913,0.5154,0.4944,0.5303,0.0,0.0,0.0,0.0,0.0,0.0,0.0,0.0,0.0,0.0,0.0,0.0,0.0,0.0,0.0,0.0,-0.8084,-0.8666,-0.93,-1.0481,-1.1716,-1.2768,-1.3467,-1.4005,-1.4543,-1.4543,-1.4482,-1.4342,-1.4462,-1.4543,-1.4543,-1.4676,-1.4816,-1.4957,-1.4689,-1.4609,-1.475,-1.4609,-1.4543,-1.4549,-1.4683,-1.4596,-1.4322,-1.4616,-1.4676,-1.4543,-1.4522,-1.4529,-1.4536,-1.4376,-1.4128,-1.3818,-1.2526,-1.2015,-1.1966,-1.0352,-0.9678,-0.9527,-0.9127,-0.8572,-0.7933,-0.8014,-0.7984,-0.7906,-0.7834,-0.7868,-0.7913,-0.7834,-0.7763,-0.7712,-0.7627,-0.7567,-0.7031,-0.5634,-0.2564,-0.0,-0.0,-0.0,-0.0,-0.0,-0.0,-0.0,-0.0,-0.0,-0.0,-0.0,-0.0,-0.0,-0.0,-0.0,-0.0,-0.0,0.1585,0.2602,0.2688,0.4364,0.5379,0.5428,0.5428,0.5291,0.5138,0.4982,0.4938,0.502,0.4874,0.4908,0.5131,0.4989,0.5174,0.575,0.5237,0.5487,0.0,0.0,0.0,0.0,0.0,0.0,0.0,0.0,0.0,0.0,0.0,0.0,0.0,0.0,0.0,0.0,-0.737,-0.762,-0.871,-0.9042,-0.9832,-1.164,-1.2006,-1.2487,-1.3259,-1.3515,-1.35,-1.3264,-1.3685,-1.3935,-1.3935,-1.4162,-1.4402,-1.4656,-1.4188,-1.4055,-1.4289,-1.4108,-1.3981,-1.3941,-1.4229,-1.4269,-1.4095,-1.4335,-1.4342,-1.4175,-1.4362,-1.4335,-1.4155,-1.3932,-1.3341,-1.254,-1.0942,-1.0465,-1.0469,-0.8325,-0.8203,-0.8885,-0.8157,-0.7946,-0.7929,-0.7953,-0.7946,-0.7899,-0.7773,-0.777,-0.7801,-0.775,-0.7672,-0.7594,-0.7567,-0.7461,-0.7329,-0.7111,-0.4109,-0.0988,-0.0183,-0.0,-0.0,-0.0,-0.0,-0.0,-0.0,-0.0,-0.0,-0.0,-0.0,-0.0,-0.0,-0.0,-0.0,-0.0,0.3207,0.4795,0.3293,0.4564,0.5372,0.5428,0.5428,0.5304,0.5176,0.5169,0.5169,0.5169,0.503,0.5087,0.5428,0.5114,0.5494,0.6457,0.5546,0.5618,0.0,0.0,0.0,0.0,0.0,0.0,0.0,0.0,0.0,0.0,0.0,0.0,0.0,0.0,0.0,0.0,-0.697,-0.6922,-0.7139,-0.7958,-0.8669,-0.889,-0.9702,-1.0306,-1.0464,-1.1263,-1.1805,-1.1768,-1.2752,-1.3327,-1.3327,-1.336,-1.34,-1.3447,-1.3367,-1.3347,-1.3387,-1.3601,-1.3574,-1.3333,-1.3621,-1.3874,-1.4088,-1.4128,-1.4262,-1.4449,-1.4242,-1.4262,-1.4349,-1.304,-1.2437,-1.2118,-0.9932,-0.9165,-0.9037,-0.7884,-0.7492,-0.7696,-0.7691,-0.757,-0.7482,-0.7614,-0.7567,-0.7458,-0.7438,-0.7607,-0.7756,-0.7502,-0.7512,-0.757,-0.7438,-0.7288,-0.717,-0.7149,-0.6624,-0.502,-0.0897,-0.0,-0.0,-0.0,-0.0,-0.0,-0.0,-0.0,-0.0,-0.0,-0.0,-0.0,-0.0,-0.0,-0.0,-0.0,0.3207,0.5293,0.5065,0.5249,0.5372,0.5428,0.5428,0.5418,0.5332,0.5332,0.5332,0.5332,0.5179,0.5186,0.5428,0.5321,0.5387,0.5554,0.5404,0.5408,0.0,0.0,0.0,0.0,0.0,0.0,0.0,0.0,0.0,0.0,0.0,0.0,0.0,0.0,0.0,0.0,-0.6783,-0.6695,-0.6675,-0.7097,-0.7457,-0.7884,-0.8318,-0.8745,-0.9216,-0.9721,-1.0014,-1.0014,-1.0869,-1.1602,-1.191,-1.2394,-1.2859,-1.32,-1.3039,-1.3033,-1.3213,-1.3166,-1.3166,-1.3213,-1.334,-1.3554,-1.3841,-1.3841,-1.4001,-1.4269,-1.4142,-1.3802,-1.3194,-1.2552,-1.1552,-1.0265,-0.9323,-0.8452,-0.786,-0.7493,-0.737,-0.7394,-0.7546,-0.7556,-0.7509,-0.758,-0.7553,-0.7485,-0.7397,-0.7461,-0.7539,-0.7407,-0.7356,-0.7346,-0.7366,-0.7255,-0.7139,-0.7139,-0.7078,-0.6192,-0.2769,-0.0985,-0.0,-0.0,-0.0,-0.0,-0.0,-0.0,-0.0,-0.0,-0.0,-0.0,-0.0,-0.0,0.0904,0.3285,0.3737,0.4322,0.545,0.5494,0.5432,0.5428,0.5428,0.5428,0.5428,0.5428,0.5428,0.5428,0.5294,0.5294,0.5428,0.5428,0.5428,0.5428,0.5428,0.5428,0.0,0.0,0.0,0.0,0.0,0.0,0.0,0.0,0.0,0.0,0.0,0.0,0.0,0.0,0.0,0.0,-0.6637,-0.6563,-0.6481,-0.6441,-0.6627,-0.7092,-0.709,-0.7279,-0.7929,-0.819,-0.8399,-0.8399,-0.943,-1.0272,-1.0736,-1.1563,-1.2285,-1.2746,-1.2605,-1.2632,-1.2866,-1.2712,-1.2826,-1.3213,-1.3133,-1.3088,-1.3114,-1.3114,-1.3149,-1.3098,-1.3497,-1.2942,-1.1809,-1.1552,-1.0438,-0.889,-0.854,-0.7929,-0.7153,-0.7272,-0.7312,-0.7329,-0.7441,-0.7482,-0.7482,-0.7482,-0.7482,-0.7461,-0.7346,-0.7339,-0.7363,-0.7322,-0.7258,-0.7217,-0.7292,-0.7227,-0.7143,-0.7058,-0.7081,-0.6284,-0.3307,-0.1254,-0.0,-0.0,-0.0,-0.0,-0.0,-0.0,-0.0,-0.0,-0.0,-0.0,-0.0,-0.0,0.1209,0.4365,0.3963,0.4045,0.5487,0.5504,0.5428,0.5428,0.5428,0.5428,0.5428,0.5428,0.5428,0.5428,0.5428,0.5428,0.5428,0.5428,0.5428,0.5428,0.5428,0.5428,0.0,0.0,0.0,0.0,0.0,0.0,0.0,0.0,0.0,0.0,0.0,0.0,0.0,0.0,0.0,0.0,-0.6468,-0.6329,-0.6454,-0.6356,-0.6287,-0.6122,-0.5974,-0.5827,-0.5752,-0.6623,-0.7163,-0.7163,-0.8997,-1.0113,-1.0142,-1.0981,-1.1483,-1.1516,-1.1777,-1.1924,-1.1937,-1.2198,-1.2625,-1.3206,-1.2913,-1.2454,-1.1766,-1.1766,-1.1284,-1.0502,-1.178,-1.1729,-1.0611,-0.9492,-0.8978,-0.8803,-0.7665,-0.7139,-0.7143,-0.7149,-0.7153,-0.7153,-0.716,-0.7166,-0.7166,-0.7166,-0.7166,-0.7163,-0.7153,-0.7255,-0.7343,-0.7193,-0.7251,-0.7326,-0.7187,-0.7146,-0.7058,-0.7078,-0.7094,-0.5836,-0.1166,-0.009,-0.0,-0.0,-0.0,-0.0,-0.0,-0.0,-0.0,-0.0,-0.0,-0.0,-0.0,-0.0,0.0075,0.0293,0.3491,0.5566,0.542,0.5379,0.5428,0.5428,0.5428,0.5428,0.5428,0.5428,0.5428,0.5428,0.5428,0.5428,0.5428,0.5428,0.5428,0.5428,0.5428,0.5428,0.0,0.0,0.0,0.0,0.0,0.0,0.0,0.0,0.0,0.0,0.0,0.0,0.0,0.0,0.0,0.0,-0.6247,-0.6132,-0.6179,-0.6061,-0.5911,-0.5766,-0.5698,-0.5606,-0.5457,-0.5776,-0.6234,-0.6826,-0.7483,-0.8462,-0.9779,-1.0129,-1.0615,-1.1354,-1.153,-1.1677,-1.1864,-1.2158,-1.2107,-1.1688,-1.1589,-1.1142,-1.0379,-1.0379,-0.9897,-0.9059,-0.9615,-0.9676,-0.9393,-0.9013,-0.8452,-0.7665,-0.7228,-0.7139,-0.7139,-0.7139,-0.7139,-0.7139,-0.7139,-0.7139,-0.7139,-0.7139,-0.7139,-0.7139,-0.7139,-0.718,-0.721,-0.7156,-0.718,-0.721,-0.7153,-0.7139,-0.6694,-0.5181,-0.6014,-0.576,-0.0988,-0.0,-0.0,-0.0,-0.0,-0.0,-0.0,-0.0,-0.0,-0.0,-0.0,-0.0,-0.0,-0.0,-0.0,-0.0,0.2461,0.4445,0.5476,0.5572,0.5467,0.5435,0.5428,0.5428,0.5428,0.5428,0.5428,0.5428,0.5428,0.5428,0.5428,0.5428,0.5428,0.5428,0.5428,0.5428,0.0,0.0,0.0,0.0,0.0,0.0,0.0,0.0,0.0,0.0,0.0,0.0,0.0,0.0,0.0,0.0,-0.602,-0.5952,-0.5952,-0.5867,-0.5749,-0.5606,-0.5589,-0.5508,-0.5304,-0.5284,-0.552,-0.6033,-0.6345,0.0,-0.8913,-0.932,-0.988,-1.0789,-1.0802,-1.0836,-1.0994,-1.1075,-1.0797,-1.0211,-1.0211,-0.9777,-0.8942,-0.9014,-0.8575,-0.7664,-0.772,-0.7847,-0.8026,-0.8146,-0.7711,-0.7068,-0.7068,-0.7099,-0.7139,-0.7139,-0.7139,-0.7139,-0.7139,-0.7139,-0.7139,-0.7139,-0.7139,-0.7139,-0.7139,-0.7139,-0.7139,-0.7139,-0.7105,-0.7068,-0.7068,-0.7078,-0.6734,-0.5139,-0.5965,-0.5805,-0.1067,-0.0,-0.0,-0.0,-0.0,-0.0,-0.0,-0.0,-0.0,-0.0,-0.0,-0.0,-0.0,-0.0,-0.0,-0.0,0.1219,0.3053,0.549,0.559,0.5528,0.5439,0.5428,0.5428,0.5428,0.5428,0.5428,0.5428,0.5428,0.5428,0.5428,0.5428,0.5428,0.5428,0.5428,0.5428,0.0,0.0,0.0,0.0,0.0,0.0,0.0,0.0,0.0,0.0,0.0,0.0,0.0,0.0,0.0,0.0,-0.5783,-0.5789,-0.5793,-0.5786,-0.5732,-0.5599,-0.5583,-0.5464,-0.5159,-0.5131,-0.507,-0.4928,-0.5687,-0.6601,-0.7654,-0.8488,-0.9172,-0.9626,-0.965,-0.9473,-0.9083,-0.8867,-0.8872,-0.902,-0.903,-0.8519,-0.7425,-0.7694,-0.7249,-0.6345,-0.6407,-0.6549,-0.6688,-0.6698,-0.679,-0.6922,-0.6926,-0.7014,-0.7136,-0.7139,-0.7139,-0.7139,-0.7139,-0.7139,-0.7139,-0.7139,-0.7139,-0.7139,-0.7139,-0.7139,-0.7139,-0.7139,-0.7041,-0.6932,-0.6929,-0.6953,-0.698,-0.699,-0.6924,-0.5602,-0.0957,-0.0,-0.0,-0.0,-0.0,-0.0,-0.0,-0.0,-0.0,-0.0,-0.0,-0.0,-0.0,-0.0,-0.0,-0.0,-0.0,0.1556,0.5377,0.5554,0.5408,0.5386,0.5439,0.5439,0.5435,0.5435,0.5432,0.5428,0.5428,0.5428,0.5428,0.5428,0.5428,0.5428,0.5428,0.5428,-0.1015,0.0,0.0,0.0,0.0,0.0,0.0,0.0,0.0,0.0,0.0,0.0,0.0,0.0,0.0,0.0,-0.5342,-0.5521,-0.5633,-0.5457,-0.5342,-0.5416,-0.5423,-0.5345,-0.5148,-0.5131,-0.5318,0.0,-0.5453,-0.5953,-0.7446,-0.7905,-0.8195,-0.8435,-0.8676,-0.869,-0.861,-0.8708,-0.8438,-0.7789,-0.7865,-0.7421,-0.6403,-0.6641,-0.6567,-0.6342,-0.6302,-0.6342,-0.64,-0.6614,-0.6725,-0.6773,-0.6885,-0.6953,-0.7,-0.7102,-0.7139,-0.7139,-0.7139,-0.7139,-0.7139,-0.7139,-0.7139,-0.7139,-0.7139,-0.7139,-0.7139,-0.7139,-0.7112,-0.7058,-0.6956,-0.5738,-0.4575,-0.4578,-0.3227,-0.1615,-0.0255,-0.0,-0.0,-0.0,-0.0,-0.0,-0.0,-0.0,-0.0,-0.0,-0.0,-0.0,-0.0,-0.0,-0.0,-0.0,-0.0,0.1071,0.3636,0.5032,0.5781,0.5691,0.5681,0.5633,0.5532,0.5528,0.5474,0.5428,0.5428,0.5428,0.5428,0.5428,0.5428,0.5428,0.5428,0.5428,0.0,0.0,0.0,0.0,0.0,0.0,-0.3927,-0.4453,-0.4818,0.0,0.0,0.0,0.0,0.0,0.0,0.0,-0.5231,-0.5373,-0.5343,-0.5155,-0.5077,-0.5165,-0.5179,-0.5114,-0.4962,-0.4948,-0.5062,-0.5482,-0.5016,-0.5365,-0.6873,-0.7355,-0.7526,-0.7369,-0.7493,-0.74,-0.7154,-0.7337,-0.7091,-0.662,-0.6717,-0.6514,-0.5942,-0.6162,-0.6338,-0.6338,-0.6338,-0.6338,-0.6274,-0.6444,-0.6552,-0.6614,-0.6705,-0.6817,-0.6939,-0.7021,-0.7088,-0.7139,-0.7139,-0.7139,-0.7139,-0.7139,-0.7139,-0.7139,-0.7139,-0.7139,-0.7139,-0.7139,-0.7099,-0.692,-0.6716,-0.5719,-0.4268,-0.2485,-0.0993,-0.0,-0.0,-0.0,-0.0,-0.0,-0.0,-0.0,-0.0,-0.0,-0.0,-0.0,-0.0,-0.0,-0.0,-0.0,-0.0,-0.0,-0.0,0.0853,0.2949,0.4991,0.604,0.5728,0.5715,0.5647,0.5501,0.5494,0.5454,0.5428,0.5428,0.5428,0.5428,0.5428,0.5428,0.5428,0.5428,0.5328,0.0,0.0,0.0,0.0,0.0,0.0,-0.3592,-0.4165,-0.4613,-0.4583,0.0,0.0,0.0,0.0,0.0,0.0,-0.5259,-0.5139,-0.4931,-0.4904,-0.4901,-0.4918,-0.4918,-0.486,-0.4704,-0.4691,-0.4626,-0.4529,-0.4519,-0.4978,-0.5994,-0.679,-0.6884,-0.6224,-0.6249,-0.5958,-0.5401,-0.5418,-0.543,-0.5566,-0.5708,-0.5786,-0.5813,-0.6101,-0.6244,-0.6338,-0.6338,-0.6338,-0.6338,-0.6338,-0.6335,-0.6451,-0.6468,-0.6637,-0.6878,-0.6898,-0.6993,-0.7112,-0.7099,-0.7112,-0.7136,-0.7102,-0.7112,-0.7136,-0.7122,-0.7129,-0.7136,-0.7122,-0.7014,-0.6756,-0.6404,-0.6352,-0.5325,-0.1624,-0.0323,-0.0,-0.0,-0.0,-0.0,-0.0,-0.0,-0.0,-0.0,-0.0,-0.0,-0.0,-0.0,-0.0,-0.0,-0.0,-0.0,-0.0,0.0393,0.1322,0.2961,0.5098,0.6131,0.5684,0.5647,0.5569,0.5483,0.5463,0.5446,0.5428,0.5428,0.5428,0.5428,0.5428,0.5418,0.5335,0.5335,0.5254,0.0,0.0,0.0,0.0,0.0,0.0,-0.3652,-0.4284,-0.4785,0.0,0.0,0.0,0.0,0.0,0.0,0.0,0.0,-0.4873,-0.4903,-0.4813,-0.4779,-0.4904,-0.4918,-0.486,-0.4704,-0.4691,-0.4626,-0.4529,-0.4519,-0.4654,-0.4955,-0.5137,-0.5214,-0.52,-0.5318,-0.5269,-0.5176,-0.5298,-0.5442,-0.5473,-0.5559,-0.5691,-0.581,-0.5993,-0.6142,-0.6338,-0.6338,-0.6338,-0.6338,-0.6338,-0.6278,-0.6315,-0.6427,-0.6508,-0.6576,-0.6698,-0.6841,-0.6953,-0.6827,-0.6943,-0.7102,-0.6865,-0.6946,-0.7119,-0.7004,-0.7051,-0.7115,-0.7004,-0.6861,-0.6705,-0.6522,-0.6351,-0.6099,-0.5235,-0.2442,-0.0,-0.0,-0.0,-0.0,-0.0,-0.0,-0.0,-0.0,-0.0,-0.0,-0.0,-0.0,-0.0,-0.0,-0.0,-0.0,-0.0,0.3066,0.4555,0.3184,0.5057,0.6287,0.6135,0.6013,0.5874,0.5722,0.5606,0.5488,0.5428,0.5428,0.5428,0.5428,0.5428,0.5298,0.5176,0.5176,0.5098,0.0,0.0,0.0,-0.1715,0.0,0.0,0.0,-0.4256,-0.4747,-0.4896,0.0,0.0,0.0,0.0,0.0,-0.6117,-0.5769,-0.5448,-0.5251,-0.4868,-0.4606,-0.468,-0.4691,-0.466,-0.4582,-0.4575,-0.4545,-0.4522,-0.4519,-0.4584,-0.468,-0.4619,-0.4646,-0.4799,-0.4948,-0.5023,-0.5023,-0.5247,-0.5428,-0.5428,-0.5515,-0.5664,-0.5806,-0.5959,-0.6115,-0.6338,-0.6338,-0.6338,-0.6338,-0.6338,-0.6338,-0.6345,-0.6339,-0.641,-0.6481,-0.6559,-0.6681,-0.6803,-0.6725,-0.6848,-0.6997,-0.6773,-0.6851,-0.7007,-0.6861,-0.6865,-0.6905,-0.6834,-0.6759,-0.6664,-0.6512,-0.6478,-0.6371,-0.6312,-0.4698,-0.2584,-0.047,-0.0,-0.0,-0.0,-0.0,-0.0,-0.0,-0.0,-0.0,-0.0,-0.0,-0.0,-0.0,-0.0,0.0785,0.2909,0.5048,0.5836,0.4774,0.5721,0.6207,0.604,0.5959,0.5817,0.5593,0.5515,0.544,0.5428,0.5428,0.5428,0.5428,0.5284,0.5206,0.5131,0.5131,0.5013,0.0,0.0,0.0,0.0,0.0,-0.2766,0.0,0.0,0.0,0.0,0.0,0.0,0.0,0.0,0.0,0.0,0.0,0.0,0.0,-0.494,0.0,-0.4555,-0.4552,-0.4524,-0.453,-0.4645,-0.4625,-0.4519,-0.4625,-0.4682,-0.464,-0.4584,-0.4573,-0.4643,-0.4823,-0.4918,-0.4918,-0.5213,-0.5428,-0.5428,-0.5488,-0.5637,-0.5803,-0.5928,-0.6088,-0.6338,-0.6338,-0.6338,-0.6338,-0.6338,-0.6338,-0.6338,-0.6338,-0.6332,-0.643,-0.643,-0.6525,-0.6654,-0.6624,-0.6732,-0.6854,-0.6675,-0.6719,-0.6824,-0.6729,-0.6678,-0.6658,-0.6658,-0.6658,-0.662,-0.6471,-0.6451,-0.6437,-0.6305,-0.6285,-0.526,-0.1408,-0.0314,-0.0,-0.0,-0.0,-0.0,-0.0,-0.0,-0.0,-0.0,-0.0,0.0314,0.1099,0.1178,0.2357,0.5361,0.6077,0.6308,0.6281,0.6278,0.6152,0.5864,0.5817,0.5681,0.5416,0.5446,0.5428,0.5428,0.5428,0.5428,0.5428,0.5206,0.5114,0.5087,0.506,0.4901,0.0,0.0,0.0,0.0,-0.1958,0.0,0.0,0.0,-0.4442,-0.5089,0.0,0.0,0.0,0.0,0.0,0.0,0.0,0.0,-0.5281,-0.5116,-0.4985,-0.4853,-0.4749,-0.4655,-0.4683,-0.5088,-0.5164,-0.4574,-0.5054,-0.512,-0.4543,-0.4525,-0.4525,-0.4543,-0.4769,-0.4918,-0.4918,-0.5213,-0.5428,-0.5428,-0.5446,-0.5532,-0.58,-0.582,-0.5986,-0.6338,-0.6338,-0.6338,-0.6338,-0.6338,-0.6338,-0.6338,-0.6338,-0.6271,-0.6285,-0.6285,-0.6376,-0.6481,-0.6352,-0.6491,-0.6681,-0.64,-0.6407,-0.6546,-0.6664,-0.6607,-0.6498,-0.6498,-0.6498,-0.6464,-0.6322,-0.638,-0.6437,-0.6295,-0.6281,-0.5655,-0.3281,-0.1331,-0.0,-0.0,-0.0,-0.0,-0.0,-0.0,-0.0,-0.0,-0.0,0.1335,0.5129,0.5608,0.504,0.3599,0.5171,0.6281,0.6278,0.6271,0.619,0.6013,0.5878,0.5728,0.5569,0.5433,0.5428,0.5428,0.5428,0.5428,0.5428,0.5206,0.5064,0.4942,0.4802,0.465,0.0,0.0,0.0,0.0,0.0,0.0,-0.316,0.0,-0.4263,0.0,0.0,0.0,0.0,0.0,0.0,0.0,-0.6106,0.0,0.0,0.0,-0.5141,0.0,0.0,0.0,-0.4526,-0.4691,-0.4652,-0.4324,-0.4512,-0.4554,-0.4331,-0.4419,-0.456,-0.4592,-0.4806,-0.4958,-0.504,-0.5254,-0.5428,-0.5428,-0.5428,-0.5471,-0.5677,-0.5677,-0.584,-0.6122,-0.6034,-0.6044,-0.6129,-0.6129,-0.6129,-0.6135,-0.6227,-0.6338,-0.6338,-0.6338,-0.6298,-0.6342,-0.6281,-0.6396,-0.6549,-0.6424,-0.6369,-0.6363,-0.6427,-0.64,-0.6349,-0.6349,-0.6349,-0.6335,-0.6278,-0.6305,-0.6335,-0.6274,-0.6278,-0.5733,-0.3595,-0.1488,-0.0,-0.0,-0.0,-0.0,-0.0,-0.0,-0.0,-0.0,-0.0,0.1492,0.5767,0.6329,0.5918,0.509,0.5799,0.6274,0.6271,0.6264,0.6156,0.5911,0.5677,0.5518,0.546,0.5463,0.5428,0.5428,0.5428,0.5318,0.5226,0.5162,0.5013,0.4785,0.4721,0.4609,0.1182,0.0,0.0,0.0,0.0,0.0,0.0,0.0,0.0,0.0,0.0,0.0,0.0,0.0,0.0,0.0,0.0,-0.6005,0.0,-0.5577,0.0,0.0,0.0,0.0,0.0,-0.4538,-0.4455,-0.4111,-0.4218,-0.4221,-0.4123,-0.4362,-0.4587,-0.4684,-0.4877,-0.5026,-0.5128,-0.5284,-0.5428,-0.5428,-0.5428,-0.5443,-0.5589,-0.5589,-0.5728,-0.5962,-0.5847,-0.5864,-0.5969,-0.6013,-0.6006,-0.5983,-0.6135,-0.6196,-0.6203,-0.6244,-0.6338,-0.6338,-0.6338,-0.6329,-0.6413,-0.6413,-0.6346,-0.6338,-0.6338,-0.6338,-0.6338,-0.6338,-0.6338,-0.6338,-0.6338,-0.6338,-0.6338,-0.6264,-0.6281,-0.5895,-0.4311,-0.1881,-0.0,-0.0,-0.0,-0.0,-0.0,-0.0,-0.0,-0.0,-0.0,0.1334,0.4959,0.5921,0.6308,0.6278,0.6274,0.6271,0.6338,0.6338,0.6129,0.582,0.5525,0.5428,0.5428,0.5428,0.5428,0.5428,0.5428,0.5308,0.5196,0.5152,0.4999,0.4752,0.4711,0.4609,0.0,0.0,0.0,-0.0246,0.0,0.0,0.0,0.0,-0.3476,0.0,0.0,0.0,0.0,0.0,0.0,0.0,0.0,0.0,0.0,0.0,0.0,0.0,0.0,0.0,0.0,-0.5029,-0.4958,-0.3816,-0.4501,-0.4664,-0.3966,-0.43,-0.4587,-0.4684,-0.4972,-0.5125,-0.5131,-0.5284,-0.5428,-0.5428,-0.5428,-0.5443,-0.5589,-0.5589,-0.5671,-0.581,-0.5803,-0.5803,-0.582,-0.5969,-0.5942,-0.5823,-0.5976,-0.6037,-0.6054,-0.6207,-0.6338,-0.6338,-0.6338,-0.6264,-0.6268,-0.6268,-0.6342,-0.6338,-0.6338,-0.6338,-0.6338,-0.6338,-0.6338,-0.6338,-0.6338,-0.6338,-0.6264,-0.6274,-0.6288,-0.6302,-0.6244,-0.2909,-0.0,-0.0,-0.0,-0.0,-0.0,-0.0,-0.0,-0.0,-0.0,0.0784,0.289,0.5018,0.6288,0.6264,0.6338,0.6338,0.6338,0.6338,0.6129,0.582,0.5525,0.5428,0.5428,0.5428,0.5428,0.5428,0.5428,0.5425,0.5422,0.5203,0.5053,0.4908,0.4758,0.4609,0.3079,0.2093,0.0851,0.0065,0.0,0.0,0.0,0.0,0.0,0.0,0.0,0.0,0.0,0.0,0.0,0.0,0.0,0.0,0.0,0.0,0.0,0.0,0.0,0.0,0.0,0.0,-0.4144,-0.3503,-0.3814,-0.3943,-0.3723,-0.4197,-0.4639,-0.497,-0.5033,-0.5179,-0.5281,-0.5335,-0.5428,-0.5428,-0.5428,-0.5456,-0.544,-0.544,-0.5518,-0.5654,-0.5555,-0.5566,-0.5664,-0.5718,-0.5708,-0.5677,-0.5823,-0.5939,-0.6037,-0.6088,-0.6173,-0.6247,-0.6142,-0.6176,-0.6227,-0.6023,-0.6095,-0.624,-0.6139,-0.6179,-0.6338,-0.6338,-0.6338,-0.6338,-0.6338,-0.6268,-0.6274,-0.6278,-0.6298,-0.6318,-0.6329,-0.2987,-0.0,-0.0,-0.0,-0.0,-0.0,-0.0,-0.0,-0.0,-0.0,0.0784,0.2812,0.4937,0.6288,0.6264,0.6338,0.6338,0.6338,0.6074,0.5911,0.581,0.5525,0.5428,0.5428,0.5428,0.5428,0.5428,0.5428,0.5311,0.5209,0.5257,0.5104,0.4769,0.4819,0.4704,0.3513,0.3005,0.2215,0.0411,-0.0133,-0.0515,-0.1448,0.0,-0.2364,0.0,0.0,0.0,0.0,0.0,0.0,0.0,0.0,0.0,0.0,-0.3975,0.0,0.0,0.0,0.0,0.0,-0.3633,-0.3533,-0.3145,-0.3236,-0.3356,-0.3463,-0.3964,-0.4498,-0.5053,-0.5185,-0.5264,-0.5425,-0.5432,-0.5369,-0.5369,-0.5372,-0.5372,-0.5372,-0.5372,-0.5426,-0.5515,-0.5413,-0.5423,-0.5518,-0.5569,-0.5559,-0.5521,-0.5671,-0.5786,-0.5884,-0.5989,-0.6129,-0.6247,-0.6146,-0.6142,-0.6156,-0.601,-0.6061,-0.6169,-0.6125,-0.6179,-0.6271,-0.6322,-0.6298,-0.6352,-0.641,-0.6393,-0.6281,-0.6295,-0.6315,-0.5927,-0.4411,-0.1885,-0.0,-0.0,-0.0,-0.0,-0.0,-0.0,-0.0,-0.0,-0.0,0.102,0.3841,0.5419,0.6288,0.6271,0.6264,0.6338,0.6338,0.5979,0.58,0.58,0.5525,0.5428,0.5428,0.5428,0.5476,0.5515,0.548,0.5365,0.5369,0.5365,0.5186,0.485,0.4897,0.4782]},{"header":{"parameterUnit":"m.s-1","parameterCategory":1,"la1":30.6,"la2":29.2853,"lo1":-89.7004,"lo2":-87.6739,"dy":0.0162,"dx":0.0183,"nx":112,"ny":82,"refTime":"2023-06-29T00:00:00:Z","depth":0,"parameterNumber":3,"parameterNumberName":"V-component_of_WINDS"},"data":[0.0,0.0,0.0,0.0,0.0,0.0,0.0,0.0,0.0,0.0,0.0,0.0,0.0,0.0,0.0,0.0,0.0,0.0,0.0,0.0,0.0,0.0,0.0,0.0,0.0,0.0,0.0,0.0,0.0,0.0,0.0,0.0,0.0,0.0,0.0,0.0,0.0,0.0,0.0,0.0,0.0,0.0,0.0,0.0,0.0,0.0,0.0,0.0,0.0,0.0,0.0,0.0,0.0,0.0,0.0,0.0,0.0,0.0,0.0,0.0,0.0,0.0,0.0,0.0,0.0,0.0,0.0,0.0,0.0,0.0,0.0,0.0,0.0,0.0,0.0,0.0,0.0,0.0,0.0,0.0,0.0,0.0,0.0,0.0,0.0,0.0,0.0,0.0,0.0,0.0,0.9977,0.8983,0.9558,0.9982,0.9933,1.0495,1.084,1.0822,0.0,0.0,0.0,0.0,0.0,0.0,0.0,0.0,0.0,0.0,0.0,0.0,0.0,0.0,0.0,0.0,0.0,0.0,0.0,0.0,0.0,0.0,0.0,0.0,0.0,0.0,0.0,0.0,0.0,0.0,0.0,0.0,0.0,0.0,0.0,0.0,0.0,0.0,0.0,0.0,0.0,0.0,0.0,0.0,0.0,0.0,0.0,0.0,0.0,0.0,0.0,0.0,0.0,0.0,0.0,0.0,0.0,0.0,0.0,0.0,0.0,0.0,0.0,0.0,0.0,0.0,0.0,0.0,0.0,0.0,0.0,0.0,0.0,0.0,0.0,0.0,0.0,0.0,0.0,0.0,0.0,0.0,0.0,0.0,0.0,0.0,0.0,0.0,0.0,0.0,0.0,0.0,0.0,0.0,0.0,0.0,0.0,0.0,0.0,0.0,0.0,0.0,0.0,0.0,0.973,0.9724,0.9944,1.0078,1.007,1.0111,1.0744,1.2109,0.0,0.0,0.0,0.0,0.0,0.0,0.0,0.0,0.0,0.0,0.0,0.0,0.0,0.0,0.0,0.0,0.0,0.0,0.0,0.0,0.0,0.0,0.0,0.0,0.0,0.0,0.0,0.0,0.0,0.0,0.0,0.0,0.0,0.0,0.0,0.0,0.0,0.0,0.0,0.0,0.0,0.0,0.0,0.0,0.0,0.0,0.0,0.0,0.0,0.0,0.0,0.0,0.0,0.0,0.0,0.0,0.0,0.0,0.0,0.0,0.0,0.0,0.0,0.0,0.0,0.0,0.0,0.0,0.0,0.0,0.0,0.0,0.0,0.0,0.0,0.0,0.0,0.0,0.0,0.0,0.0,0.0,0.0,0.0,0.0,0.0,0.0,0.0,0.0,0.0,0.0,0.0,0.0,0.0,0.0,0.0,0.0,0.0,0.0,0.0,0.0,0.0,0.0,0.9243,0.9444,0.9895,1.0048,1.0094,1.0094,1.0011,1.0595,1.2135,1.1099,0.0,0.0,0.0,0.0,0.0,0.0,0.0,0.0,0.0,0.0,0.0,0.0,0.0,0.0,0.0,0.0,0.0,0.0,0.0,0.0,0.0,0.0,0.0,0.0,0.0,0.0,0.0,0.0,0.0,0.0,0.0,0.0,0.0,0.0,0.0,0.0,0.0,0.0,0.0,0.0,0.0,0.0,0.0,0.0,0.0,0.0,0.0,0.0,0.0,0.0,0.0,0.0,0.0,0.0,0.0,0.0,0.0,0.0,0.0,0.0,0.0,0.0,0.0,0.0,0.0,0.0,0.0,0.0,0.0,0.0,0.0,0.0,0.0,0.0,0.0,0.0,0.0,0.0,0.0,0.0,0.0,0.0,0.0,0.0,0.0,0.0,0.0,0.0,0.0,0.0,0.0,0.0,0.0,0.0,0.0,0.0,0.0,0.0,0.0,0.0,0.0,0.0,0.9298,0.921,0.9908,1.0057,1.009,1.0078,1.0152,1.0665,1.1772,1.0835,0.0,0.0,0.0,0.0,0.0,0.0,0.0,0.0,0.0,0.0,0.0,0.0,0.0,0.0,0.0,0.0,0.0,0.0,0.0,0.0,0.0,0.0,0.0,0.0,0.0,0.0,0.0,0.0,0.0,0.0,0.0,0.0,0.0,0.0,0.0,0.0,0.0,0.0,0.0,0.0,0.0,0.0,0.0,0.0,0.0,0.0,0.0,0.0,0.0,0.0,0.0,0.0,0.0,0.0,0.0,0.0,0.0,0.0,0.0,0.0,0.0,0.0,0.0,0.0,0.0,0.0,0.0,0.0,0.0,0.0,0.0,0.0,0.0,0.0,0.0,0.0,0.0,0.0,0.0,0.0,0.0,0.0,0.0,0.0,0.0,0.0,0.0,0.0,0.0,0.0,0.0,0.0,0.0,0.0,0.0,0.0,0.0,0.0,0.0,0.0,0.0,0.0,0.9179,0.9087,0.9835,1.0025,1.0074,1.0006,1.069,1.1173,1.1348,1.1256,0.0,0.0,0.0,0.0,0.0,0.0,0.0,0.0,0.0,0.0,0.0,0.0,0.0,0.0,0.0,0.0,0.0,0.0,0.0,0.0,0.0,0.0,0.0,0.0,0.0,0.0,0.0,0.0,0.0,0.0,0.0,0.0,0.0,0.0,0.0,0.0,0.0,0.0,0.0,0.0,0.0,0.0,0.0,0.0,0.0,0.0,0.0,0.0,0.0,0.0,0.0,0.0,0.0,0.0,0.0,0.0,0.0,0.0,0.0,0.0,0.0,0.0,0.0,0.0,0.0,0.0,0.0,0.0,0.0,0.0,0.0,0.0,0.0,0.0,0.0,0.0,0.0,0.0,0.0,0.0,0.0,0.0,0.0,0.0,0.0,0.0,0.0,0.0,0.0,0.0,0.0,0.0,0.0,0.0,0.0,0.0,0.0,0.0,0.0,0.0,0.0,0.0,0.9861,0.9577,0.0,0.9965,1.0001,0.9949,1.0217,1.0876,1.2038,0.0,0.0,0.0,0.0,0.0,0.0,0.0,0.0,0.0,0.0,0.0,0.0,0.0,0.0,0.0,0.0,0.0,0.0,0.0,0.0,0.0,0.0,0.0,0.0,0.0,0.0,0.0,0.0,0.0,0.0,0.0,0.0,0.0,0.0,0.0,0.0,0.0,0.0,0.0,0.0,0.0,0.0,0.0,0.0,0.0,0.0,0.0,0.0,0.0,0.0,0.0,0.0,0.0,0.0,0.0,0.0,0.0,0.0,0.0,0.0,0.0,0.0,0.0,0.0,0.0,0.0,0.0,0.0,0.0,0.0,0.0,0.0,0.0,0.0,0.0,0.0,0.0,0.0,0.0,0.0,0.0,0.0,0.0,0.0,0.0,0.0,0.0,0.0,0.0,0.0,0.0,0.0,0.0,0.0,0.0,0.0,0.0,0.0,0.0,0.0,0.0,0.0,1.0684,1.0196,0.9796,0.0,0.9904,0.9949,0.9863,1.0119,1.0803,1.2051,0.0,0.0,0.0,0.0,0.0,0.0,0.0,0.0,0.0,0.0,0.0,0.0,0.0,0.0,0.0,0.0,0.0,0.0,0.0,0.0,0.0,0.0,0.0,0.0,0.0,0.0,0.0,0.0,0.0,0.0,0.0,0.0,0.0,0.0,0.0,0.0,0.0,0.0,0.0,0.0,0.0,0.0,0.0,0.0,0.0,0.0,0.0,0.0,0.0,0.0,0.0,0.0,0.0,0.0,0.0,0.0,0.0,0.0,0.0,0.0,0.0,0.0,0.0,0.0,0.0,0.0,0.0,0.0,0.0,0.0,0.0,0.0,0.0,0.0,0.0,0.0,0.0,0.0,0.0,0.0,0.0,0.0,0.0,0.0,0.0,0.0,0.0,0.0,0.0,0.0,0.0,0.0,0.0,0.0,0.0,0.0,0.0,0.0,0.0,0.0,0.0,0.0,1.0621,1.0055,0.9655,0.9784,0.9863,0.9882,0.9798,1.0588,1.1091,0.0,0.0,0.0,0.0,0.0,0.0,0.0,0.0,0.0,0.0,0.0,0.0,0.0,0.0,0.0,0.0,0.0,0.0,0.0,0.0,0.0,0.0,0.0,0.0,0.0,0.0,0.0,0.0,0.0,0.0,0.0,0.0,0.0,0.0,0.0,0.0,0.0,0.0,0.0,0.0,0.0,0.0,0.0,0.0,0.0,0.0,0.0,0.0,0.0,0.0,0.0,0.0,0.0,0.0,0.0,0.0,0.0,0.0,0.0,0.0,0.0,0.0,0.0,0.0,0.0,0.0,0.0,0.0,0.0,0.0,0.0,0.0,0.0,0.0,0.0,0.0,0.0,0.0,0.0,0.0,0.0,0.0,0.0,0.0,0.0,0.0,0.0,0.0,0.0,0.0,0.0,0.0,0.0,0.0,0.0,0.0,0.0,0.0,0.0,0.0,0.0,0.0,0.0,1.136,1.0331,0.9532,0.971,0.9784,0.9798,0.9732,1.001,1.0721,1.2014,0.0,0.0,0.0,0.0,0.0,0.0,0.0,0.0,0.0,0.0,0.0,0.0,0.0,0.0,0.0,0.0,0.0,0.0,0.0,0.0,0.0,0.0,0.0,0.0,0.0,0.0,0.0,0.0,0.0,0.0,0.0,0.0,0.0,0.0,0.0,0.0,0.0,0.0,0.0,0.0,0.0,0.0,0.0,0.0,0.0,0.0,0.0,0.0,0.0,0.0,0.0,0.0,0.0,0.0,0.0,0.0,0.0,0.0,0.0,0.0,0.0,0.0,0.0,0.0,0.0,0.0,0.0,0.0,0.0,0.0,0.0,0.0,0.0,0.0,0.0,0.0,0.0,0.0,0.0,0.0,0.0,0.0,0.0,0.0,0.0,0.0,0.0,0.0,0.0,0.0,0.0,0.0,0.0,0.0,0.0,0.0,0.0,0.0,0.0,0.0,0.0,0.0,1.1739,1.0437,0.9483,0.9683,0.9732,0.9739,0.9706,0.9735,1.041,1.192,0.0,0.0,0.0,0.0,0.0,0.0,0.0,0.0,0.0,0.0,0.0,0.0,0.0,0.0,0.0,0.0,0.0,0.0,0.0,0.0,0.0,0.0,0.0,0.0,0.0,0.0,0.0,0.0,0.0,0.0,0.0,0.0,0.0,0.0,0.0,0.0,0.0,0.0,0.0,0.0,0.0,0.0,0.0,0.0,0.0,0.0,0.0,0.0,0.0,0.0,0.0,0.0,0.0,0.0,0.0,0.0,0.0,0.0,0.0,0.0,0.0,0.0,0.0,0.0,0.0,0.0,0.0,0.0,0.0,0.0,0.0,0.0,0.0,0.0,0.0,0.0,0.0,0.0,0.0,0.0,0.0,0.0,0.0,0.0,0.0,0.0,0.0,0.0,0.0,0.0,0.0,0.0,0.0,0.0,0.0,0.0,0.0,0.0,0.0,0.0,0.0,0.0,1.1783,1.0428,0.9456,0.9649,0.9683,0.9691,0.9698,0.9698,1.0157,1.1214,0.0,0.0,0.0,0.0,0.0,0.0,0.0,0.0,0.0,0.0,0.0,0.0,0.0,0.0,0.0,0.0,0.0,0.0,0.0,0.0,0.0,0.0,0.0,0.0,0.0,0.0,0.0,0.0,0.0,0.0,0.0,0.0,0.0,0.0,0.0,0.0,0.0,0.0,0.0,0.0,0.0,0.0,0.0,0.0,0.0,0.0,0.0,0.0,0.0,0.0,0.0,0.0,0.0,0.0,0.0,0.0,0.0,0.0,0.0,0.0,0.1938,0.0,0.0,0.0,0.0,0.0,0.0,0.0,0.0,0.0,0.0,0.0,0.0,0.0,0.0,0.0,0.0,0.0,0.0,0.0,0.0,0.0,0.0,0.0,0.0,0.0,0.0,0.0,0.0,0.0,0.0,0.0,0.0,0.0,0.0,0.0,0.0,0.0,0.0,0.0,0.0,0.0,1.1664,1.029,0.9376,0.9525,0.9542,0.9593,0.9691,0.9698,1.0114,1.107,1.1625,0.0,0.0,0.0,0.0,0.0,0.0,0.0,0.0,0.0,0.0,0.0,0.0,0.0,0.0,0.0,0.0,0.0,0.0,0.0,0.0,0.0,0.0,0.0,0.0,0.0,0.0,0.0,0.0,0.0,0.0,0.0,0.0,0.0,0.0,0.0,0.0,0.0,0.0,0.0,0.0,0.0,0.0,0.0,0.0,0.0,0.0,0.0,0.0,0.0,0.0,0.0,0.0,0.0,0.0,0.0,0.0,0.0,0.0,0.0,0.0,-0.1202,0.0,0.0,0.0,0.0,0.0,0.0,0.0,0.0,0.0,0.0,0.0,0.0,0.0,0.0,0.0,0.0,0.0,0.0,0.0,0.0,0.0,0.0,0.0,0.0,0.0,0.0,0.0,0.0,0.0,0.0,0.0,0.0,0.0,0.0,0.0,0.0,0.0,0.0,0.0,0.0,1.2069,1.0151,0.8988,0.9267,0.9332,0.9447,0.9691,0.9698,0.9878,1.0265,1.1006,0.0,0.0,0.0,0.0,0.0,0.0,0.0,0.0,0.0,0.0,0.0,0.0,0.0,0.0,0.0,0.0,0.0,0.0,0.0,0.0,0.0,0.0,0.0,0.0,0.0,0.0,0.0,0.0,0.0,0.0,0.0,0.0,0.0,0.0,0.0,0.0,0.0,0.0,0.0,0.0,0.0,0.0,0.0,0.0,0.0,0.0,0.0,0.0,0.0,0.0,0.0,0.0,0.0,-1.1162,-1.2475,-1.4932,-1.4401,-1.3625,-1.2408,-0.7482,-0.468,-0.3691,-0.494,0.0,0.0,0.0,0.0,0.0,0.0,0.0,0.0,0.0,0.0,0.0,0.0,0.0,0.0,0.0,0.0,0.0,0.0,0.0,0.0,0.0,0.0,0.0,0.0,-0.7431,-0.714,-0.3168,0.0,0.0,0.0,0.0,0.0,0.0,0.0,0.0,0.0,0.0,0.0,1.1914,0.9713,0.844,0.8765,0.8545,0.8725,0.9571,0.9641,0.9593,0.9421,1.0017,1.0477,0.0,0.0,0.0,0.0,0.0,0.0,0.0,0.0,0.0,0.0,0.0,0.0,0.0,0.0,0.0,0.0,0.0,0.0,0.0,0.0,0.0,0.0,0.0,0.0,0.0,0.0,0.0,0.0,0.0,0.0,0.0,0.0,-0.3281,-0.542,0.0,0.0,0.0,0.0,0.0,0.0,0.0,0.0,0.0,0.0,0.0,0.0,0.0,-1.0848,-1.1611,-1.574,-1.7911,-1.8101,-1.803,-1.7261,-1.5886,-1.5424,-1.4107,-1.2196,-1.2545,0.0,-0.7035,-0.5768,0.0,0.0,0.0,0.0,0.0,0.0,0.0,0.0,0.0,0.0,0.0,0.0,0.0,0.0,0.0,0.0,0.0,0.0,0.0,0.0,0.0,0.0,-0.8492,-0.9207,-0.9848,-0.9946,-0.8639,-0.4697,-0.1195,-0.0448,0.0019,0.0,0.0,0.0,0.0,0.0,0.0,0.0,0.9437,0.8318,0.7876,0.7647,0.6124,0.6286,0.9188,0.943,0.9447,0.9491,0.9421,0.9858,1.092,1.1019,0.0,0.0,0.0,0.0,0.0,0.0,0.0,0.0,0.0,0.0,0.0,0.0,0.0,0.0,0.0,0.0,0.0,0.0,0.0,0.0,0.0,0.0,0.0,0.0,0.0,0.0,0.0,0.0,0.0,-0.3466,-0.5371,-0.7978,-0.6356,-0.5443,0.0,0.0,0.0,0.0,0.0,0.0,0.0,0.0,0.0,-1.0339,-1.3349,-1.5168,-1.5587,-1.7958,-1.9463,-2.0067,-1.9516,-1.8982,-1.8484,-1.7511,-1.6069,-1.4297,-1.4384,-1.2889,-1.0279,-0.9035,-0.8883,-0.9096,0.0,0.0,0.0,0.0,-0.343,-0.4979,-0.5031,-0.6209,-0.7747,-0.8028,0.0,0.0,0.0,0.0,0.0,0.0,0.0,-0.4202,0.0,0.0,-0.8835,-0.9839,-1.0219,-1.0199,-0.9627,-0.7485,-0.5274,0.0,-0.3743,-0.2672,0.0882,0.0,0.0,0.0,0.0,1.1744,0.8539,0.6288,0.5677,0.7489,0.6553,0.5333,0.4209,0.7258,0.9257,0.933,0.932,0.9432,0.9697,1.03,1.0415,0.0,0.0,0.0,0.0,0.0,0.0,0.0,0.0,0.0,0.0,0.0,0.0,0.0,0.0,0.0,0.0,0.0,0.0,0.0,0.0,0.0,0.0,0.0,0.0,0.0,0.0,0.0,0.0,-0.529,-0.7501,-0.9825,-0.8951,-0.8744,0.0,0.0,0.0,0.0,0.0,0.0,-1.1803,-1.3539,-1.4676,-1.5086,-1.735,-1.8574,-1.8665,-1.9545,-2.043,-2.125,-2.06,-2.0485,-2.0783,-1.9715,-1.8466,-1.7106,-1.6159,-1.4888,-1.3318,-1.1957,-1.1278,-1.0785,-0.8011,-0.7595,-0.8254,-0.5635,-0.619,-0.8242,-0.8118,-0.9918,-1.2256,-1.1933,-1.2094,-1.2108,-1.0365,0.0,0.0,0.0,0.0,-0.6083,-0.7189,-0.8369,-0.9417,-1.0044,-1.0152,-1.0014,-0.9675,-0.9533,-0.8919,0.0,-0.691,-0.5995,-0.2361,0.0,0.0,0.0,0.0,0.7897,0.6271,0.3687,0.3176,0.624,0.566,0.4229,0.2198,0.4948,0.7125,0.7944,0.8749,0.9057,0.8731,0.9716,0.9826,0.8922,0.0,0.0,0.0,0.0,0.0,0.0,0.0,0.0,0.0,0.0,0.0,0.0,0.0,0.0,0.0,0.0,0.0,0.0,0.0,0.0,0.0,0.0,0.0,0.0,0.0,0.0,0.0,0.0,0.0,-0.9293,-1.2268,0.0,0.0,0.0,0.0,-1.2823,-1.362,-1.4913,-1.6915,-1.7666,-1.8135,-1.8358,-2.0148,-2.1265,-2.1594,-2.3194,-2.3688,-2.3078,-2.3217,-2.2852,-2.2006,-2.1628,-2.0993,-2.0205,-1.9138,-1.7741,-1.6002,-1.3317,-1.2263,-1.2406,-1.3202,-1.3444,-1.3363,-1.3286,-1.3191,-1.2973,-1.2473,-1.1959,-1.159,-1.1811,-1.1781,-1.1719,-1.2034,-1.0114,0.0,0.0,-0.8156,-0.8114,-0.8445,-0.9933,-1.1157,-1.0389,-1.0153,-1.0052,-0.9905,-1.038,-1.0278,0.0,-0.8304,-0.7359,-0.4037,0.0,-0.1053,0.0627,0.2254,0.2668,0.1001,0.0405,0.0861,0.275,0.1394,0.2291,0.709,0.3178,0.1689,0.455,0.7198,0.8691,0.879,0.8624,0.8811,0.9452,0.9043,0.0,0.0,0.0,0.0,0.0,0.0,0.0,0.0,0.0,0.0,0.0,0.0,0.0,0.0,0.0,0.0,0.0,0.0,0.0,0.0,0.0,0.0,0.0,0.0,0.0,0.0,0.0,0.0,-1.302,-1.4406,0.0,-1.5823,-1.5227,-1.564,-1.7679,-1.8225,-1.9121,-2.0611,-2.1245,-2.1651,-2.1801,-2.2786,-2.3434,-2.373,-2.4191,-2.4304,-2.4017,-2.3547,-2.3136,-2.2788,-2.2292,-2.1511,-2.0548,-2.016,-1.9248,-1.8019,-1.7021,-1.5205,-1.3094,-1.3646,-1.3828,-1.3796,-1.4046,-1.4225,-1.4212,-1.354,-1.3258,-1.3156,-1.3042,-1.2795,-1.2488,-1.2093,-1.1415,-1.0697,-1.0348,-1.0248,-1.0417,-1.1072,-1.178,-1.2242,-1.1889,-1.1816,-1.1656,-1.1016,-1.1019,-1.0777,-0.9515,-0.9303,-0.8724,-0.6819,-0.5523,-0.4459,-0.3611,-0.2773,-0.2364,-0.2699,-0.2386,-0.1876,-0.1227,0.0113,0.1474,0.2708,0.4212,0.409,0.1751,0.2524,0.4704,0.8396,0.845,0.8427,0.8469,0.8258,0.7456,0.0,0.0,0.0,0.0,0.0,0.0,0.0,0.0,0.0,0.0,0.0,0.0,0.0,0.0,0.0,0.0,0.0,0.0,0.0,0.0,0.0,0.0,0.0,0.0,0.0,0.0,-1.4147,-1.5743,-1.7049,-1.8206,-1.9181,-1.8903,-1.9485,-2.1489,-2.2125,-2.2713,-2.3418,-2.3897,-2.4121,-2.4018,-2.4607,-2.489,-2.4808,-2.5145,-2.4885,-2.4061,-2.3755,-2.3406,-2.3021,-2.2517,-2.1989,-2.1451,-2.0994,-2.0456,-1.9843,-1.9367,-1.77,-1.5448,-1.5381,-1.5053,-1.4648,-1.4771,-1.4938,-1.4969,-1.3958,-1.358,-1.3531,-1.3377,-1.3045,-1.2644,-1.2404,-1.2345,-1.2241,-1.1775,-1.194,-1.231,-1.2623,-1.295,-1.3124,-1.2805,-1.2766,-1.2636,-1.2001,-1.1616,-1.1153,-1.0464,-0.9952,-0.9208,-0.788,-0.7181,-0.6412,-0.5192,-0.4602,-0.408,-0.3501,-0.4071,-0.4438,-0.4197,-0.2538,-0.1045,-0.0081,0.4338,0.5386,0.1435,0.1623,0.3599,0.7431,0.7636,0.7563,0.7354,0.6317,0.629,0.7316,0.0,0.0,0.0,0.0,0.0,0.0,0.0,0.0,0.0,0.0,0.0,0.0,0.0,0.0,0.0,0.0,0.0,0.0,0.0,0.0,0.0,0.0,0.0,-1.2289,-1.5834,-1.8034,-1.7376,-2.0374,-2.2106,-2.1102,-2.2472,-2.3648,-2.4202,-2.5275,-2.5736,-2.5401,-2.562,-2.5484,-2.4866,-2.56,-2.563,-2.4872,-2.6209,-2.5695,-2.3301,-2.4063,-2.3854,-2.2764,-2.2477,-2.2659,-2.3141,-2.1825,-2.1396,-2.1552,-2.0159,-1.9584,-1.9497,-1.8706,-1.7584,-1.6363,-1.6044,-1.586,-1.5558,-1.4026,-1.3134,-1.2652,-1.286,-1.2502,-1.2204,-1.3158,-1.2952,-1.2447,-1.2515,-1.3194,-1.3723,-1.2964,-1.341,-1.3854,-1.3087,-1.2901,-1.2871,-1.2871,-1.2193,-1.1548,-1.1463,-1.0345,-0.8863,-0.7174,-0.7291,-0.6717,-0.4047,-0.321,0.0,-0.1622,-0.4681,-0.6675,-0.6017,-0.6727,-0.5354,-0.0626,0.3056,0.462,0.348,0.4665,0.5501,0.5704,0.5911,0.6103,0.6226,0.3255,0.428,0.9534,0.0,0.0,0.0,0.0,0.0,0.0,0.0,0.0,0.0,0.0,0.0,0.0,0.0,0.0,0.0,0.0,0.0,0.0,0.0,0.0,0.0,0.0,-1.6665,-1.7484,-1.886,-2.0807,-2.3562,-2.443,-2.5003,-2.5539,-2.5984,-2.6595,-2.737,-2.774,-2.7625,-2.6996,-2.7078,-2.6736,-2.5834,-2.5974,-2.6151,-2.632,-2.6558,-2.6173,-2.5225,-2.5202,-2.4919,-2.4348,-2.3482,-2.3311,-2.365,-2.2695,-2.2476,-2.2711,-2.2065,-2.1516,-2.0866,-1.9426,-1.8752,-1.8605,-1.8524,-1.8062,-1.7394,-1.6431,-1.5817,-1.549,-1.5533,-1.5148,-1.4604,-1.4283,-1.3696,-1.314,-1.3211,-1.3462,-1.3792,-1.4245,-1.459,-1.4901,-1.5369,-1.5071,-1.4687,-1.4687,-1.4001,-1.3182,-1.2532,-1.2025,-1.1048,-0.9039,-0.8567,-0.8176,-0.7253,-0.6827,0.0,-0.626,-0.6995,-0.7434,-0.7159,-0.7995,-0.7665,-0.5406,-0.2839,-0.0597,0.1148,0.1065,0.0409,-0.0848,0.1104,0.3029,0.4734,0.4155,0.4578,0.0,0.0,0.0,0.0,0.0,0.0,0.0,0.0,0.0,0.0,0.0,0.0,0.0,0.0,0.0,0.0,0.0,0.0,0.0,0.0,0.0,0.0,-1.7209,-2.0435,-2.2828,-2.3144,-2.4043,-2.6525,-2.6641,-2.6767,-2.7456,-2.7922,-2.8403,-2.8989,-2.9317,-2.9162,-2.844,-2.8351,-2.8002,-2.7305,-2.7456,-2.768,-2.7901,-2.8378,-2.7856,-2.634,-2.6463,-2.5935,-2.4773,-2.4156,-2.404,-2.4313,-2.3399,-2.345,-2.412,-2.3501,-2.3258,0.0,0.0,0.0,0.0,0.0,-1.9198,-1.8482,-1.8318,-1.7772,-1.7098,-1.7098,-1.6762,-1.6238,-1.5776,-1.5418,-1.5169,-1.5215,-1.5264,-1.5438,-1.6,-1.5914,-1.583,-1.6375,-1.5922,-1.5373,-1.5389,-1.4727,-1.3944,-1.3446,-1.2987,0.0,-1.0973,-0.9889,-0.8783,-0.7475,-0.7153,-0.6919,-0.6512,-0.6886,-0.7114,-0.6996,-0.8218,-0.8916,-0.8583,-0.5684,0.0,0.0,0.0,-0.2012,-0.3124,-0.0869,0.0,0.0,0.0,0.3326,0.3706,0.3445,0.0,0.0,0.5393,0.5968,0.0,0.0,0.0,0.0,0.0,0.0,0.0,0.0,0.0,0.0,0.0,0.0,0.0,0.0,0.0,0.0,-1.9475,-2.3063,-2.7643,-2.7774,-2.745,-2.7588,-2.7695,-2.7828,-2.8019,-2.8936,-2.9552,-2.9648,-3.0331,-3.0384,-2.9525,0.0,0.0,0.0,0.0,-2.957,-2.9551,-3.0788,-2.9984,-2.7181,-2.7901,-2.707,-2.4879,-2.4811,-2.4893,-2.5063,-2.4023,-2.4309,-2.5446,-2.4497,-2.4681,-2.5314,-2.2875,-2.1116,-1.9946,-2.0161,-1.9846,-1.9373,-1.9879,0.0,0.0,-1.8279,-1.7983,-1.7618,-1.7524,-1.7603,-1.7685,-1.7608,-1.7608,-1.7675,-1.7682,-1.7163,-1.6651,-1.6759,-1.6164,-1.5634,-1.5789,-1.5136,-1.4492,-1.4414,-1.3772,-1.3147,-1.2815,-1.1205,-0.9121,-0.6608,-0.6158,-0.5774,-0.4949,-0.5929,-0.665,-0.6531,-0.8113,0.0,-1.0189,-0.6772,-0.4689,-0.4914,-0.3853,-0.3287,-0.3405,-0.1736,-0.0479,0.0299,0.0319,0.073,0.1638,0.1008,0.0632,0.064,0.3511,0.4613,0.0,0.0,0.0,0.0,0.0,0.0,0.0,0.0,0.0,0.0,0.0,0.0,0.0,0.0,0.0,-1.9334,-2.3598,-2.7361,-2.9207,-3.0037,-3.0209,-2.9555,-2.9032,-2.9077,-2.9946,-3.0891,-3.1234,-3.0665,-3.1315,-3.1061,-2.9502,-2.9283,-2.927,-2.9451,-2.9548,-3.0054,-3.0962,-3.1262,-3.0775,-2.9543,0.0,0.0,-2.7148,-2.6539,-2.6124,-2.5828,-2.504,-2.5007,-2.5438,-2.5018,-2.4951,-2.5125,-2.4217,-2.3298,-2.2422,-2.1902,-2.1742,-2.1739,-2.127,-2.1148,-2.1194,-2.1194,-2.0806,-2.0221,-1.9568,-1.893,0.0,-1.7625,-1.7444,-1.748,-1.7595,-1.7497,-1.757,-1.8335,-1.7888,-1.7503,-1.8224,-1.774,-1.6973,-1.6328,-1.6059,-1.5485,-1.4069,-1.2249,-1.0806,-1.0211,-0.9515,-0.8999,-0.8821,-0.9045,-0.9146,-0.9018,-0.9833,-1.0089,-0.9413,-0.9083,-0.8702,-0.8214,-0.7907,-0.7722,-0.7703,-0.6594,-0.5877,-0.5732,-0.4598,-0.347,-0.2388,-0.2042,-0.1744,-0.1435,0.1697,0.3524,0.0,0.0,0.0,0.0,0.0,0.0,0.0,0.0,0.0,0.0,0.0,-1.6693,0.0,0.0,-2.2575,-2.3544,-2.7026,-2.998,-3.1035,-3.1718,-3.178,-3.0956,-3.0586,-3.0609,-3.1206,-3.2094,-3.25,-3.2129,-3.241,-3.2183,-3.1251,-3.0983,-3.1047,-3.1487,-3.137,-3.1734,-3.2577,-3.2596,-3.1992,-3.0814,-3.0814,-2.9962,-2.8383,-2.801,-2.7521,-2.6905,-2.6185,-2.6057,-2.6422,-2.6629,-2.6614,-2.6444,-2.6195,-2.5177,-2.3732,-2.3129,-2.2991,-2.3082,-2.2862,-2.2737,-2.2663,-2.2663,-2.2284,-2.1779,-2.1369,-2.0994,-2.0613,-2.0231,-1.9782,-1.9562,-2.0065,-1.9249,-1.8528,-1.9431,-1.8689,-1.7928,-1.8399,-1.8186,-1.7793,-1.7422,-1.7321,-1.69,-1.5626,-1.4222,-1.2992,-1.2082,-1.1577,-1.1299,-1.1299,-1.0886,-1.0574,-1.0507,-1.0385,-1.0069,-0.9447,-0.9532,-0.9692,-0.9947,-0.9721,-0.9833,-1.0378,-0.9655,-0.9089,-0.8754,-0.7476,-0.6491,-0.5894,-0.485,-0.4101,-0.3553,-0.2035,-0.0148,0.0,0.0,0.0,0.0,0.0,0.0,0.0,0.0,-1.8203,-1.913,-2.0441,-2.1684,-2.2481,-2.4709,-2.6727,-2.7696,-2.9921,-3.1836,-3.2759,-3.29,-3.2744,-3.2301,-3.2146,-3.2104,-3.2166,-3.3011,-3.3473,-3.3308,-3.3363,-3.3277,-3.2947,-3.2649,-3.2743,-3.3312,-3.3262,-3.3506,-3.4027,-3.4192,-3.3444,-3.1856,-3.1856,-3.0904,-2.9194,-2.9194,-2.8772,-2.801,-2.7249,-2.718,-2.7656,-2.8042,-2.8131,-2.8007,-2.7766,-2.6613,-2.5016,-2.4472,-2.4157,-2.4073,-2.4372,-2.4096,-2.3587,-2.3615,-2.3404,-2.3099,-2.2946,-2.2978,-2.3032,-2.2851,-2.2293,-2.1908,-2.262,-2.1281,-1.9915,-2.0619,-1.9623,-1.8547,-1.8607,-1.8496,-1.8357,-1.8242,-1.8203,-1.7904,-1.7101,-1.618,-1.4983,-1.3229,-1.2815,-1.2695,-1.27,-1.205,-1.1555,-1.1539,-1.0711,-1.0119,-0.9999,-0.9808,-1.0156,-1.1231,-1.0932,-1.1173,-1.2228,-1.1749,-1.1176,-1.0601,-0.9677,-0.9088,-0.8832,-0.7633,-0.6669,-0.5939,-0.5883,-0.3992,-1.3316,-1.1876,-1.1969,-1.3144,-1.4466,-1.683,0.0,0.0,-2.476,-2.8295,-2.9251,-2.9532,-2.9861,-2.9964,-3.0147,-3.0506,-3.2207,-3.3579,-3.3811,-3.3336,-3.3288,-3.4095,-3.3513,-3.3072,-3.3145,-3.3949,-3.4137,-3.3363,-3.3846,-3.3728,-3.2699,-3.2559,-3.2655,-3.3049,-3.3706,-3.4314,-3.4871,-3.5642,-3.5133,-3.3436,-3.3436,-3.2214,-2.9989,-2.9989,-2.9567,-2.8805,-2.8027,-2.8113,-2.8745,-2.7811,-2.7982,-2.8738,-2.7695,-2.7331,-2.7313,-2.6548,-2.5819,-2.5236,-2.5449,-2.5136,-2.4653,-2.4778,-2.4897,-2.487,-2.4149,-2.3947,-2.3783,-2.3024,-2.2735,-2.2677,-2.2774,-2.2581,-2.2389,-2.2504,-2.1793,-2.11,-2.1163,-2.0626,-1.9921,-1.9198,-1.9102,-1.8867,-1.8006,-1.7127,-1.5935,-1.4137,-1.3207,-1.2699,-1.27,-1.2599,-1.2497,-1.238,-1.1624,-1.1114,-1.103,-1.1539,-1.2209,-1.3049,-1.2731,-1.286,-1.3632,-1.3064,-1.2588,-1.2338,-1.2131,-1.1637,-1.0782,-1.0544,-0.9968,-0.8987,-0.8147,-0.5813,-1.8738,-1.7464,-1.7406,0.0,-2.2739,-2.3954,-2.8358,-2.966,-3.0399,-3.2065,-3.3129,-3.3825,-3.3942,-3.4222,-3.4542,0.0,-3.5151,-3.5465,-3.5703,-3.4658,-3.4029,-3.4439,-3.3724,-3.3414,-3.394,-3.4361,-3.4601,-3.4653,-3.4749,-3.4604,-3.4084,-3.3696,-3.3789,-3.4418,-3.4592,-3.4999,-3.5752,-3.6119,-3.5641,-3.4358,-3.4358,-3.3541,-3.2036,-3.2036,-3.1376,-3.0247,-2.9263,-2.9178,-2.9671,-2.9478,-2.9518,-2.9636,-2.9137,-2.8753,-2.8338,-2.7071,-2.6392,-2.6066,-2.5783,-2.5602,-2.5427,-2.512,-2.5141,-2.5245,-2.4909,-2.4793,-2.4716,-2.437,-2.3928,-2.3667,-2.4139,-2.3524,-2.2928,-2.3437,-2.2889,-2.2282,-2.2381,-2.1719,-2.1027,-2.0817,-2.0352,-1.9727,-1.8906,-1.8454,-1.7762,-1.6472,-1.5105,-1.4203,-1.4214,-1.3761,-1.3245,-1.2684,-1.2319,-1.2063,-1.197,-1.2212,-1.2702,-1.3457,-1.3291,-1.3508,-1.4268,-1.4379,-1.4261,-1.393,-1.4226,-1.421,-1.3891,-1.3227,-1.2718,-1.2316,-1.1453,-1.0176,-2.1939,0.0,0.0,-2.8281,-3.0036,-3.1119,-3.4119,-3.5272,-3.5685,-3.5694,-3.6307,-3.6844,-3.6673,-3.6669,-3.6781,-3.7107,-3.6842,-3.6614,-3.6628,-3.5378,-3.4534,-3.4803,-3.3443,-3.2999,-3.4324,-3.4294,-3.4447,-3.5081,-3.4928,-3.4811,-3.4851,-3.467,-3.4803,-3.5335,-3.5597,-3.5915,-3.6401,-3.662,-3.6121,-3.4956,-3.4956,-3.4418,-3.3406,-3.3406,-3.2831,-3.1772,-3.0919,-3.0714,-3.0976,-3.1171,-3.1003,-3.0684,-3.0564,-3.0173,-2.9531,-2.8356,-2.7512,-2.6875,-2.6563,-2.6383,-2.622,-2.5647,-2.5538,-2.561,-2.536,-2.5303,-2.5303,-2.5303,-2.4889,-2.4562,-2.5159,-2.4409,-2.3639,-2.4274,-2.3802,-2.3214,-2.3306,-2.2631,-2.2049,-2.2207,-2.1674,-2.1035,-2.0449,-2.0156,-1.9702,-1.8784,-1.7365,-1.6222,-1.5729,-1.4904,-1.4019,-1.3146,-1.3272,-1.3281,-1.2936,-1.3135,-1.3583,-1.4342,-1.4311,-1.4621,-1.5423,-1.5862,-1.5929,-1.5574,-1.6099,-1.6358,-1.6311,-1.5703,-1.5452,-1.5472,-1.4718,-1.4355,0.0,0.0,-2.4167,-2.9369,-3.3802,-3.7359,-3.9009,-4.0058,-4.0684,-4.0687,-3.985,-3.8923,-3.8335,-3.6653,-3.5437,-3.5707,-3.6385,-3.6621,-3.5859,-3.4901,-3.4645,-3.556,-3.2706,-3.1638,0.0,-3.359,-3.3369,-3.3913,-3.3889,-3.396,-3.4209,-3.5001,-3.5335,-3.5018,-3.6578,-3.7204,-3.6702,-3.7442,-3.7006,-3.526,-3.526,-3.4616,-3.3406,-3.3406,-3.3389,-3.333,-3.3093,-3.2973,-3.2852,-3.2304,-3.2032,-3.1895,-3.1514,-3.1347,-3.1311,-3.1256,-2.9769,-2.7819,-2.8183,-2.7811,-2.7097,-2.6684,-2.6563,-2.6409,-2.5553,-2.5303,-2.5303,-2.5303,-2.5284,-2.5264,-2.5284,-2.5264,-2.5226,-2.5264,-2.4697,-2.4149,-2.4149,-2.3568,-2.306,-2.3057,-2.303,-2.3008,-2.2988,-2.2344,-2.1523,-2.0644,-1.9749,-1.8546,-1.6781,-1.5792,-1.4934,-1.404,-1.4716,-1.488,-1.4019,-1.4731,-1.5555,-1.6369,-1.64,-1.6772,-1.7574,-1.7562,-1.7451,-1.7226,-1.7816,-1.7863,-1.7354,-1.7897,-1.8206,-1.8268,-1.7584,-1.7518,-2.4788,0.0,-3.1019,-3.5659,-3.875,-4.0937,-4.2064,-4.2439,-4.2396,-4.1815,-3.9052,-3.6515,-3.573,-3.2733,-3.1178,-3.3582,-3.3712,-3.4224,-3.6278,-3.5786,-3.4914,-3.4079,-3.3273,0.0,0.0,0.0,0.0,-3.3737,-3.3488,-3.3786,-3.5001,-3.5129,-3.5625,-3.6615,-3.7202,-3.7515,-3.7514,-3.7767,-3.729,-3.6035,-3.5677,-3.5256,-3.4861,-3.4353,-3.4134,-3.4126,-3.4196,-3.3917,-3.3459,-3.4485,-3.3899,-3.2429,-3.2837,-3.2339,-3.1384,-3.1384,-3.0996,-3.0336,-2.9495,-2.8799,-2.8089,-2.696,-2.6986,-2.7198,-2.5726,-2.5687,-2.6043,-2.5457,-2.5303,-2.5303,-2.5303,-2.5303,-2.5303,-2.5303,-2.5139,-2.5013,-2.5046,-2.4451,-2.3915,-2.3949,-2.3508,-2.3108,-2.3104,-2.291,-2.2461,-2.1582,-1.9705,-1.8159,-1.7534,-1.7204,-1.6695,-1.5815,-1.599,-1.5804,-1.4934,-1.5668,-1.6289,-1.6553,-1.7103,-1.7542,-1.7818,-1.8369,-1.8578,-1.8375,-1.9085,-1.9589,-1.9845,-1.987,-2.0205,-2.0785,-2.0251,-2.0182,-2.866,-3.2519,-3.5762,-4.0136,-4.2474,-4.3871,-4.4442,-4.4207,-4.3177,-4.08,-3.757,-3.4422,-3.2029,-2.9082,-2.7927,-3.0739,-3.1188,-3.2236,-3.5353,-3.552,-3.5136,-3.4579,-3.428,-3.3809,0.0,0.0,0.0,-3.3469,-3.3727,-3.4296,-3.5273,-3.5485,-3.6231,-3.7562,-3.7711,-3.7897,-3.816,-3.816,-3.7752,-3.6921,-3.6327,-3.618,-3.6417,-3.5656,-3.5569,-3.5968,-3.5773,-3.5474,-3.5204,-3.6292,-3.5624,-3.3972,-3.4486,-3.4045,-3.3109,-3.2797,-3.2668,-3.2418,-3.0678,-2.9907,-2.9436,-2.7879,-2.7773,-2.7908,-2.614,-2.6006,-2.6354,-2.5908,-2.5774,-2.5851,-2.6159,-2.6005,-2.5851,-2.6178,-2.6073,-2.6005,-2.6384,-2.5824,-2.5281,-2.5313,-2.4637,-2.4031,-2.4022,-2.3809,-2.3437,-2.2871,-2.1055,-1.9434,-1.8516,-1.8119,-1.7682,-1.7167,-1.7078,-1.6843,-1.6304,-1.6776,-1.7226,-1.7519,-1.8056,-1.8484,-1.8786,-1.9333,-1.9571,-1.943,-2.025,-2.0727,-2.0823,-2.1229,-2.1683,-2.2184,-2.2123,-2.23,-3.2133,-3.6213,-3.8613,-4.2754,-4.4986,-4.6142,-4.6046,-4.5183,-4.2974,-3.8048,-3.5353,-3.2406,0.0,0.0,-2.5618,-2.7355,-2.8954,-3.0845,-3.3383,-3.4423,-3.5484,0.0,0.0,0.0,0.0,0.0,0.0,-3.3343,0.0,-3.5306,-3.5202,-3.6191,-3.7104,-3.7915,-3.8196,-3.8427,-3.8589,-3.8563,-3.8345,-3.7889,-3.7178,-3.7212,-3.7889,-3.7208,-3.7558,-3.8651,-3.7739,-3.7613,-3.7946,-3.7729,-3.711,-3.6358,-3.6358,-3.634,-3.6193,-3.5302,-3.4692,-3.3953,-3.1767,-3.1138,-3.1009,-2.937,-2.8855,-2.8517,-2.6776,-2.6281,-2.6371,-2.6587,-2.6649,-2.6851,-2.7678,-2.7294,-2.689,-2.7796,-2.7421,-2.7133,-2.802,-2.7595,-2.707,-2.707,-2.6367,-2.5742,-2.5703,-2.5019,-2.4453,-2.4414,-2.3691,-2.2266,-1.9766,-1.8652,-1.8086,-1.8066,-1.8001,-1.7991,-1.8007,-1.8047,-1.8398,-1.916,-1.9258,-1.9603,-2.0383,-2.0457,-2.0476,-2.0476,-2.1336,-2.1342,-2.05,-2.1987,-2.269,-2.2661,-2.3253,-2.3813,-3.9339,-4.2897,-4.5018,-4.6025,-4.6686,-4.6716,-4.5351,-4.2372,-3.9127,-3.6586,-3.0586,-2.5166,0.0,0.0,0.0,-2.4999,-2.7878,0.0,-3.4783,-3.7027,0.0,-3.713,0.0,-3.8425,-3.7392,-3.797,0.0,0.0,-3.592,-3.5864,-3.7661,-3.7624,-3.8167,-3.9536,-3.9281,-3.8954,-3.8589,-3.8225,-3.8014,-3.7905,-3.7719,-3.7719,-3.7905,-3.8111,-3.839,-3.8747,-3.9284,-3.9247,-3.8829,-3.9154,-3.845,-3.7184,-3.7184,-3.6817,-3.6193,-3.5302,-3.5069,-3.4926,-3.309,-3.1823,-3.0822,-2.9748,-2.9425,-2.9158,-2.7463,-2.7509,-2.803,-2.744,-2.7416,-2.7621,-2.7832,-2.7766,-2.7699,-2.793,-2.7913,-2.7904,-2.8155,-2.8082,-2.7969,-2.7969,-2.7266,-2.6465,-2.5801,-2.5527,-2.5156,-2.4492,-2.4219,-2.3379,-2.1484,-2.1035,-2.0391,-1.9102,-1.8941,-1.8685,-1.8047,-1.8594,-1.9062,-1.9258,-1.9883,-2.0332,-2.0542,-2.1167,-2.1518,-2.1518,-2.232,-2.2901,-2.322,-2.2975,-2.3456,-2.4561,-2.398,-2.4113,-4.3703,-4.6663,-4.827,-4.7854,-4.75,-4.6371,-4.3115,-3.986,-3.6119,-3.1033,-2.5832,0.0,0.0,0.0,0.0,0.0,0.0,0.0,-3.4396,-3.7082,-3.8548,0.0,-3.9694,0.0,-3.9335,-3.9958,-4.0249,0.0,-3.8469,-3.8028,-3.8806,-3.8636,-3.9002,-3.9975,-3.9503,-3.9254,-3.9277,-3.8707,-3.8548,-3.8853,-3.8531,-3.8548,-3.8885,-3.9072,-3.9486,-4.0069,-4.0247,-4.0365,-4.0502,-4.0445,-3.968,-3.8542,-3.8542,-3.8046,-3.7257,-3.6413,-3.6003,-3.5666,-3.4345,-3.2906,-3.152,-3.0804,-3.0582,-3.0377,-2.9064,-2.9151,-2.963,-2.9269,-2.9372,-2.964,-3.0006,-2.9613,-2.9203,-2.9601,-2.9235,-2.8887,-2.9298,-2.9116,-2.8769,-2.8379,-2.791,-2.7285,-2.6426,-2.6269,-2.5977,-2.5098,-2.4961,-2.4492,-2.3164,-2.2695,-2.207,-2.1074,-2.0977,-2.0625,-1.9785,-2.0156,-2.0273,-1.9883,-2.0332,-2.0605,-2.0605,-2.1445,-2.1894,-2.1894,-2.3066,-2.3661,-2.3665,-2.3918,-2.4282,-2.4774,-2.456,-2.47,-4.6677,-4.8931,-4.9951,-4.9047,-4.8008,-4.5796,-4.0423,-3.7373,-3.3179,-2.4359,0.0,-1.9879,-1.7775,-1.7973,-1.9792,-2.3949,0.0,-2.9447,-3.3568,-3.6248,-3.8358,-3.9882,-4.0873,-4.1423,-4.1423,-4.1423,-4.1423,-4.1423,-4.1357,-4.0735,-3.9373,-3.9459,-3.9588,-3.975,-3.9382,-3.9445,-4.007,-3.9462,-3.9462,-4.007,-3.9445,-3.9462,-4.0104,-4.0077,-4.0683,-4.1764,-4.1027,-4.1376,-4.2396,-4.1589,-4.0799,-4.0047,-3.9937,-3.9405,-3.8597,-3.779,-3.7055,-3.634,-3.5477,-3.4266,-3.2952,-3.2177,-3.1819,-3.1597,-3.085,-3.082,-3.1128,-3.1355,-3.1623,-3.2025,-3.2718,-3.1872,-3.1067,-3.1877,-3.1013,-3.0243,-3.1069,-3.0547,-2.9687,-2.8809,-2.8555,-2.8203,-2.7324,-2.7168,-2.6875,-2.5996,-2.5879,-2.5566,-2.4687,-2.3845,-2.3273,-2.3117,-2.3104,-2.2812,-2.2129,-2.2051,-2.1738,-2.0977,-2.0937,-2.0898,-2.0781,-2.1719,-2.2187,-2.207,-2.3711,-2.4171,-2.3361,-2.4695,-2.4966,-2.4283,-2.487,-2.5187,-5.0644,-5.2127,-5.2647,-5.0914,-4.9335,-4.6465,-3.9692,-3.4098,0.0,0.0,0.0,-1.6224,-1.7149,-1.8348,0.0,-2.5501,0.0,0.0,0.0,0.0,-3.9827,0.0,0.0,0.0,0.0,0.0,0.0,0.0,-4.2687,-4.1993,-4.1051,-4.0134,-3.9784,-4.0033,-3.9935,-3.9952,-4.007,-3.9952,-3.9952,-4.007,-3.9952,-3.9952,-4.0121,-4.1028,-4.1584,-4.1835,-4.2595,0.0,-4.3222,-4.2415,-4.1625,-4.0836,-4.0157,-3.9405,-3.8597,-3.779,-3.7404,-3.7165,-3.6358,-3.5881,-3.5293,-3.3162,-3.201,-3.1446,-3.1293,-3.1573,-3.1977,-3.2033,-3.2355,-3.2718,-3.2852,-3.2814,-3.2775,-3.2934,-3.2845,-3.2767,-3.2929,-3.2324,-3.1484,-3.0625,-2.9863,-2.9101,-2.8223,-2.8066,-2.7773,-2.6914,-2.6777,-2.6465,-2.5586,-2.4691,-2.3852,-2.316,-2.3098,-2.3047,-2.2891,-2.2891,-2.2832,-2.2676,-2.2715,-2.2422,-2.1699,-2.3144,-2.3652,-2.2988,-2.4629,-2.5371,-2.5153,-2.4723,-2.4735,-2.5159,-2.4582,-2.4659,-4.8787,-5.1257,-5.3936,-5.21,-5.0008,-4.6082,-3.726,0.0,0.0,0.0,-1.6224,-1.5185,-1.6809,0.0,0.0,0.0,0.0,0.0,0.0,0.0,0.0,0.0,0.0,0.0,0.0,0.0,0.0,0.0,-4.2696,-4.2042,-4.1631,-4.052,-3.9961,-4.0121,-4.007,-4.007,-4.007,-4.007,-4.007,-4.007,-4.007,-4.007,-4.0121,-4.1286,-4.181,-4.1835,-4.3032,-4.3497,-4.3461,-4.3075,-4.2451,-4.1699,-4.1295,-4.0396,-3.9276,-3.8891,-3.8212,-3.7452,-3.7055,-3.6652,-3.6101,-3.4908,-3.4266,-3.3989,-3.4116,-3.4147,-3.4242,-3.4851,-3.4633,-3.4353,-3.4776,-3.432,-3.3793,-3.3852,-3.3623,-3.3398,-3.3398,-3.3105,-3.2695,-3.2285,-3.1523,-3.0684,-2.9805,-2.9277,-2.8672,-2.7812,-2.7285,-2.6855,-2.6426,-2.5531,-2.4799,-2.4447,-2.4399,-2.4218,-2.3769,-2.3725,-2.3556,-2.3183,-2.3144,-2.2969,-2.2539,-2.373,-2.4219,-2.3828,-2.5059,-2.5664,-2.5605,-2.5158,-2.51,-2.539,-2.4947,-2.4928,-4.7417,-5.0862,-5.4783,-5.2989,-5.0395,-4.5565,-3.5153,-3.0617,0.0,0.0,-1.4645,-1.5016,-1.6565,0.0,0.0,0.0,0.0,0.0,0.0,0.0,0.0,0.0,0.0,0.0,0.0,0.0,0.0,0.0,-4.2427,-4.1728,-4.1464,-4.0611,-4.007,-4.007,-4.007,-4.007,-4.007,-4.007,-4.007,-4.007,-4.007,-4.007,-4.0121,-4.1286,-4.181,-4.1835,-4.3032,-4.3497,-4.3497,-4.3497,-4.302,-4.2304,-4.2304,-4.1423,-4.0139,-3.9955,-3.9203,-3.8248,-3.8065,-3.7698,-3.7294,-3.7129,-3.6765,-3.6445,-3.6645,-3.6494,-3.6461,-3.7337,-3.6703,-3.5911,-3.6546,-3.5647,-3.4622,-3.4769,-3.4354,-3.3945,-3.3945,-3.3809,-3.3672,-3.3672,-3.3027,-3.2246,-3.1543,-3.0723,-2.9863,-2.8984,-2.8125,-2.7422,-2.7051,-2.6298,-2.5744,-2.5592,-2.5582,-2.5294,-2.4594,-2.4562,-2.4324,-2.3745,-2.3669,-2.3555,-2.3398,-2.4219,-2.459,-2.4394,-2.5254,-2.5664,-2.5625,-2.5542,-2.5467,-2.5428,-2.5341,-2.5303,-5.1452,-5.4475,-5.5788,-5.3803,-5.0777,-4.5563,-3.5078,0.0,0.0,-1.6433,-1.4458,-1.4816,-1.6419,-1.6078,0.0,0.0,0.0,0.0,0.0,0.0,0.0,0.0,0.0,0.0,0.0,0.0,0.0,0.0,-4.2326,-4.1526,-4.0337,-4.0171,-4.007,-4.007,-4.007,-4.007,-4.007,-4.007,-4.007,-4.007,-4.007,-4.007,-4.0121,-4.1286,-4.181,-4.1835,-4.3032,-4.3497,0.0,-4.3497,-4.302,-4.2304,-4.2304,-4.1772,-4.091,-4.0175,-4.0267,-4.0671,-3.9918,-4.0102,-4.0543,-3.9808,-3.8245,-3.667,-3.6677,-3.7049,-3.7469,-3.7563,-3.7105,-3.6622,-3.668,-3.6103,-3.5523,-3.572,-3.5722,-3.5684,-3.5742,-3.5137,-3.457,-3.457,-3.3887,-3.3262,-3.3184,-3.25,-3.168,-3.0781,-2.9922,-2.8789,-2.7207,-2.6863,-2.6456,-2.5592,-2.5505,-2.5444,-2.5311,-2.5421,-2.5447,-2.5378,-2.5366,-2.5039,-2.4316,-2.5117,-2.5215,-2.4414,-2.5254,-2.5703,-2.5684,-2.5561,-2.5506,-2.5486,-2.537,-2.5303,-4.3683,-4.9869,-5.5917,-5.3897,-5.0451,-4.4983,-3.4963,0.0,0.0,-1.6163,-1.4375,-1.4462,-1.5035,-1.4813,-1.5455,0.0,0.0,0.0,0.0,0.0,0.0,0.0,0.0,0.0,0.0,0.0,0.0,0.0,-4.284,-4.2393,-4.1476,-4.0984,-4.0544,-4.0087,-4.007,-4.007,-4.007,-4.007,-4.007,-4.0121,-4.0417,-4.0577,-4.0607,-4.181,-4.2342,-4.2382,-4.316,-4.3497,0.0,-4.3497,-4.3296,-4.302,-4.302,-4.2231,-4.1075,-4.0744,-4.0524,-4.0322,-4.001,-4.0432,-4.1071,-4.0966,-4.0495,-3.9771,-3.8756,-3.8388,-3.8478,-3.9152,-3.8063,-3.6834,-3.7353,-3.6949,-3.6556,-3.7181,-3.6965,-3.6641,-3.6758,-3.6094,-3.5488,-3.5488,-3.4785,-3.418,-3.418,-3.3086,-3.207,-3.1738,-3.0488,-2.9355,-2.8652,-2.8043,-2.7344,-2.6438,-2.5842,-2.5474,-2.5421,-2.5443,-2.5505,-2.5543,-2.554,-2.5412,-2.5137,-2.5488,-2.5547,-2.5195,-2.5527,-2.5703,-2.5703,-2.5561,-2.5506,-2.5505,-2.537,-2.5303,-3.8477,-4.5597,-5.2878,-5.2703,-4.8893,-4.2912,0.0,0.0,0.0,-1.579,-1.4301,-1.4203,-1.4078,-1.4009,-1.448,0.0,0.0,0.0,0.0,0.0,0.0,0.0,0.0,0.0,0.0,0.0,0.0,0.0,-4.3217,-4.2963,-4.2356,-4.2016,-4.1508,-4.0747,-4.0527,-4.0409,-4.0409,-4.0189,-4.0323,-4.0726,-4.0853,-4.1117,-4.1538,-4.2351,-4.2711,-4.275,-4.325,-4.3497,0.0,-4.3497,-4.3497,-4.3497,-4.3497,-4.28,-4.1754,-4.1295,-4.1038,-4.0891,-4.0414,-4.1006,-4.1944,-4.1965,-4.2243,-4.2347,-4.0908,-4.0096,-3.9849,-4.0652,-3.9046,-3.7238,-3.7834,-3.743,-3.7084,-3.8031,-3.7833,-3.7493,-3.7597,-3.7168,-3.6699,-3.6426,-3.5898,-3.5391,-3.5137,-3.3887,-3.2949,-3.2949,-3.1465,-3.0273,-3.0019,-2.918,-2.827,-2.7382,-2.6688,-2.6028,-2.5449,-2.5397,-2.5428,-2.5466,-2.5488,-2.5526,-2.5605,-2.5664,-2.5703,-2.5703,-2.5703,-2.5702,-2.5694,-2.557,-2.5506,-2.5505,-2.537,-2.5303,-3.9141,-4.3452,-4.58,-4.9913,-4.5744,-3.9051,0.0,0.0,0.0,-1.5232,-1.419,-1.4054,-1.392,-1.3897,-1.4381,-1.5854,0.0,0.0,0.0,0.0,0.0,0.0,0.0,0.0,0.0,0.0,0.0,-4.3242,-4.332,0.0,-4.2337,-4.2997,-4.3047,-4.2286,-4.1576,-4.1187,-4.1187,-4.0443,-4.0827,-4.2163,-4.1284,-4.1653,-4.2995,-4.2781,-4.2711,-4.275,-4.325,-4.3497,0.0,-4.3497,-4.3497,-4.3497,-4.3497,-4.3479,-4.3277,-4.1699,-4.2103,-4.3222,-4.1644,-4.2358,-4.3849,-4.3058,-4.3227,-4.3626,-4.2829,-4.22,-4.1777,-4.1777,-3.995,-3.7988,-3.8007,-3.7353,-3.6949,-3.7877,-3.8208,-3.8316,-3.8377,-3.8496,-3.832,-3.7441,-3.7285,-3.6992,-3.6133,-3.5254,-3.4668,-3.4668,-3.3242,-3.1855,-3.0996,-3.0117,-2.9238,-2.8281,-2.8115,-2.7355,-2.5544,-2.5409,-2.5409,-2.5409,-2.5466,-2.5531,-2.5605,-2.5664,-2.5703,-2.5703,-2.5703,-2.5693,-2.5707,-2.5571,-2.5506,-2.5505,-2.537,-2.5303,-2.9697,-3.448,-3.8626,-3.9196,-3.6393,-3.2182,-2.7205,0.0,0.0,-1.5154,-1.4237,-1.4074,-1.3991,-1.3927,-1.4395,-1.5972,-1.6642,0.0,0.0,0.0,0.0,0.0,0.0,0.0,0.0,0.0,0.0,-4.5601,-4.4749,-4.4333,-4.4604,-4.4367,-4.3623,-4.2337,-4.2066,-4.1948,-4.1948,-4.1711,-4.204,-4.2926,-4.2468,-4.2757,-4.3611,-4.3359,-4.325,-4.325,-4.341,-4.3497,-4.3497,-4.3497,-4.3497,-4.3497,-4.3497,-4.3149,-4.2616,-4.2121,-4.2249,-4.2598,-4.2103,-4.2839,-4.399,-4.4018,-4.4335,-4.4565,-4.3943,-4.2842,-4.1566,-4.0412,-3.9508,-3.8892,-3.8892,-3.8681,-3.87,-3.9642,-3.9518,-3.9208,-3.9268,-3.8926,-3.834,-3.7461,-3.7305,-3.7012,-3.6152,-3.5273,-3.4707,-3.4707,-3.373,-3.293,-3.2637,-3.1894,-3.1035,-3.0137,-2.9448,-2.832,-2.6449,-2.6294,-2.6033,-2.5447,-2.5505,-2.558,-2.5589,-2.5659,-2.5703,-2.5703,-2.5702,-2.5684,-2.5622,-2.5537,-2.5447,-2.537,-2.5322,-2.5303,0.0,-2.8,-3.1557,-3.2787,-3.0216,0.0,0.0,0.0,0.0,0.0,-1.4015,-1.3743,-1.3965,-1.4229,-1.4836,-1.6059,-1.6888,0.0,0.0,0.0,0.0,0.0,0.0,0.0,0.0,0.0,-4.622,-4.6387,-4.5517,-4.5077,-4.528,-4.484,-4.4147,-4.3183,-4.2861,-4.2574,-4.2286,-4.2261,-4.2718,-4.3623,-4.3093,-4.3486,-4.4613,-4.3869,-4.3497,-4.3497,-4.3497,-4.3497,0.0,-4.3497,-4.3497,-4.3497,-4.3497,-4.3185,-4.2708,-4.2415,-4.2304,-4.2304,-4.2304,-4.2915,-4.383,-4.4414,-4.4691,-4.4671,-4.4034,-4.2893,-4.1508,-4.0142,-3.9527,-3.9373,-3.9662,-3.9527,-3.9508,-4.0408,-4.0335,-4.005,-4.0116,-3.9585,-3.8828,-3.7969,-3.7519,-3.7012,-3.6152,-3.5547,-3.5195,-3.5195,-3.4453,-3.3887,-3.3887,-3.3164,-3.2324,-3.1484,-3.0823,-2.9716,-2.7913,-2.7131,-2.6516,-2.5956,-2.5716,-2.5601,-2.5601,-2.5652,-2.5703,-2.5703,-2.5706,-2.5659,-2.5601,-2.5519,-2.5414,-2.5303,-2.5303,-2.5303,0.0,0.0,0.0,0.0,0.0,0.0,0.0,0.0,0.0,0.0,0.0,0.0,0.0,-1.472,-1.5493,-1.6113,-1.6941,0.0,0.0,0.0,0.0,0.0,0.0,0.0,0.0,0.0,-4.7858,-4.6004,-4.5771,-4.5399,-4.4688,-4.4604,-4.4553,-4.4502,-4.3792,-4.3081,-4.2424,-4.2257,-4.2882,-4.4316,-4.3337,-4.3921,-4.5847,-4.4287,-4.3534,0.0,-4.3497,-4.3497,-4.3497,-4.3497,-4.3497,-4.3497,-4.3497,-4.3497,-4.3406,-4.2653,-4.2396,-4.2396,-4.2411,-4.285,-4.353,-4.4392,-4.4467,-4.4085,-4.3335,-4.2489,-4.1623,-4.0739,-3.995,-3.9546,-4.0296,-3.995,-3.9565,-4.0315,-4.0658,-4.08,-4.081,-4.0387,-3.9726,-3.8867,-3.8047,-3.7207,-3.6348,-3.6133,-3.6094,-3.6094,-3.5351,-3.4785,-3.4785,-3.4023,-3.3184,-3.2363,-3.2129,-3.1357,-2.9746,-2.7941,-2.6859,-2.6801,-2.6057,-2.5619,-2.5619,-2.5678,-2.5703,-2.5701,-2.5687,-2.564,-2.5582,-2.5466,-2.537,-2.5303,-2.5303,-2.5303,-1.6842,0.0,-1.7191,-1.77,-1.6734,0.0,0.0,0.0,0.0,0.0,0.0,0.0,0.0,0.0,0.0,0.0,0.0,0.0,0.0,0.0,0.0,0.0,0.0,0.0,0.0,0.0,-4.7222,-4.7369,-4.6346,-4.5618,-4.5449,-4.4891,-4.4316,-4.3707,-4.3521,-4.3518,-4.3838,-4.3232,-4.3904,-4.5695,-4.4867,-4.4974,-4.5865,-4.4874,-4.4085,-4.3497,-4.3497,-4.3497,-4.3497,-4.3497,-4.3497,-4.3497,-4.3497,-4.3497,-4.3461,-4.3277,-4.3222,-4.3272,-4.3526,-4.3895,-4.4417,-4.5125,-4.4478,-4.3355,-4.3162,-4.2489,-4.1623,-4.0739,-4.0354,-4.0258,-4.045,-4.0354,-4.0277,-4.0581,-4.0735,-4.0843,-4.093,-4.0929,-4.0644,-3.9766,-3.9434,-3.9004,-3.8144,-3.7441,-3.6992,-3.6992,-3.625,-3.5684,-3.5684,-3.4922,-3.4062,-3.3203,-3.2539,-3.1717,-3.066,-2.8908,-2.7582,-2.6927,-2.6126,-2.5681,-2.5681,-2.5681,-2.5701,-2.5696,-2.5609,-2.551,-2.5447,-2.537,-2.5322,-2.5303,-2.5303,-2.5303,-1.5127,-1.5011,-1.4822,-1.4321,-1.3857,-1.3561,0.0,0.0,0.0,0.0,0.0,0.0,0.0,0.0,0.0,0.0,0.0,0.0,0.0,0.0,0.0,0.0,0.0,0.0,0.0,0.0,-4.7979,-4.7883,-4.6777,-4.5973,-4.5631,-4.4895,-4.454,-4.4768,-4.3748,-4.3229,-4.3314,-4.3136,-4.3766,-4.5129,-4.459,-4.4692,-4.5333,-4.4525,-4.3901,-4.3497,-4.3497,-4.3497,-4.3497,-4.3497,-4.3497,-4.3497,-4.3497,-4.3497,-4.3497,-4.3497,-4.3259,-4.3051,-4.3751,-4.4083,-4.4307,-4.4825,-4.3874,-4.2508,-4.2508,-4.1893,-4.1104,-4.0623,-4.0489,-4.0489,-4.0489,-4.0489,-4.0508,-4.06,-4.0712,-4.0827,-4.0885,-4.0758,-4.0469,-3.998,-3.957,-3.9141,-3.8672,-3.8203,-3.7754,-3.7363,-3.6894,-3.6445,-3.6055,-3.5586,-3.4805,-3.3535,-3.3008,-3.2246,-3.1016,-2.9632,-2.8637,-2.8174,-2.6978,-2.6309,-2.6309,-2.5918,-2.5691,-2.5707,-2.557,-2.5484,-2.5447,-2.5341,-2.5303,-2.5303,-2.5303,-2.5303,-1.4953,-1.4966,-1.4935,-1.4608,-1.4015,-1.3644,0.0,0.0,0.0,0.0,0.0,0.0,0.0,0.0,0.0,0.0,0.0,0.0,0.0,0.0,0.0,0.0,0.0,0.0,0.0,-4.9433,-4.9026,-4.7858,-4.7039,-4.6326,-4.5683,-4.4781,-4.482,-4.6012,-4.3978,-4.2687,-4.2178,-4.2653,-4.3281,-4.4023,-4.3797,-4.4048,-4.469,-4.3993,-4.3608,-4.3497,-4.3497,-4.3497,-4.3497,-4.3497,-4.3497,-4.3497,-4.3497,-4.3497,-4.3497,-4.3497,-4.3057,-4.2629,-4.3732,-4.4063,-4.4052,-4.44,-4.3355,-4.2008,-4.2008,-4.1296,-4.0489,-4.0489,-4.0489,-4.0489,-4.0489,-4.0489,-4.0508,-4.0543,-4.0667,-4.0807,-4.0831,-4.0444,-4.0098,-4.0098,-3.9492,-3.9004,-3.9004,-3.8789,-3.8359,-3.7617,-3.7266,-3.6836,-3.6094,-3.5996,-3.5332,-3.3594,-3.3398,-3.2715,-3.1035,-3.0215,-2.9746,-2.9609,-2.7969,-2.6934,-2.6816,-2.6094,-2.5683,-2.5662,-2.5564,-2.5485,-2.5466,-2.537,-2.5303,-2.5303,-2.5303,-2.5303,-1.4169,-1.4629,-1.4706,-1.3161,-1.3193,-1.3408,0.0,0.0,0.0,0.0,0.0,0.0,0.0,0.0,0.0,0.0,0.0,0.0,0.0,0.0,0.0,0.0,0.0,0.0,-4.7728,-4.8253,-4.8378,-4.7664,-4.6861,-4.635,-4.6257,-4.4836,-4.416,-4.4466,-4.343,-4.2814,-4.2597,-4.2699,-4.3333,-4.4583,-4.4545,-4.458,-4.4709,-4.458,-4.414,-4.3497,-4.3497,-4.3497,-4.3497,-4.3497,-4.3497,-4.3497,-4.3497,-4.3497,-4.3497,-4.3497,-4.3406,-4.3431,-4.4243,-4.4681,-4.4949,-4.5283,-4.4259,-4.2893,-4.2893,-4.1777,-4.0489,-4.0489,-4.0489,-4.0489,-4.0489,-4.0489,-4.0543,-4.0639,-4.0742,-4.0827,-4.0932,-4.0995,-4.0996,-4.0996,-4.0898,-4.0801,-4.0801,-3.957,-3.8555,-3.8418,-3.7148,-3.6152,-3.6016,-3.5996,-3.5332,-3.3594,-3.3398,-3.2715,-3.1035,-3.0781,-3.0391,-2.9648,-2.7969,-2.668,-2.5937,-2.5762,-2.5658,-2.5539,-2.5498,-2.5446,-2.5322,-2.5303,-2.5303,-2.5303,-2.5303,-2.5303,-1.4666,-1.4877,-1.5233,-1.5816,-1.5133,-1.4295,0.0,0.0,0.0,0.0,0.0,0.0,0.0,0.0,0.0,0.0,0.0,0.0,0.0,0.0,0.0,0.0,0.0,-4.7879,-4.848,-4.8457,-4.8297,-4.8136,-4.6999,-4.6498,-4.6937,-4.4971,-4.4462,-4.5676,-4.4086,-4.3389,-4.3798,-4.336,-4.3433,-4.4048,-4.4048,-4.4048,-4.4048,-4.4048,-4.3846,-4.3497,-4.3497,-4.3497,-4.3497,-4.3497,-4.3497,-4.3497,-4.3497,-4.3497,-4.3497,-4.3497,-4.3612,-4.3868,-4.4419,-4.4521,-4.4452,-4.4803,-4.3758,-4.2412,-4.2412,-4.1508,-4.0489,-4.0489,-4.0489,-4.0489,-4.0489,-4.0489,-4.0508,-4.0581,-4.0696,-4.0822,-4.0889,-4.1045,-4.1191,-4.1191,-4.1191,-4.1191,-4.1191,-4.0547,-3.9687,-3.873,-3.793,-3.7051,-3.6113,-3.5996,-3.5332,-3.3594,-3.3398,-3.2715,-3.1035,-3.0898,-3.0332,-2.8984,-2.7695,-2.6602,-2.5742,-2.5675,-2.5615,-2.5553,-2.5468,-2.5421,-2.5341,-2.5322,-2.5303,-2.5303,-2.5303,-2.5303,-1.4927,-1.487,-1.5318,0.0,0.0,0.0,0.0,0.0,0.0,0.0,0.0,0.0,0.0,0.0,0.0,0.0,0.0,0.0,0.0,0.0,0.0,0.0,-4.6893,-4.7902,-4.9169,-4.8526,-4.8056,-4.823,-4.692,-4.6377,-4.7034,-4.5128,-4.4796,-4.647,-4.4562,-4.3791,-4.4415,-4.3809,-4.3497,-4.3497,-4.3497,-4.3497,-4.3497,-4.3497,-4.3497,-4.3497,-4.3497,-4.3497,-4.3497,-4.3497,-4.3497,-4.3497,-4.3497,-4.3497,-4.3497,-4.3497,-4.3679,-4.3943,-4.4337,-4.4247,-4.404,-4.4384,-4.34,-4.2104,-4.2104,-4.1354,-4.0489,-4.0489,-4.0489,-4.0489,-4.0489,-4.0489,-4.0508,-4.0543,-4.0677,-4.081,-4.0828,-4.1022,-4.1191,-4.1191,-4.1191,-4.1191,-4.1191,-4.0859,-4.0137,-3.8809,-3.8242,-3.7519,-3.6172,-3.5996,-3.5409,-3.3866,-3.3512,-3.2682,-3.0996,-3.0488,-2.9707,-2.8379,-2.748,-2.66,-2.5703,-2.5633,-2.5582,-2.5543,-2.5447,-2.539,-2.539,-2.5322,-2.5303,-2.5303,-2.5303,-2.5274,-1.4091,-1.3997,-1.4125,-1.5131,0.0,0.0,0.0,0.0,0.0,0.0,0.0,0.0,0.0,0.0,0.0,0.0,0.0,0.0,0.0,0.0,0.0,-4.6929,-4.7737,-4.8269,-4.8379,-4.7682,-4.7186,-4.7203,-4.6396,-4.5975,-4.6012,-4.5132,-4.4728,-4.4874,-4.3975,-4.3516,-4.3589,-4.3516,-4.3497,-4.3497,-4.3497,-4.3497,-4.3497,-4.3497,-4.3497,-4.3497,-4.3497,-4.3497,-4.3497,-4.3497,-4.3497,-4.3497,-4.3497,-4.3497,-4.3497,-4.3497,-4.3513,-4.3597,-4.3943,-4.4252,-4.4607,-4.4935,-4.4135,-4.3008,-4.3008,-4.1835,-4.0489,-4.0489,-4.0489,-4.0489,-4.0489,-4.0489,-4.0543,-4.0658,-4.0735,-4.0827,-4.0973,-4.1103,-4.1191,-4.1191,-4.1191,-4.1191,-4.1191,-3.9863,-3.873,-3.8613,-3.7226,-3.6133,-3.6016,-3.5996,-3.5639,-3.471,-3.3834,-3.261,-3.0858,-2.9297,-2.8379,-2.8301,-2.748,-2.6571,-2.5657,-2.5601,-2.5543,-2.5428,-2.5409,-2.537,-2.5303,-2.5303,-2.5303,-2.5303,-2.5303,-2.5203,-1.4814,-1.6324,-1.8233,0.0,0.0,0.0,0.0,0.0,0.0,0.0,0.0,0.0,0.0,0.0,0.0,0.0,0.0,0.0,0.0,0.0,0.0,-4.6269,-4.6617,-4.6819,-4.6819,-4.6526,-4.6361,-4.6361,-4.5608,-4.5369,-4.5865,-4.4654,-4.4176,-4.469,-4.392,-4.3497,-4.3497,-4.3497,-4.3497,-4.3497,-4.3497,-4.3497,-4.3497,-4.3497,-4.3497,-4.3497,-4.3497,-4.3497,-4.3497,-4.3497,-4.3497,-4.3497,-4.3497,-4.3497,-4.3497,-4.3497,-4.3497,-4.3548,-4.3881,-4.4261,-4.4676,-4.4988,-4.4537,-4.3855,-4.3855,-4.3047,-4.2124,-4.2124,-4.2124,-4.1873,-4.0777,-4.0489,-4.0677,-4.1347,-4.1558,-4.1656,-4.1774,-4.1875,-4.1797,-4.1308,-4.1191,-4.1191,-4.1191,-4.0195,-3.9219,-3.8672,-3.7578,-3.6601,-3.6074,-3.5996,-3.5676,-3.4792,-3.3369,-3.2017,-3.0804,-2.9659,-2.9027,-2.9038,-2.7256,-2.6019,-2.5621,-2.5563,-2.5486,-2.5409,-2.537,-2.5322,-2.5303,-2.5303,-2.5303,-2.5303,-2.5303,-2.5203,-1.5356,-1.7375,-1.9928,0.0,0.0,0.0,0.0,0.0,0.0,0.0,0.0,0.0,0.0,0.0,0.0,0.0,0.0,0.0,0.0,0.0,-4.4911,-4.5461,-4.5755,-4.5902,-4.5902,-4.5663,-4.5516,-4.5516,-4.5021,-4.4837,-4.5131,-4.4342,-4.4011,-4.4305,-4.3791,-4.3497,-4.3497,-4.3497,-4.3497,-4.3497,-4.3497,-4.3497,-4.3497,-4.3497,-4.3497,-4.3497,-4.3497,-4.3497,-4.3497,-4.3497,-4.3497,-4.3497,-4.3497,-4.3497,-4.3497,-4.3497,-4.3497,-4.3548,-4.3881,-4.4261,-4.4676,-4.4988,-4.4748,-4.4297,-4.4297,-4.3739,-4.3104,-4.3104,-4.3104,-4.2835,-4.1623,-4.1351,-4.154,-4.2283,-4.2312,-4.2276,-4.2654,-4.2359,-4.1933,-4.1641,-4.1367,-4.1191,-4.1191,-4.0488,-3.9609,-3.873,-3.7851,-3.6992,-3.6113,-3.5996,-3.5652,-3.4754,-3.3305,-3.2073,-3.1172,-3.0069,-2.944,-2.9494,-2.7336,-2.6018,-2.5957,-2.564,-2.5447,-2.537,-2.5322,-2.5303,-2.5303,-2.5303,-2.5303,-2.5303,-2.5303,-2.5203,-1.5478,-1.6521,0.0,0.0,0.0,0.0,0.0,0.0,0.0,0.0,0.0,0.0,0.0,0.0,0.0,0.0,0.0,0.0,0.0,0.0,-4.4709,-4.4709,-4.5388,-4.5883,-4.5883,-4.5168,-4.4709,-4.4709,-4.4709,-4.4342,-4.3534,-4.4268,-4.4323,-4.3516,-4.3497,-4.3497,-4.3497,-4.3497,-4.3497,-4.3497,-4.3497,-4.3497,-4.3497,-4.3497,-4.3497,-4.3497,-4.3479,-4.3479,-4.3479,-4.3479,-4.3479,-4.3497,-4.3497,-4.3497,-4.3497,-4.3497,-4.3479,-4.3529,-4.3881,-4.4261,-4.4657,-4.4988,-4.4748,-4.4316,-4.4316,-4.3758,-4.3124,-4.3124,-4.3124,-4.3124,-4.3124,-4.3159,-4.325,-4.3378,-4.2857,-4.2576,-4.3503,-4.2383,-4.1445,-4.2246,-4.1758,-4.1191,-4.1191,-4.0469,-3.959,-3.873,-3.7851,-3.6973,-3.6113,-3.5996,-3.5644,-3.4687,-3.3815,-3.2945,-3.2073,-3.034,-2.9375,-2.949,-2.7819,-2.6792,-2.6715,-2.586,-2.537,-2.5303,-2.5303,-2.5303,-2.5303,-2.5303,-2.5303,-2.5303,-2.5303,-2.5203,-1.7194,0.0,0.0,0.0,0.0,0.0,0.0,0.0,0.0,0.0,0.0,0.0,0.0,0.0,0.0,0.0,0.0,0.0,0.0,-4.3915,-4.3864,-4.3864,-4.4066,-4.4195,-4.4195,-4.3993,-4.3864,-4.3864,-4.3864,-4.3736,-4.3497,-4.3718,-4.3736,-4.3497,-4.3497,-4.3497,-4.3497,-4.3497,-4.3497,-4.3497,-4.3497,-4.3497,-4.3497,-4.3497,-4.3497,-4.3461,-4.2892,-4.2653,-4.2653,-4.2653,-4.2983,-4.3497,-4.3497,-4.3497,-4.3497,-4.3497,-4.3646,-4.3881,-4.3955,-4.4428,-4.4966,-4.5074,-4.515,-4.5201,-4.5201,-4.5047,-4.4855,-4.4855,-4.4855,-4.4874,-4.497,-4.4624,-4.4264,-4.4292,-4.375,-4.3305,-4.362,-4.2832,-4.1953,-4.1621,-4.1367,-4.1191,-4.1191,-3.9961,-3.8906,-3.8633,-3.7344,-3.6289,-3.6035,-3.5996,-3.541,-3.3848,-3.3443,-3.2686,-3.1149,-3.0525,-3.0206,-3.0206,-2.911,-2.8225,-2.7638,-2.6187,-2.5659,-2.6197,-2.561,-2.5303,-2.5303,-2.5303,-2.5303,-2.5303,-2.5303,-2.5149,-1.843,0.0,0.0,0.0,0.0,0.0,0.0,0.0,0.0,0.0,0.0,0.0,0.0,0.0,0.0,0.0,0.0,-4.3649,-4.4177,-4.3912,-4.3646,-4.3513,-4.3497,-4.3497,-4.3497,-4.3497,-4.3369,-4.3039,-4.3314,-4.3351,-4.3039,-4.3314,-4.3497,-4.3497,-4.3185,-4.302,-4.302,-4.302,-4.2855,-4.2543,-4.2873,-4.2855,-4.2561,-4.2873,-4.302,-4.3002,-4.2506,-4.2121,-4.1827,-4.1827,-4.2304,-4.3018,-4.2834,-4.2842,-4.3054,-4.3323,-4.3441,-4.361,-4.4214,-4.4713,-4.5118,-4.5262,-4.5438,-4.5586,-4.5586,-4.5586,-4.5586,-4.5586,-4.5586,-4.5528,-4.5259,-4.4951,-4.4788,-4.5168,-4.415,-4.3315,-4.4059,-4.3008,-4.1875,-4.1719,-4.1426,-4.1191,-4.1191,-4.0332,-3.9512,-3.918,-3.7637,-3.6387,-3.6035,-3.5996,-3.5449,-3.4004,-3.3555,-3.2739,-3.1287,-3.0814,-3.0564,-3.0506,-2.966,-2.8948,-2.8456,-2.6783,-2.6101,-2.6582,-2.5726,-2.563,-2.6332,-2.563,-2.5599,-2.6178,-2.5936,-2.5838,0.0,0.0,0.0,0.0,0.0,0.0,0.0,0.0,0.0,0.0,0.0,0.0,0.0,0.0,0.0,0.0,0.0,-4.3843,-4.4342,-4.4055,-4.3658,-4.3343,-4.3293,-4.3277,-4.3277,-4.3277,-4.2983,-4.2249,-4.2873,-4.2947,-4.2231,-4.2873,-4.3277,-4.3277,-4.2561,-4.2194,-4.2194,-4.2194,-4.1827,-4.113,-4.1846,-4.1772,-4.1038,-4.1827,-4.2194,-4.2194,-4.2103,-4.1717,-4.1111,-4.1038,-4.1479,-4.2136,-4.1753,-4.186,-4.2322,-4.3052,-4.3133,-4.3109,-4.4592,-4.508,-4.5086,-4.5475,-4.5547,-4.547,-4.547,-4.5528,-4.5566,-4.549,-4.547,-4.5297,-4.4509,-4.4395,-4.4694,-4.5619,-4.4086,-4.2832,-4.4414,-4.2891,-4.1426,-4.2148,-4.1699,-4.1191,-4.1191,-4.1133,-4.0762,-3.9805,-3.8242,-3.6894,-3.6094,-3.5996,-3.5644,-3.4687,-3.3867,-3.2999,-3.1959,-3.1099,-3.0564,-3.0506,-2.9698,-2.9179,-2.9102,-2.7486,-2.664,-2.6717,-2.587,-2.6236,-2.789,-2.6313,-2.6228,-2.7529,-2.6979,-2.6995,0.0,0.0,0.0,0.0,0.0,0.0,0.0,0.0,0.0,0.0,0.0,0.0,0.0,0.0,0.0,0.0,-4.3025,-4.2824,-4.293,-4.2464,-4.2076,-4.2006,-4.1783,-4.1625,-4.1625,-4.1625,-4.1552,-4.1387,-4.1534,-4.1552,-4.1387,-4.1534,-4.1625,-4.1625,-4.146,-4.1368,-4.1368,-4.1368,-4.1277,-4.1111,-4.1295,-4.0946,-4.0194,-4.1001,-4.1368,-4.1332,-4.0689,-4.0689,-4.1056,-4.0414,-4.0634,-4.1364,-4.1531,-4.1638,-4.188,-4.2908,-4.3415,-4.3738,-4.4748,-4.4823,-4.4592,-4.5337,-4.5143,-4.4586,-4.4586,-4.5047,-4.5451,-4.4759,-4.4586,-4.4547,-4.4487,-4.3512,-4.282,-4.3751,-4.3163,-4.25,-4.2871,-4.2031,-4.125,-4.1426,-4.1328,-4.1191,-4.1191,-4.0625,-3.9648,-3.8086,-3.6953,-3.6211,-3.6016,-3.5996,-3.5391,-3.3848,-3.3516,-3.2723,-3.1034,-3.0714,-3.0544,-3.0417,-3.0237,-2.9813,-2.9121,-2.7486,-2.6928,-2.7601,-2.6755,-2.6832,-2.789,-2.7525,-2.7514,-2.7808,-2.7687,-2.7601,0.0,0.0,0.0,0.0,0.0,0.0,0.0,0.0,0.0,0.0,0.0,0.0,0.0,0.0,0.0,0.0,-4.2579,-4.2126,-4.195,-4.1651,-4.1198,-4.0496,-4.0248,-4.0105,-3.9955,-3.9955,-3.979,-3.9405,-3.9735,-3.9955,-3.9955,-4.0322,-4.0708,-4.1093,-4.0359,-4.0139,-4.0524,-4.0139,-3.9955,-3.9974,-4.0341,-4.0102,-3.935,-4.0157,-4.0322,-3.9955,-3.99,-3.9918,-3.9937,-3.9496,-3.9896,-4.0707,-4.0653,-4.0888,-4.1391,-4.2709,-4.3207,-4.342,-4.4862,-4.515,-4.4989,-4.5451,-4.5278,-4.4836,-4.4432,-4.4624,-4.4874,-4.4432,-4.4028,-4.3739,-4.3814,-4.2912,-4.2013,-4.2085,-4.1914,-4.1836,-4.2266,-4.1758,-4.1191,-4.1191,-4.1191,-4.1191,-4.1191,-4.0488,-3.9453,-3.8125,-3.7187,-3.6465,-3.6055,-3.5644,-3.4863,-3.3535,-3.2989,-3.216,-3.0722,-3.0569,-3.0506,-3.0398,-3.0398,-3.0006,-2.914,-2.8255,-2.8005,-2.8467,-2.764,-2.7832,-2.9102,-2.8294,-2.8261,-2.8906,-2.8606,-2.856,0.0,0.0,0.0,0.0,0.0,0.0,0.0,0.0,0.0,0.0,0.0,0.0,0.0,0.0,0.0,0.0,-4.1797,-4.1116,-4.0979,-4.0787,-4.0182,-3.8983,-3.8667,-3.8432,-3.8235,-3.8166,-3.786,-3.7198,-3.7856,-3.8285,-3.8285,-3.8909,-3.957,-4.0267,-3.8982,-3.8615,-3.9258,-3.8762,-3.8414,-3.8303,-3.9093,-3.9203,-3.8726,-3.9386,-3.9405,-3.8946,-3.946,-3.9386,-3.8891,-3.8805,-3.9301,-4.0076,-3.9792,-4.0102,-4.0848,-4.2334,-4.2696,-4.2718,-4.4552,-4.5066,-4.497,-4.5105,-4.5066,-4.4797,-4.4085,-4.4066,-4.4239,-4.3951,-4.3508,-4.3066,-4.2912,-4.2316,-4.1566,-4.085,-4.0809,-4.1179,-4.1914,-4.1601,-4.1191,-4.1191,-4.1191,-4.1152,-4.0996,-4.0254,-3.9375,-3.8516,-3.7637,-3.6816,-3.6094,-3.5234,-3.4375,-3.3496,-3.2557,-3.1611,-3.0683,-3.054,-3.0467,-3.0398,-3.0398,-3.0083,-2.9352,-2.9313,-2.9313,-2.9313,-2.8525,-2.8852,-3.0398,-2.9006,-2.8936,-3.0056,-2.9562,-2.9589,0.0,0.0,0.0,0.0,0.0,0.0,0.0,0.0,0.0,0.0,0.0,0.0,0.0,0.0,0.0,0.0,-3.9527,-3.8762,-3.9477,-3.8682,-3.7928,-3.7756,-3.685,-3.6239,-3.6193,-3.5994,-3.5799,-3.5688,-3.6261,-3.6615,-3.6615,-3.6707,-3.6817,-3.6945,-3.6725,-3.667,-3.678,-3.7367,-3.7294,-3.6633,-3.7422,-3.812,-3.8707,-3.8817,-3.9184,-3.9698,-3.9129,-3.9184,-3.9693,-3.9258,-3.9146,-3.9328,-3.9835,-4.0099,-4.0348,-4.1524,-4.1953,-4.2036,-4.3069,-4.2931,-4.2431,-4.3181,-4.2912,-4.2297,-4.2181,-4.3143,-4.3989,-4.2547,-4.2604,-4.2931,-4.2181,-4.1335,-4.0662,-4.0546,-4.0675,-4.0884,-4.1123,-4.1191,-4.1191,-4.1191,-4.1191,-4.0957,-4.0195,-3.9355,-3.8476,-3.7598,-3.6738,-3.6133,-3.6016,-3.5234,-3.4375,-3.3496,-3.2557,-3.163,-3.0678,-3.0548,-3.0467,-3.0398,-3.0398,-3.034,-3.0237,-3.0237,-3.0237,-3.0237,-2.9371,-2.941,-3.0398,-3.0179,-3.0167,-3.0336,-3.0263,-3.0283,0.0,0.0,0.0,0.0,0.0,0.0,0.0,0.0,0.0,0.0,0.0,0.0,0.0,0.0,0.0,0.0,-3.8469,-3.7969,-3.7853,-3.7379,-3.6651,-3.5562,-3.4982,-3.4434,-3.3805,-3.3623,-3.3537,-3.3537,-3.3701,-3.4178,-3.5084,-3.4999,-3.533,-3.6266,-3.5826,-3.5807,-3.6303,-3.6174,-3.6174,-3.6303,-3.6652,-3.7239,-3.8028,-3.8028,-3.8469,-3.9203,-3.8854,-3.8976,-3.9433,-3.9212,-3.9314,-3.969,-3.9982,-4.0195,-4.0435,-4.1437,-4.1797,-4.1931,-4.2797,-4.2854,-4.2585,-4.2989,-4.2835,-4.245,-4.195,-4.2316,-4.2758,-4.2008,-4.172,-4.1662,-4.1777,-4.1143,-4.0489,-4.0489,-4.0658,-4.0822,-4.0883,-4.1043,-4.1191,-4.1191,-4.0801,-4.0351,-3.9961,-3.8769,-3.7734,-3.7363,-3.6562,-3.5996,-3.5996,-3.5234,-3.4539,-3.4119,-3.2796,-3.1758,-3.1306,-3.0763,-3.0417,-3.0398,-3.0398,-3.0398,-3.0398,-3.0398,-3.0398,-3.0398,-3.0025,-3.0025,-3.0398,-3.0398,-3.0398,-3.0398,-3.0398,-3.0398,0.0,0.0,0.0,0.0,0.0,0.0,0.0,0.0,0.0,0.0,0.0,0.0,0.0,0.0,0.0,0.0,-3.7642,-3.7219,-3.6757,-3.6526,-3.5758,-3.4094,-3.3716,-3.3176,-3.2101,-3.1955,-3.1901,-3.1901,-3.1836,-3.2333,-3.3538,-3.3345,-3.3752,-3.5018,-3.4633,-3.4706,-3.5349,-3.4926,-3.5238,-3.6303,-3.6083,-3.6452,-3.7292,-3.7292,-3.7653,-3.8311,-3.8649,-3.8961,-3.9238,-3.9314,-3.9645,-4.0101,-4.0177,-4.0321,-4.0566,-4.1239,-4.147,-4.1566,-4.22,-4.2431,-4.2431,-4.2431,-4.2431,-4.2316,-4.1662,-4.1623,-4.1758,-4.1527,-4.1162,-4.0931,-4.1354,-4.0989,-4.0508,-4.0543,-4.0677,-4.0828,-4.0882,-4.1055,-4.1133,-4.0918,-4.0332,-3.9766,-3.9316,-3.8164,-3.7226,-3.6992,-3.6426,-3.5996,-3.5996,-3.5234,-3.4608,-3.4313,-3.2867,-3.1794,-3.1518,-3.0821,-3.0398,-3.0398,-3.0398,-3.0398,-3.0398,-3.0398,-3.0398,-3.0398,-3.0398,-3.0398,-3.0398,-3.0398,-3.0398,-3.0398,-3.0398,-3.0398,0.0,0.0,0.0,0.0,0.0,0.0,0.0,0.0,0.0,0.0,0.0,0.0,0.0,0.0,0.0,0.0,-3.668,-3.5892,-3.6603,-3.6045,-3.5205,-3.4282,-3.3455,-3.2628,-3.1808,-3.1499,-3.134,-3.134,-3.1636,-3.1831,-3.1924,-3.1666,-3.1549,-3.1641,-3.2357,-3.2761,-3.2797,-3.3513,-3.4688,-3.6285,-3.5477,-3.5661,-3.6756,-3.6756,-3.6907,-3.7239,-3.8532,-3.9282,-3.9599,-3.9922,-4.0081,-4.012,-4.0372,-4.0489,-4.0508,-4.0546,-4.0566,-4.0566,-4.0604,-4.0642,-4.0642,-4.0642,-4.0642,-4.0623,-4.0566,-4.1143,-4.1643,-4.0796,-4.1123,-4.1546,-4.0758,-4.0527,-4.0543,-4.0658,-4.0754,-4.0875,-4.1116,-4.1191,-4.0957,-4.0137,-3.9922,-3.9375,-3.7715,-3.7363,-3.7012,-3.6191,-3.6035,-3.5996,-3.5996,-3.5234,-3.4375,-3.3553,-3.2528,-3.1564,-3.0737,-3.0506,-3.0398,-3.0398,-3.0398,-3.0398,-3.0398,-3.0398,-3.0398,-3.0398,-3.0398,-3.0398,-3.0398,-3.0398,-3.0398,-3.0398,-3.0398,-3.0398,0.0,0.0,0.0,0.0,0.0,0.0,0.0,0.0,0.0,0.0,0.0,0.0,0.0,0.0,0.0,0.0,-3.543,-3.4776,-3.5045,-3.4372,-3.3526,-3.2699,-3.2314,-3.1795,-3.0948,-3.0791,-3.0642,-3.0475,-3.0582,-3.0772,-3.1014,-3.0943,-3.1048,-3.1409,-3.1678,-3.2082,-3.2596,-3.3403,-3.4189,-3.4932,-3.4636,-3.507,-3.6197,-3.6197,-3.6616,-3.7375,-3.786,-3.845,-3.9123,-3.9833,-4.0195,-4.0372,-4.0473,-4.0489,-4.0489,-4.0489,-4.0489,-4.0489,-4.0489,-4.0489,-4.0489,-4.0489,-4.0489,-4.0489,-4.0489,-4.0719,-4.0893,-4.0585,-4.0719,-4.0893,-4.0566,-4.0489,-4.0545,-4.0726,-4.0849,-4.0984,-4.116,-4.1191,-4.0937,-4.0078,-3.9453,-3.8691,-3.75,-3.6836,-3.6367,-3.6055,-3.5996,-3.5996,-3.5996,-3.5723,-3.5391,-3.5039,-3.413,-3.32,-3.2293,-3.1602,-3.1006,-3.0436,-3.0398,-3.0398,-3.0398,-3.0398,-3.0398,-3.0398,-3.0398,-3.0398,-3.0398,-3.0398,-3.0398,-3.0398,-3.0398,-3.0398,0.0,0.0,0.0,0.0,0.0,0.0,0.0,0.0,0.0,0.0,0.0,0.0,0.0,0.0,0.0,0.0,-3.4141,-3.3757,-3.3757,-3.3276,-3.2602,-3.1795,-3.1698,-3.1237,-3.0083,-2.9967,-2.9786,-2.9327,-2.9221,0.0,-2.985,-2.9787,-3.0182,-3.1112,-3.1149,-3.1695,-3.2858,-3.3099,-3.3478,-3.3926,-3.3926,-3.4379,-3.521,-3.5494,-3.6065,-3.6848,-3.7116,-3.7728,-3.8588,-3.9162,-3.9668,-4.0085,-4.0085,-4.0258,-4.0489,-4.0489,-4.0489,-4.0489,-4.0489,-4.0489,-4.0489,-4.0489,-4.0489,-4.0489,-4.0489,-4.0489,-4.0489,-4.0489,-4.0296,-4.0085,-4.0085,-4.0142,-4.0241,-4.0397,-4.052,-4.0662,-4.0748,-4.0996,-4.0859,-3.9687,-3.9004,-3.8223,-3.7051,-3.6387,-3.5996,-3.5996,-3.5996,-3.5996,-3.5996,-3.5996,-3.5879,-3.5527,-3.492,-3.4043,-3.2805,-3.2115,-3.1352,-3.0456,-3.0398,-3.0398,-3.0398,-3.0398,-3.0398,-3.0398,-3.0398,-3.0398,-3.0398,-3.0398,-3.0398,-3.0398,-3.0398,-3.0398,0.0,0.0,0.0,0.0,0.0,0.0,0.0,0.0,0.0,0.0,0.0,0.0,0.0,0.0,0.0,0.0,-3.2795,-3.2833,-3.2852,-3.2814,-3.2506,-3.1756,-3.166,-3.0987,-2.9256,-2.9102,-2.8756,-2.7948,-2.7644,-2.7761,-2.832,-2.8203,-2.8871,-3.053,-3.0605,-3.1476,-3.3315,-3.2524,-3.2543,-3.3373,-3.341,-3.3544,-3.3843,-3.4704,-3.5239,-3.5532,-3.6334,-3.7142,-3.793,-3.7988,-3.8507,-3.9258,-3.9277,-3.9777,-4.0469,-4.0489,-4.0489,-4.0489,-4.0489,-4.0489,-4.0489,-4.0489,-4.0489,-4.0489,-4.0489,-4.0489,-4.0489,-4.0489,-3.9931,-3.9315,-3.9296,-3.9431,-3.9585,-3.9642,-3.9773,-3.9862,-3.9852,-4.0527,-4.0625,-3.8906,-3.8574,-3.8047,-3.6309,-3.5996,-3.5996,-3.5996,-3.5996,-3.5996,-3.5996,-3.5996,-3.5684,-3.4824,-3.4687,-3.3929,-3.2131,-3.1903,-3.1472,-3.0544,-3.0456,-3.0456,-3.0436,-3.0436,-3.0417,-3.0398,-3.0398,-3.0398,-3.0398,-3.0398,-3.0398,-3.0398,-3.0398,-3.0398,-1.9368,0.0,0.0,0.0,0.0,0.0,0.0,0.0,0.0,0.0,0.0,0.0,0.0,0.0,0.0,0.0,-3.0294,-3.1314,-3.1948,-3.0948,-3.0294,-3.0717,-3.0756,-3.0314,-2.9198,-2.9102,-2.8691,0.0,-2.7731,-2.7708,-2.7547,-2.8028,-2.8818,-2.9907,-3.0509,-3.1073,-3.1582,-3.194,-3.2335,-3.2759,-3.3403,-3.3824,-3.4131,-3.4981,-3.5432,-3.5512,-3.5738,-3.5968,-3.6295,-3.7507,-3.8142,-3.8411,-3.9046,-3.9431,-3.97,-4.0277,-4.0489,-4.0489,-4.0489,-4.0489,-4.0489,-4.0489,-4.0489,-4.0489,-4.0489,-4.0489,-4.0489,-4.0489,-4.0335,-4.0027,-3.945,-3.8974,-3.8656,-3.8675,-3.8831,-3.8951,-3.8964,-3.9141,-3.8984,-3.7871,-3.8164,-3.8047,-3.6309,-3.5996,-3.5996,-3.5996,-3.5996,-3.5996,-3.5996,-3.5996,-3.5918,-3.5664,-3.5586,-3.5062,-3.3887,-3.3669,-3.3211,-3.2275,-3.2218,-3.1948,-3.1371,-3.1352,-3.1044,-3.0398,-3.0398,-3.0398,-3.0398,-3.0398,-3.0398,-3.0398,-3.0398,-3.0398,0.0,0.0,0.0,0.0,0.0,0.0,-2.0685,-2.1177,-2.1958,0.0,0.0,0.0,0.0,0.0,0.0,0.0,-2.7555,-2.8641,-2.9917,-2.9236,-2.8794,-2.9294,-2.9371,-2.9006,-2.814,-2.8063,-2.7646,-2.6649,-2.6741,-2.6972,-2.7312,-2.7692,-2.8334,-2.9282,-2.9775,-3.0241,-3.0681,-3.1159,-3.1657,-3.2178,-3.3015,-3.3513,-3.3699,-3.4949,-3.5493,-3.5493,-3.5493,-3.5493,-3.5584,-3.6546,-3.7161,-3.7507,-3.8027,-3.8661,-3.9354,-3.9815,-4.02,-4.0489,-4.0489,-4.0489,-4.0489,-4.0489,-4.0489,-4.0489,-4.0489,-4.0489,-4.0489,-4.0489,-4.0258,-3.9754,-3.858,-3.8266,-3.82,-3.7907,-3.7936,-3.8027,-3.8047,-3.8066,-3.791,-3.7402,-3.7715,-3.7617,-3.623,-3.5996,-3.5996,-3.5996,-3.5996,-3.5996,-3.5996,-3.5996,-3.5996,-3.5996,-3.5976,-3.5556,-3.4581,-3.4425,-3.382,-3.2487,-3.241,-3.2025,-3.1198,-3.116,-3.0929,-3.0398,-3.0398,-3.0398,-3.0398,-3.0398,-3.0398,-3.0398,-3.0398,-3.0217,0.0,0.0,0.0,0.0,0.0,0.0,-2.0369,-2.0937,-2.1703,-2.2527,0.0,0.0,0.0,0.0,0.0,0.0,-2.474,-2.5543,-2.761,-2.7813,-2.7794,-2.789,-2.789,-2.7563,-2.6678,-2.6601,-2.6236,-2.536,-2.5303,-2.5913,-2.7319,-2.7233,-2.7612,-2.8668,-2.8782,-2.9283,-3.0244,-3.034,-3.0794,-3.1564,-3.2372,-3.2814,-3.2968,-3.4603,-3.5411,-3.5493,-3.5493,-3.5493,-3.5493,-3.5493,-3.593,-3.6584,-3.668,-3.7642,-3.9008,-3.9123,-3.9662,-4.0335,-4.0258,-4.0335,-4.0469,-4.0277,-4.0335,-4.0469,-4.0392,-4.0431,-4.0469,-4.0392,-3.9777,-3.8811,-3.7266,-3.7453,-3.7889,-3.7191,-3.7049,-3.707,-3.7129,-3.7148,-3.7168,-3.7168,-3.7226,-3.7012,-3.6152,-3.5996,-3.5996,-3.5996,-3.5996,-3.5996,-3.5996,-3.5996,-3.5996,-3.5996,-3.5994,-3.562,-3.4718,-3.4627,-3.3903,-3.2237,-3.2025,-3.1583,-3.0706,-3.059,-3.0494,-3.0398,-3.0398,-3.0398,-3.0398,-3.0398,-3.034,-3.0256,-3.0256,-2.9794,0.0,0.0,0.0,0.0,0.0,0.0,-2.1251,-2.1292,-2.1585,0.0,0.0,0.0,0.0,0.0,0.0,0.0,0.0,-2.4222,-2.7456,-2.7294,-2.7101,-2.7813,-2.789,-2.7563,-2.6678,-2.6601,-2.6236,-2.536,-2.5303,-2.5735,-2.6732,-2.6738,-2.714,-2.8057,-2.8691,-2.9137,-2.9352,-3.0044,-3.0475,-3.0648,-3.1525,-3.2275,-3.2949,-3.3987,-3.4834,-3.5493,-3.5493,-3.5493,-3.5493,-3.5493,-3.5603,-3.5815,-3.6449,-3.6911,-3.7296,-3.7988,-3.8796,-3.9431,-3.8719,-3.9373,-4.0277,-3.8931,-3.9392,-4.0373,-3.9719,-3.9988,-4.0354,-3.9719,-3.8911,-3.8027,-3.6988,-3.6958,-3.6941,-3.6107,-3.605,-3.6152,-3.6172,-3.6211,-3.625,-3.625,-3.6816,-3.7012,-3.6152,-3.5996,-3.5996,-3.5996,-3.5996,-3.5996,-3.5996,-3.5996,-3.5996,-3.5996,-3.5944,-3.5805,-3.5502,-3.5422,-3.5205,-3.4795,-3.4103,-3.3314,-3.2449,-3.1795,-3.1121,-3.0398,-3.0398,-3.0398,-3.0398,-3.0398,-3.0044,-2.9352,-2.9352,-2.8909,0.0,0.0,0.0,-2.2415,0.0,0.0,0.0,-2.1397,-2.1414,-2.1861,0.0,0.0,0.0,0.0,0.0,-2.0819,-2.0979,-2.1851,-2.4183,-2.5337,-2.612,-2.6544,-2.6601,-2.6428,-2.5986,-2.5947,-2.5774,-2.5322,-2.5303,-2.5668,-2.6544,-2.6197,-2.6351,-2.7217,-2.8063,-2.8486,-2.8486,-2.9756,-3.0398,-3.0398,-3.1275,-3.2122,-3.2929,-3.3795,-3.468,-3.5493,-3.5493,-3.5493,-3.5493,-3.5493,-3.5493,-3.5532,-3.5949,-3.6353,-3.6757,-3.7199,-3.7892,-3.8584,-3.8142,-3.8834,-3.9681,-3.8411,-3.8854,-3.9738,-3.8911,-3.8931,-3.9161,-3.8757,-3.8334,-3.7796,-3.693,-3.6738,-3.6598,-3.5795,-3.5688,-3.5825,-3.5895,-3.5957,-3.5996,-3.5996,-3.6348,-3.6504,-3.6074,-3.5996,-3.5996,-3.5996,-3.5996,-3.5996,-3.5996,-3.5996,-3.5987,-3.5957,-3.5916,-3.5836,-3.5658,-3.5618,-3.5199,-3.4257,-3.3795,-3.2987,-3.1718,-3.1275,-3.0852,-3.0398,-3.0398,-3.0398,-3.0398,-2.9967,-2.9525,-2.9102,-2.9102,-2.8429,0.0,0.0,0.0,0.0,0.0,-2.2939,0.0,0.0,0.0,0.0,0.0,0.0,0.0,0.0,0.0,0.0,0.0,0.0,0.0,-2.2751,0.0,-2.4283,-2.4264,-2.4408,-2.4745,-2.5061,-2.5264,-2.5303,-2.5264,-2.5571,-2.6313,-2.5668,-2.561,-2.6332,-2.7351,-2.789,-2.789,-2.9563,-3.0398,-3.0398,-3.1121,-3.1968,-3.291,-3.3622,-3.4526,-3.5493,-3.5493,-3.5493,-3.5493,-3.5493,-3.5493,-3.5493,-3.5493,-3.5911,-3.6469,-3.6469,-3.7007,-3.7738,-3.7565,-3.818,-3.8873,-3.7853,-3.8104,-3.87,-3.8161,-3.7873,-3.7757,-3.7757,-3.7757,-3.7546,-3.6699,-3.6584,-3.6507,-3.5757,-3.5641,-3.5728,-3.5832,-3.5936,-3.5996,-3.5996,-3.5996,-3.5996,-3.5996,-3.5996,-3.5996,-3.5996,-3.5996,-3.5995,-3.5979,-3.5977,-3.5958,-3.5871,-3.5836,-3.5776,-3.5622,-3.5603,-3.4891,-3.3256,-3.2987,-3.2218,-3.0717,-3.0494,-3.0398,-3.0398,-3.0398,-3.0398,-3.0398,-2.9525,-2.9006,-2.8852,-2.8698,-2.7794,0.0,0.0,0.0,0.0,-2.4198,0.0,0.0,0.0,-2.2077,-2.041,0.0,0.0,0.0,0.0,0.0,0.0,0.0,0.0,-1.7828,-1.996,-2.138,-2.0608,-2.0572,-2.1214,-2.2765,-2.4197,-2.5099,-2.5293,-2.5122,-2.5168,-2.5437,-2.5341,-2.5341,-2.5437,-2.7044,-2.789,-2.789,-2.9563,-3.0398,-3.0398,-3.0494,-3.1371,-3.2891,-3.3006,-3.3949,-3.5493,-3.5493,-3.5493,-3.5493,-3.5493,-3.5493,-3.5493,-3.5493,-3.5565,-3.5641,-3.5641,-3.6161,-3.6757,-3.6026,-3.6815,-3.7892,-3.6295,-3.6334,-3.7123,-3.7796,-3.7469,-3.6853,-3.6853,-3.6853,-3.6661,-3.5853,-3.618,-3.6507,-3.5699,-3.5622,-3.5707,-3.5709,-3.5874,-3.5996,-3.5996,-3.5996,-3.5996,-3.5996,-3.5996,-3.5996,-3.5996,-3.5996,-3.5971,-3.5925,-3.5912,-3.5858,-3.5737,-3.5662,-3.5622,-3.5603,-3.5565,-3.5103,-3.4103,-3.3333,-3.2487,-3.1583,-3.0814,-3.0398,-3.0398,-3.0398,-3.0398,-3.0398,-2.9525,-2.8717,-2.8025,-2.7236,-2.637,0.0,0.0,0.0,0.0,0.0,0.0,-2.2849,0.0,-2.2192,0.0,0.0,0.0,0.0,0.0,0.0,0.0,-1.8655,0.0,0.0,0.0,-1.8539,0.0,0.0,0.0,-2.2498,-2.2804,-2.3389,-2.4524,-2.4053,-2.3986,-2.4562,-2.5063,-2.5534,-2.6043,-2.7255,-2.8121,-2.8582,-2.9794,-3.0398,-3.0398,-3.0398,-3.1025,-3.2199,-3.2199,-3.3122,-3.4718,-3.4218,-3.4276,-3.4757,-3.4757,-3.4757,-3.4795,-3.5315,-3.5493,-3.5493,-3.5493,-3.5718,-3.5968,-3.5622,-3.6276,-3.7142,-3.643,-3.6122,-3.6084,-3.6449,-3.6295,-3.6007,-3.6007,-3.6007,-3.593,-3.5603,-3.5757,-3.593,-3.5584,-3.5603,-3.5695,-3.5698,-3.5868,-3.5996,-3.5996,-3.5996,-3.5996,-3.5996,-3.5996,-3.5996,-3.5996,-3.5996,-3.5985,-3.5907,-3.5892,-3.5843,-3.5654,-3.5605,-3.5584,-3.5565,-3.5526,-3.4911,-3.3526,-3.2199,-3.1295,-3.0968,-3.059,-3.0398,-3.0398,-3.0398,-3.016,-2.964,-2.9275,-2.8429,-2.714,-2.6774,-2.614,-2.8491,0.0,0.0,0.0,0.0,0.0,0.0,0.0,0.0,0.0,0.0,0.0,0.0,0.0,0.0,0.0,0.0,-1.8482,0.0,-1.7164,0.0,0.0,0.0,0.0,0.0,-2.1579,-2.1895,-2.3312,-2.2757,-2.2776,-2.3687,-2.4736,-2.5687,-2.6563,-2.7659,-2.8506,-2.9083,-2.9967,-3.0398,-3.0398,-3.0398,-3.0871,-3.1698,-3.1698,-3.2487,-3.3814,-3.316,-3.3256,-3.3853,-3.4103,-3.4064,-3.393,-3.4795,-3.5141,-3.518,-3.5411,-3.5493,-3.5493,-3.5493,-3.5892,-3.6372,-3.6372,-3.5988,-3.5493,-3.5493,-3.5493,-3.5493,-3.5493,-3.5493,-3.5493,-3.5493,-3.5493,-3.5493,-3.5526,-3.5622,-3.5708,-3.5757,-3.5888,-3.5996,-3.5996,-3.5996,-3.5996,-3.5996,-3.5996,-3.5996,-3.5996,-3.5996,-3.5952,-3.585,-3.5862,-3.5776,-3.5603,-3.5584,-3.5565,-3.5493,-3.5493,-3.4757,-3.3006,-3.1333,-3.0398,-3.0398,-3.0398,-3.0398,-3.0398,-3.0398,-3.0102,-2.9467,-2.9217,-2.8352,-2.6948,-2.6717,-2.614,0.0,0.0,0.0,-2.8241,0.0,0.0,0.0,0.0,-2.3613,0.0,0.0,0.0,0.0,0.0,0.0,0.0,0.0,0.0,0.0,0.0,0.0,0.0,0.0,0.0,0.0,-2.0747,-2.1265,-2.1639,-2.1407,-2.1712,-2.2782,-2.4389,-2.5687,-2.6563,-2.8198,-2.9063,-2.9102,-2.9967,-3.0398,-3.0398,-3.0398,-3.0871,-3.1698,-3.1698,-3.216,-3.2949,-3.291,-3.291,-3.3006,-3.3853,-3.3699,-3.3026,-3.3891,-3.4237,-3.4334,-3.5199,-3.5493,-3.5493,-3.5493,-3.5526,-3.5545,-3.5545,-3.5512,-3.5493,-3.5493,-3.5493,-3.5493,-3.5493,-3.5493,-3.5493,-3.5493,-3.5493,-3.5526,-3.5584,-3.5661,-3.5738,-3.5867,-3.5957,-3.5996,-3.5996,-3.5996,-3.5996,-3.5996,-3.5996,-3.5996,-3.5996,-3.5996,-3.5929,-3.5723,-3.5704,-3.5661,-3.5526,-3.5493,-3.5493,-3.5493,-3.5493,-3.4757,-3.3006,-3.1333,-3.0398,-3.0398,-3.0398,-3.0398,-3.0398,-3.0398,-3.0379,-3.0359,-2.9506,-2.8659,-2.7832,-2.6986,-2.614,-2.992,-2.9927,-2.9988,-2.9961,0.0,0.0,0.0,0.0,0.0,0.0,0.0,0.0,0.0,0.0,0.0,0.0,0.0,0.0,0.0,0.0,0.0,0.0,0.0,0.0,0.0,0.0,-1.9706,-1.9869,-2.0329,-2.102,-2.1952,-2.411,-2.5976,-2.7484,-2.8544,-2.9371,-2.9948,-3.0256,-3.0398,-3.0398,-3.0398,-3.0552,-3.0852,-3.0852,-3.1295,-3.2064,-3.1506,-3.1564,-3.2122,-3.2429,-3.2372,-3.2199,-3.3026,-3.368,-3.4237,-3.4526,-3.5007,-3.543,-3.4834,-3.5026,-3.5315,-3.416,-3.4564,-3.5391,-3.4814,-3.5045,-3.5493,-3.5493,-3.5493,-3.5493,-3.5493,-3.5545,-3.5584,-3.5603,-3.5718,-3.5834,-3.5892,-3.595,-3.5996,-3.5996,-3.5996,-3.5996,-3.5996,-3.5996,-3.5996,-3.5996,-3.5996,-3.5929,-3.5729,-3.5695,-3.5661,-3.5526,-3.5493,-3.5493,-3.5493,-3.4449,-3.3526,-3.2949,-3.1333,-3.0398,-3.0398,-3.0398,-3.0398,-3.0398,-3.0398,-3.0121,-2.9544,-2.9813,-2.8948,-2.7044,-2.7332,-2.6678,-3.0836,-3.1203,-3.168,-3.1364,-3.0468,-2.9488,-2.8831,0.0,-2.7026,0.0,0.0,0.0,0.0,0.0,0.0,0.0,0.0,0.0,0.0,-1.8903,0.0,0.0,0.0,0.0,0.0,-1.7857,-1.8175,-1.8544,-1.9083,-2.0053,-2.156,-2.4011,-2.6179,-2.7945,-2.9033,-2.9852,-3.0379,-3.0417,-3.0448,-3.0448,-3.0467,-3.0467,-3.0467,-3.0467,-3.0775,-3.1275,-3.0698,-3.0756,-3.1295,-3.1583,-3.1525,-3.1314,-3.216,-3.2814,-3.3372,-3.3968,-3.4757,-3.543,-3.4853,-3.4834,-3.4911,-3.4083,-3.4372,-3.4988,-3.4737,-3.5045,-3.5565,-3.5853,-3.5718,-3.557,-3.5897,-3.5801,-3.5622,-3.5699,-3.5815,-3.5901,-3.5922,-3.5966,-3.5996,-3.5996,-3.5996,-3.5996,-3.5996,-3.5996,-3.5996,-3.5996,-3.5996,-3.5942,-3.5791,-3.5724,-3.5661,-3.5565,-3.5526,-3.5493,-3.5493,-3.391,-3.2891,-3.2891,-3.1333,-3.0398,-3.0398,-3.0398,-3.0667,-3.1275,-3.0686,-3.0429,-3.0448,-3.0429,-2.941,-2.7505,-2.7775,-2.7121]}]]